Darstellungsparameter: Aktuell verwendete Einstellungen:
Skalierung der Graphiken ... ?
xyx+y,   Skalierungsfaktor:      Skalierung: Modus: x, Faktor: 1
Darstellungszeitraum ... ?
Vom - - bis: - -   Zeitraum: 04.06.2014 - 10.06.2014
Min/Max/Avg-Anzeige ... ?
Zeige MMA aktuell
Zeige MMA Monat
Zeige MMA alles
Zeige --A aktuell
Zeige --A Monat
Zeige --A alles
Keine MMA-Anzeige
MMA:
Keine MMA-Graphiken
MMA-Basis: 04.06.2014 - 10.06.2014
Quicknavigation für Darstellung... ?
Tage:      1T, 2T, 3T, 5T -1T -2T -3T -5T +1T +2T +3T +5T
Wochen: 1W, 2W, 3W -1W -2W -3W +1W +2W +3W
Monate: 1M, 3M, 6M -1M -3M -6M +1M +3M +6M
Jahre:    1J, 3J, 5J, 10J -1J -3J -5J -10J +1J +3J +5J +10J
Nutze für die Darstellung ... ?
Originaldaten oder Mittelwerte auf ...
Stundenbasis Tagesbasis Wochenbasis
Monatsbasis Jahresbasis      Datenbasis: Original-Daten
Darstellen als:
Statistik (Auto) Statistik J:M      Darstellung:
Zur Graphik,    zurück zur Übersicht aller Sensoren.
 
Tabellarische Datenbersicht: ?
 
Sensor: Nr:Datum:Temp:Abs-Feuchte:Windchill:Wind:
Aussen-T/F 1 04-06-2014 00:00:00 13.2 C 9.76 g/m*3 13.2 C 0 km/h
2 04-06-2014 00:05:00 13.2 C 9.76 g/m*3 13.2 C 0 km/h
3 04-06-2014 00:10:00 13.1 C 9.81 g/m*3 13.1 C 1.6 km/h
4 04-06-2014 00:15:00 13.1 C 9.81 g/m*3 13.1 C 0 km/h
5 04-06-2014 00:20:00 13 C 9.75 g/m*3 13 C 0 km/h
6 04-06-2014 00:25:00 13 C 9.75 g/m*3 13 C 0 km/h
7 04-06-2014 00:30:00 12.9 C 9.81 g/m*3 12.9 C 0 km/h
8 04-06-2014 00:35:00 12.9 C 9.69 g/m*3 12.9 C 0 km/h
9 04-06-2014 00:40:00 12.8 C 9.74 g/m*3 12.8 C 0 km/h
10 04-06-2014 00:45:00 12.8 C 9.74 g/m*3 12.8 C 0 km/h
11 04-06-2014 00:50:00 12.8 C 9.74 g/m*3 12.8 C 0 km/h
12 04-06-2014 00:55:00 12.8 C 9.74 g/m*3 12.8 C 0 km/h
13 04-06-2014 01:00:00 12.7 C 9.68 g/m*3 12.7 C 0 km/h
14 04-06-2014 01:05:00 12.7 C 9.68 g/m*3 12.7 C 0 km/h
15 04-06-2014 01:10:00 12.5 C 9.68 g/m*3 12.5 C 0 km/h
16 04-06-2014 01:15:00 12.4 C 9.62 g/m*3 12.4 C 0 km/h
17 04-06-2014 01:20:00 12.3 C 9.56 g/m*3 12.3 C 0 km/h
18 04-06-2014 01:25:00 12.3 C 9.66 g/m*3 12.3 C 0 km/h
19 04-06-2014 01:30:00 12.2 C 9.5 g/m*3 12.2 C 0 km/h
20 04-06-2014 01:35:00 12.1 C 9.54 g/m*3 12.1 C 0 km/h
21 04-06-2014 01:40:00 11.9 C 9.43 g/m*3 11.9 C 0 km/h
22 04-06-2014 01:45:00 11.9 C 9.43 g/m*3 11.9 C 0 km/h
23 04-06-2014 01:50:00 11.9 C 9.43 g/m*3 11.9 C 0 km/h
24 04-06-2014 01:55:00 11.9 C 9.43 g/m*3 11.9 C 0 km/h
25 04-06-2014 02:00:00 11.8 C 9.47 g/m*3 11.8 C 1.6 km/h
Sensor: Nr:Datum:Temp:Abs-Feuchte:Windchill:Wind:
Aussen-T/F 26 04-06-2014 02:05:00 11.8 C 9.47 g/m*3 11.8 C 1.6 km/h
27 04-06-2014 02:10:00 11.8 C 9.47 g/m*3 11.8 C 0 km/h
28 04-06-2014 02:15:00 11.8 C 9.47 g/m*3 11.8 C 0 km/h
29 04-06-2014 02:20:00 11.7 C 9.52 g/m*3 11.7 C 0 km/h
30 04-06-2014 02:25:00 11.7 C 9.52 g/m*3 11.7 C 0 km/h
31 04-06-2014 02:30:00 11.6 C 9.46 g/m*3 11.6 C 0 km/h
32 04-06-2014 02:35:00 11.5 C 9.4 g/m*3 11.5 C 0 km/h
33 04-06-2014 02:40:00 11.4 C 9.34 g/m*3 11.4 C 0 km/h
34 04-06-2014 02:45:00 11.4 C 9.34 g/m*3 11.4 C 0 km/h
35 04-06-2014 02:50:00 11.3 C 9.38 g/m*3 11.3 C 0 km/h
36 04-06-2014 02:55:00 11.3 C 9.38 g/m*3 11.3 C 0 km/h
37 04-06-2014 03:00:00 11.3 C 9.38 g/m*3 11.3 C 0 km/h
38 04-06-2014 03:05:00 11.3 C 9.38 g/m*3 11.3 C 0 km/h
39 04-06-2014 03:10:00 11.2 C 9.33 g/m*3 11.2 C 0 km/h
40 04-06-2014 03:15:00 11.1 C 9.27 g/m*3 11.1 C 0 km/h
41 04-06-2014 03:20:00 11.1 C 9.27 g/m*3 11.1 C 0 km/h
42 04-06-2014 03:25:00 11 C 9.31 g/m*3 11 C 0 km/h
43 04-06-2014 03:30:00 10.9 C 9.25 g/m*3 10.9 C 0 km/h
44 04-06-2014 03:35:00 10.9 C 9.25 g/m*3 10.9 C 0 km/h
45 04-06-2014 03:40:00 10.8 C 9.19 g/m*3 10.8 C 0 km/h
46 04-06-2014 03:45:00 10.8 C 9.19 g/m*3 10.8 C 0 km/h
47 04-06-2014 03:50:00 10.8 C 9.19 g/m*3 10.8 C 0 km/h
48 04-06-2014 03:55:00 10.8 C 9.19 g/m*3 10.8 C 0 km/h
49 04-06-2014 04:00:00 10.8 C 9.19 g/m*3 10.8 C 0 km/h
50 04-06-2014 04:05:00 10.8 C 9.29 g/m*3 10.8 C 0 km/h
Sensor: Nr:Datum:Temp:Abs-Feuchte:Windchill:Wind:
Aussen-T/F 51 04-06-2014 04:10:00 10.8 C 9.29 g/m*3 10.8 C 1.6 km/h
52 04-06-2014 04:15:00 10.7 C 9.23 g/m*3 10.7 C 1.6 km/h
53 04-06-2014 04:20:00 10.7 C 9.23 g/m*3 10.7 C 0 km/h
54 04-06-2014 04:25:00 10.7 C 9.23 g/m*3 10.7 C 0 km/h
55 04-06-2014 04:30:00 10.6 C 9.17 g/m*3 10.6 C 0 km/h
56 04-06-2014 04:35:00 10.5 C 9.12 g/m*3 10.5 C 0 km/h
57 04-06-2014 04:40:00 10.5 C 9.12 g/m*3 10.5 C 0 km/h
58 04-06-2014 04:45:00 10.6 C 9.17 g/m*3 10.6 C 1.6 km/h
59 04-06-2014 04:50:00 10.6 C 9.17 g/m*3 10.6 C 0 km/h
60 04-06-2014 04:55:00 10.6 C 9.17 g/m*3 10.6 C 0 km/h
61 04-06-2014 05:00:00 10.7 C 9.23 g/m*3 10.7 C 0 km/h
62 04-06-2014 05:05:00 10.7 C 9.23 g/m*3 10.7 C 0 km/h
63 04-06-2014 05:10:00 10.8 C 9.39 g/m*3 10.8 C 0 km/h
64 04-06-2014 05:15:00 10.8 C 9.39 g/m*3 10.8 C 0 km/h
65 04-06-2014 05:20:00 10.9 C 9.45 g/m*3 10.9 C 0 km/h
66 04-06-2014 05:25:00 10.9 C 9.35 g/m*3 10.9 C 0 km/h
67 04-06-2014 05:30:00 10.9 C 9.35 g/m*3 10.9 C 0 km/h
68 04-06-2014 05:35:00 10.9 C 9.35 g/m*3 10.9 C 0 km/h
69 04-06-2014 05:40:00 10.9 C 9.35 g/m*3 10.9 C 0 km/h
70 04-06-2014 05:45:00 10.9 C 9.35 g/m*3 10.9 C 0 km/h
71 04-06-2014 05:50:00 10.9 C 9.35 g/m*3 10.9 C 0 km/h
72 04-06-2014 05:55:00 10.9 C 9.35 g/m*3 10.9 C 0 km/h
73 04-06-2014 06:00:00 10.9 C 9.35 g/m*3 10.9 C 0 km/h
74 04-06-2014 06:05:00 11.1 C 9.47 g/m*3 11.1 C 0 km/h
75 04-06-2014 06:10:00 11.2 C 9.53 g/m*3 11.2 C 1.6 km/h
Sensor: Nr:Datum:Temp:Abs-Feuchte:Windchill:Wind:
Aussen-T/F 76 04-06-2014 06:15:00 11.3 C 9.59 g/m*3 11.3 C 0 km/h
77 04-06-2014 06:20:00 11.4 C 9.65 g/m*3 11.4 C 1.6 km/h
78 04-06-2014 06:25:00 11.6 C 9.67 g/m*3 11.6 C 0 km/h
79 04-06-2014 06:30:00 11.7 C 9.73 g/m*3 11.7 C 0 km/h
80 04-06-2014 06:35:00 11.8 C 9.79 g/m*3 11.8 C 0 km/h
81 04-06-2014 06:40:00 11.9 C 9.74 g/m*3 11.9 C 1.6 km/h
82 04-06-2014 06:45:00 12.1 C 9.87 g/m*3 12.1 C 0 km/h
83 04-06-2014 06:50:00 12.1 C 9.76 g/m*3 12.1 C 0 km/h
84 04-06-2014 06:55:00 12.2 C 9.82 g/m*3 12.2 C 0 km/h
85 04-06-2014 07:00:00 12.3 C 9.77 g/m*3 12.3 C 0 km/h
86 04-06-2014 07:05:00 12.4 C 9.83 g/m*3 12.4 C 0 km/h
87 04-06-2014 07:10:00 12.5 C 9.89 g/m*3 12.5 C 0 km/h
88 04-06-2014 07:15:00 12.6 C 9.85 g/m*3 12.6 C 0 km/h
89 04-06-2014 07:20:00 12.7 C 9.91 g/m*3 12.7 C 0 km/h
90 04-06-2014 07:25:00 12.8 C 10.08 g/m*3 12.8 C 1.6 km/h
91 04-06-2014 07:30:00 12.9 C 10.03 g/m*3 12.9 C 0 km/h
92 04-06-2014 07:35:00 13.1 C 10.16 g/m*3 13.1 C 0 km/h
93 04-06-2014 07:40:00 13.3 C 10.17 g/m*3 13.3 C 0 km/h
94 04-06-2014 07:45:00 13.4 C 10.23 g/m*3 13.4 C 0 km/h
95 04-06-2014 07:50:00 13.6 C 10.36 g/m*3 13.6 C 0 km/h
96 04-06-2014 07:55:00 13.7 C 10.3 g/m*3 13.7 C 0 km/h
97 04-06-2014 08:00:00 13.8 C 10.37 g/m*3 13.8 C 0 km/h
98 04-06-2014 08:05:00 14 C 10.49 g/m*3 14 C 0 km/h
99 04-06-2014 08:10:00 14.4 C 10.75 g/m*3 14.4 C 0 km/h
100 04-06-2014 08:15:00 14.8 C 10.77 g/m*3 14.8 C 1.6 km/h
Sensor: Nr:Datum:Temp:Abs-Feuchte:Windchill:Wind:
Aussen-T/F 101 04-06-2014 08:20:00 15.3 C 10.97 g/m*3 15.3 C 1.6 km/h
102 04-06-2014 08:25:00 15.7 C 11.11 g/m*3 15.7 C 1.6 km/h
103 04-06-2014 08:30:00 15.9 C 11.1 g/m*3 15.9 C 1.6 km/h
104 04-06-2014 08:35:00 16.2 C 11.17 g/m*3 16.2 C 1.6 km/h
105 04-06-2014 08:40:00 16.4 C 11.17 g/m*3 16.4 C 1.6 km/h
106 04-06-2014 08:45:00 16.8 C 11.58 g/m*3 16.8 C 1.6 km/h
107 04-06-2014 08:50:00 17.1 C 11.21 g/m*3 17.1 C 6.4 km/h
108 04-06-2014 08:55:00 17.4 C 11.12 g/m*3 17.4 C 4.8 km/h
109 04-06-2014 09:00:00 17.5 C 11.18 g/m*3 17.5 C 3.2 km/h
110 04-06-2014 09:05:00 17.6 C 11.1 g/m*3 17.6 C 1.6 km/h
111 04-06-2014 09:10:00 17.7 C 10.86 g/m*3 17.7 C 9.7 km/h
112 04-06-2014 09:15:00 17.8 C 11.08 g/m*3 17.8 C 3.2 km/h
113 04-06-2014 09:20:00 17.8 C 11.08 g/m*3 17.8 C 4.8 km/h
114 04-06-2014 09:25:00 17.8 C 10.93 g/m*3 17.8 C 3.2 km/h
115 04-06-2014 09:30:00 17.9 C 11.15 g/m*3 17.9 C 8.1 km/h
116 04-06-2014 09:35:00 18.1 C 11.43 g/m*3 18.1 C 4.8 km/h
117 04-06-2014 09:40:00 18.3 C 11.26 g/m*3 18.3 C 4.8 km/h
118 04-06-2014 09:45:00 18.3 C 11.1 g/m*3 18.3 C 14.5 km/h
119 04-06-2014 09:50:00 18.3 C 11.1 g/m*3 18.3 C 12.9 km/h
120 04-06-2014 09:55:00 18.3 C 11.1 g/m*3 18.3 C 4.8 km/h
121 04-06-2014 11:40:00 20.4 C 12.21 g/m*3 20.4 C 6.4 km/h
122 04-06-2014 11:45:00 20.6 C 12.17 g/m*3 20.6 C 3.2 km/h
123 04-06-2014 11:50:00 20.8 C 11.77 g/m*3 20.8 C 3.2 km/h
124 04-06-2014 11:55:00 20.9 C 11.84 g/m*3 20.9 C 3.2 km/h
125 04-06-2014 12:00:00 21 C 11.54 g/m*3 21 C 8.1 km/h
Sensor: Nr:Datum:Temp:Abs-Feuchte:Windchill:Wind:
Aussen-T/F 126 04-06-2014 12:05:00 20.9 C 11.47 g/m*3 20.9 C 3.2 km/h
127 04-06-2014 12:10:00 20.9 C 11.84 g/m*3 20.9 C 3.2 km/h
128 04-06-2014 12:15:00 20.8 C 11.59 g/m*3 20.8 C 3.2 km/h
129 04-06-2014 12:20:00 20.6 C 12.35 g/m*3 20.6 C 1.6 km/h
130 04-06-2014 12:25:00 20.3 C 11.61 g/m*3 20.3 C 3.2 km/h
131 04-06-2014 12:30:00 20.1 C 12.34 g/m*3 20.1 C 0 km/h
132 04-06-2014 12:35:00 19.8 C 11.27 g/m*3 19.8 C 3.2 km/h
133 04-06-2014 12:40:00 19.7 C 11.04 g/m*3 19.7 C 6.4 km/h
134 04-06-2014 12:45:00 19.5 C 10.91 g/m*3 19.5 C 11.3 km/h
135 04-06-2014 12:50:00 19.3 C 10.78 g/m*3 19.3 C 9.7 km/h
136 04-06-2014 12:55:00 19.1 C 10.66 g/m*3 19.1 C 14.5 km/h
137 04-06-2014 13:00:00 18.8 C 10.79 g/m*3 18.8 C 19.3 km/h
138 04-06-2014 13:05:00 18.4 C 10.85 g/m*3 18.4 C 14.5 km/h
139 04-06-2014 13:10:00 18.2 C 11.19 g/m*3 18.2 C 11.3 km/h
140 04-06-2014 13:15:00 17.9 C 11.15 g/m*3 17.9 C 8.1 km/h
141 04-06-2014 13:20:00 17.8 C 10.93 g/m*3 17.8 C 4.8 km/h
142 04-06-2014 13:25:00 17.9 C 11.15 g/m*3 17.9 C 6.4 km/h
143 04-06-2014 13:30:00 18 C 11.21 g/m*3 18 C 9.7 km/h
144 04-06-2014 13:35:00 17.9 C 11.3 g/m*3 17.9 C 12.9 km/h
145 04-06-2014 13:40:00 17.8 C 11.23 g/m*3 17.8 C 8.1 km/h
146 04-06-2014 13:45:00 17.7 C 11.47 g/m*3 17.7 C 9.7 km/h
147 04-06-2014 13:50:00 17.7 C 12.07 g/m*3 17.7 C 8.1 km/h
148 04-06-2014 13:55:00 17.6 C 12 g/m*3 17.6 C 3.2 km/h
149 04-06-2014 14:00:00 17.5 C 11.63 g/m*3 17.5 C 4.8 km/h
150 04-06-2014 14:05:00 17.4 C 11.71 g/m*3 17.4 C 6.4 km/h
Sensor: Nr:Datum:Temp:Abs-Feuchte:Windchill:Wind:
Aussen-T/F 151 04-06-2014 14:10:00 17.3 C 11.93 g/m*3 17.3 C 6.4 km/h
152 04-06-2014 14:15:00 17.2 C 12.01 g/m*3 17.2 C 0 km/h
153 04-06-2014 14:20:00 17.1 C 11.94 g/m*3 17.1 C 0 km/h
154 04-06-2014 14:25:00 16.9 C 11.94 g/m*3 16.9 C 0 km/h
155 04-06-2014 14:30:00 16.7 C 11.94 g/m*3 16.7 C 0 km/h
156 04-06-2014 14:35:00 16.5 C 12.08 g/m*3 16.5 C 0 km/h
157 04-06-2014 14:40:00 16.4 C 12.14 g/m*3 16.4 C 0 km/h
158 04-06-2014 14:45:00 16.5 C 12.36 g/m*3 16.5 C 0 km/h
159 04-06-2014 14:50:00 16.8 C 12.87 g/m*3 16.8 C 0 km/h
160 04-06-2014 14:55:00 17.1 C 13.1 g/m*3 17.1 C 3.2 km/h
161 04-06-2014 15:00:00 17.4 C 13.19 g/m*3 17.4 C 4.8 km/h
162 04-06-2014 15:05:00 17.6 C 12.9 g/m*3 17.6 C 3.2 km/h
163 04-06-2014 15:10:00 17.8 C 12.9 g/m*3 17.8 C 4.8 km/h
164 04-06-2014 15:15:00 17.9 C 12.83 g/m*3 17.9 C 1.6 km/h
165 04-06-2014 15:20:00 17.8 C 12.9 g/m*3 17.8 C 0 km/h
166 04-06-2014 15:25:00 17.6 C 13.05 g/m*3 17.6 C 0 km/h
167 04-06-2014 15:30:00 17.2 C 12.89 g/m*3 17.2 C 0 km/h
168 04-06-2014 15:35:00 17.1 C 13.1 g/m*3 17.1 C 0 km/h
169 04-06-2014 15:40:00 17.2 C 13.33 g/m*3 17.2 C 0 km/h
170 04-06-2014 15:45:00 17.2 C 13.18 g/m*3 17.2 C 4.8 km/h
171 04-06-2014 15:50:00 17.2 C 13.18 g/m*3 17.2 C 3.2 km/h
172 04-06-2014 15:55:00 17.3 C 13.26 g/m*3 17.3 C 0 km/h
173 04-06-2014 16:00:00 17.4 C 13.34 g/m*3 17.4 C 0 km/h
174 04-06-2014 16:05:00 17.5 C 13.42 g/m*3 17.5 C 0 km/h
175 04-06-2014 16:10:00 17.4 C 13.34 g/m*3 17.4 C 0 km/h
Sensor: Nr:Datum:Temp:Abs-Feuchte:Windchill:Wind:
Aussen-T/F 176 04-06-2014 16:15:00 17.4 C 13.34 g/m*3 17.4 C 0 km/h
177 04-06-2014 16:20:00 17.4 C 13.49 g/m*3 17.4 C 0 km/h
178 04-06-2014 16:25:00 17.3 C 13.41 g/m*3 17.3 C 0 km/h
179 04-06-2014 16:30:00 17.2 C 13.33 g/m*3 17.2 C 0 km/h
180 04-06-2014 16:35:00 17.1 C 13.39 g/m*3 17.1 C 0 km/h
181 04-06-2014 16:40:00 16.7 C 13.07 g/m*3 16.7 C 0 km/h
182 04-06-2014 16:45:00 16.6 C 13.14 g/m*3 16.6 C 0 km/h
183 04-06-2014 16:50:00 16.5 C 13.06 g/m*3 16.5 C 1.6 km/h
184 04-06-2014 16:55:00 16.6 C 13.28 g/m*3 16.6 C 0 km/h
185 04-06-2014 17:00:00 16.4 C 12.98 g/m*3 16.4 C 0 km/h
186 04-06-2014 17:05:00 16.6 C 13.28 g/m*3 16.6 C 0 km/h
187 04-06-2014 17:10:00 16.6 C 13.28 g/m*3 16.6 C 0 km/h
188 04-06-2014 17:15:00 16.7 C 13.36 g/m*3 16.7 C 0 km/h
189 04-06-2014 17:20:00 16.8 C 13.58 g/m*3 16.8 C 0 km/h
190 04-06-2014 17:25:00 16.8 C 13.58 g/m*3 16.8 C 0 km/h
191 04-06-2014 17:30:00 16.8 C 13.58 g/m*3 16.8 C 0 km/h
192 04-06-2014 17:35:00 16.8 C 13.58 g/m*3 16.8 C 4.8 km/h
193 04-06-2014 17:40:00 16.8 C 13.58 g/m*3 16.8 C 0 km/h
194 04-06-2014 17:45:00 16.5 C 13.06 g/m*3 16.5 C 3.2 km/h
195 04-06-2014 17:50:00 16.3 C 12.9 g/m*3 16.3 C 1.6 km/h
196 04-06-2014 17:55:00 16.2 C 12.82 g/m*3 16.2 C 0 km/h
197 04-06-2014 18:00:00 16.1 C 12.75 g/m*3 16.1 C 0 km/h
198 04-06-2014 18:05:00 16.1 C 12.88 g/m*3 16.1 C 0 km/h
199 04-06-2014 18:10:00 16.2 C 12.96 g/m*3 16.2 C 0 km/h
200 04-06-2014 18:15:00 16.2 C 13.1 g/m*3 16.2 C 0 km/h
Sensor: Nr:Datum:Temp:Abs-Feuchte:Windchill:Wind:
Aussen-T/F 201 04-06-2014 18:20:00 16.3 C 13.18 g/m*3 16.3 C 0 km/h
202 04-06-2014 18:25:00 16.5 C 13.34 g/m*3 16.5 C 0 km/h
203 04-06-2014 18:30:00 16.6 C 13.28 g/m*3 16.6 C 0 km/h
204 04-06-2014 18:35:00 16.9 C 13.38 g/m*3 16.9 C 6.4 km/h
205 04-06-2014 18:40:00 17.2 C 13.47 g/m*3 17.2 C 0 km/h
206 04-06-2014 18:45:00 17.4 C 13.34 g/m*3 17.4 C 1.6 km/h
207 04-06-2014 18:50:00 17.8 C 13.36 g/m*3 17.8 C 1.6 km/h
208 04-06-2014 18:55:00 17.9 C 13.59 g/m*3 17.9 C 0 km/h
209 04-06-2014 19:00:00 17.9 C 13.44 g/m*3 17.9 C 0 km/h
210 04-06-2014 19:05:00 18.1 C 13.44 g/m*3 18.1 C 1.6 km/h
211 04-06-2014 19:10:00 18.1 C 13.75 g/m*3 18.1 C 3.2 km/h
212 04-06-2014 19:15:00 18.1 C 13.13 g/m*3 18.1 C 1.6 km/h
213 04-06-2014 19:20:00 18 C 13.52 g/m*3 18 C 0 km/h
214 04-06-2014 19:25:00 17.8 C 13.51 g/m*3 17.8 C 0 km/h
215 04-06-2014 19:30:00 17.6 C 13.5 g/m*3 17.6 C 0 km/h
216 04-06-2014 19:35:00 17.6 C 13.5 g/m*3 17.6 C 1.6 km/h
217 04-06-2014 21:45:00 14.6 C 11.89 g/m*3 14.6 C 0 km/h
218 04-06-2014 21:50:00 14.5 C 11.69 g/m*3 14.5 C 0 km/h
219 04-06-2014 21:55:00 14.5 C 11.69 g/m*3 14.5 C 1.6 km/h
220 05-06-2014 00:35:00 13.4 C 10.69 g/m*3 13.4 C 11.3 km/h
221 05-06-2014 00:40:00 13.4 C 10.69 g/m*3 13.4 C 6.4 km/h
222 05-06-2014 00:45:00 13.2 C 10.22 g/m*3 13.2 C 19.3 km/h
223 05-06-2014 00:50:00 13.2 C 10.1 g/m*3 13.2 C 16.1 km/h
224 05-06-2014 00:55:00 13 C 9.98 g/m*3 13 C 8.1 km/h
225 05-06-2014 01:00:00 12.9 C 10.03 g/m*3 12.9 C 4.8 km/h
Sensor: Nr:Datum:Temp:Abs-Feuchte:Windchill:Wind:
Aussen-T/F 226 05-06-2014 01:05:00 12.8 C 9.86 g/m*3 12.8 C 9.7 km/h
227 05-06-2014 01:10:00 12.7 C 9.8 g/m*3 12.7 C 14.5 km/h
228 05-06-2014 01:15:00 12.7 C 10.02 g/m*3 12.7 C 3.2 km/h
229 05-06-2014 01:20:00 12.7 C 10.02 g/m*3 12.7 C 1.6 km/h
230 05-06-2014 01:25:00 12.5 C 9.89 g/m*3 12.5 C 1.6 km/h
231 05-06-2014 01:30:00 12.4 C 9.72 g/m*3 12.4 C 4.8 km/h
232 05-06-2014 01:35:00 12.4 C 9.62 g/m*3 12.4 C 3.2 km/h
233 05-06-2014 01:40:00 12.4 C 9.62 g/m*3 12.4 C 8.1 km/h
234 05-06-2014 01:45:00 12.4 C 9.62 g/m*3 12.4 C 3.2 km/h
235 05-06-2014 01:50:00 12.3 C 9.66 g/m*3 12.3 C 1.6 km/h
236 05-06-2014 01:55:00 12.3 C 9.66 g/m*3 12.3 C 1.6 km/h
237 05-06-2014 02:00:00 12.2 C 9.71 g/m*3 12.2 C 1.6 km/h
238 05-06-2014 02:05:00 12.1 C 9.65 g/m*3 12.1 C 1.6 km/h
239 05-06-2014 02:10:00 12.1 C 9.54 g/m*3 12.1 C 1.6 km/h
240 05-06-2014 02:15:00 12.1 C 9.54 g/m*3 12.1 C 9.7 km/h
241 05-06-2014 02:20:00 12.1 C 9.54 g/m*3 12.1 C 3.2 km/h
242 05-06-2014 02:25:00 12.1 C 9.33 g/m*3 12.1 C 1.6 km/h
243 05-06-2014 02:30:00 12.1 C 9.44 g/m*3 12.1 C 1.6 km/h
244 05-06-2014 02:35:00 12.1 C 9.44 g/m*3 12.1 C 1.6 km/h
245 05-06-2014 02:40:00 12 C 9.38 g/m*3 12 C 1.6 km/h
246 05-06-2014 02:45:00 11.9 C 9.43 g/m*3 11.9 C 0 km/h
247 05-06-2014 02:50:00 11.8 C 9.16 g/m*3 11.8 C 9.7 km/h
248 05-06-2014 02:55:00 11.8 C 8.95 g/m*3 11.8 C 16.1 km/h
249 05-06-2014 03:00:00 11.9 C 8.79 g/m*3 11.9 C 14.5 km/h
250 05-06-2014 03:05:00 11.8 C 8.42 g/m*3 11.8 C 11.3 km/h
Sensor: Nr:Datum:Temp:Abs-Feuchte:Windchill:Wind:
Aussen-T/F 251 05-06-2014 03:10:00 11.6 C 8 g/m*3 11.6 C 20.9 km/h
252 05-06-2014 03:15:00 11.4 C 7.8 g/m*3 11.4 C 20.9 km/h
253 05-06-2014 03:20:00 11.3 C 7.65 g/m*3 11.3 C 16.1 km/h
254 05-06-2014 03:25:00 11.2 C 7.7 g/m*3 11.2 C 16.1 km/h
255 05-06-2014 03:30:00 11.1 C 7.76 g/m*3 11.1 C 8.1 km/h
256 05-06-2014 03:35:00 11.1 C 7.76 g/m*3 11.1 C 9.7 km/h
257 05-06-2014 03:40:00 11.1 C 7.76 g/m*3 11.1 C 1.6 km/h
258 05-06-2014 03:45:00 10 C 8.08 g/m*3 10 C 1.6 km/h
259 05-06-2014 03:50:00 9.7 C 8.11 g/m*3 9.7 C 3.2 km/h
260 05-06-2014 03:55:00 9.4 C 8.05 g/m*3 9.4 C 1.6 km/h
261 05-06-2014 04:00:00 9.1 C 7.99 g/m*3 9.1 C 1.6 km/h
262 05-06-2014 04:05:00 8.9 C 7.97 g/m*3 8.9 C 1.6 km/h
263 05-06-2014 04:10:00 8.8 C 7.92 g/m*3 8.8 C 1.6 km/h
264 05-06-2014 04:15:00 8.8 C 8.01 g/m*3 8.8 C 1.6 km/h
265 05-06-2014 04:20:00 8.8 C 8.01 g/m*3 8.8 C 1.6 km/h
266 05-06-2014 04:25:00 8.7 C 7.96 g/m*3 8.7 C 0 km/h
267 05-06-2014 04:30:00 8.7 C 7.96 g/m*3 8.7 C 1.6 km/h
268 05-06-2014 04:35:00 8.7 C 7.96 g/m*3 8.7 C 0 km/h
269 05-06-2014 04:40:00 8.7 C 7.96 g/m*3 8.7 C 1.6 km/h
270 05-06-2014 04:45:00 8.8 C 8.01 g/m*3 8.8 C 3.2 km/h
271 05-06-2014 04:50:00 8.9 C 7.97 g/m*3 8.9 C 3.2 km/h
272 05-06-2014 04:55:00 9.1 C 7.99 g/m*3 9.1 C 3.2 km/h
273 05-06-2014 05:00:00 9.2 C 8.04 g/m*3 9.2 C 3.2 km/h
274 05-06-2014 05:05:00 9.1 C 7.99 g/m*3 9.1 C 1.6 km/h
275 05-06-2014 05:10:00 9 C 7.93 g/m*3 9 C 0 km/h
Sensor: Nr:Datum:Temp:Abs-Feuchte:Windchill:Wind:
Aussen-T/F 276 05-06-2014 05:15:00 8.9 C 7.97 g/m*3 8.9 C 0 km/h
277 05-06-2014 05:20:00 8.8 C 7.92 g/m*3 8.8 C 0 km/h
278 05-06-2014 05:25:00 8.7 C 7.87 g/m*3 8.7 C 0 km/h
279 05-06-2014 05:30:00 8.6 C 7.82 g/m*3 8.6 C 0 km/h
280 05-06-2014 05:35:00 8.6 C 7.91 g/m*3 8.6 C 1.6 km/h
281 05-06-2014 05:40:00 8.5 C 7.94 g/m*3 8.5 C 0 km/h
282 05-06-2014 05:45:00 8.5 C 7.94 g/m*3 8.5 C 0 km/h
283 05-06-2014 05:50:00 8.5 C 7.94 g/m*3 8.5 C 0 km/h
284 05-06-2014 05:55:00 8.5 C 8.03 g/m*3 8.5 C 0 km/h
285 05-06-2014 06:00:00 8.5 C 8.03 g/m*3 8.5 C 0 km/h
286 05-06-2014 06:05:00 8.5 C 8.03 g/m*3 8.5 C 0 km/h
287 05-06-2014 06:10:00 8.5 C 8.11 g/m*3 8.5 C 0 km/h
288 05-06-2014 06:15:00 8.5 C 8.11 g/m*3 8.5 C 0 km/h
289 05-06-2014 06:20:00 8.6 C 8.16 g/m*3 8.6 C 0 km/h
290 05-06-2014 06:25:00 8.7 C 8.22 g/m*3 8.7 C 0 km/h
291 05-06-2014 06:30:00 8.7 C 8.22 g/m*3 8.7 C 0 km/h
292 05-06-2014 06:35:00 8.7 C 8.22 g/m*3 8.7 C 0 km/h
293 05-06-2014 06:40:00 8.7 C 8.22 g/m*3 8.7 C 0 km/h
294 05-06-2014 06:45:00 8.8 C 8.27 g/m*3 8.8 C 0 km/h
295 05-06-2014 06:50:00 8.8 C 8.27 g/m*3 8.8 C 0 km/h
296 05-06-2014 06:55:00 8.9 C 8.32 g/m*3 8.9 C 0 km/h
297 05-06-2014 07:00:00 8.9 C 8.32 g/m*3 8.9 C 1.6 km/h
298 05-06-2014 07:05:00 9 C 8.38 g/m*3 9 C 0 km/h
299 05-06-2014 07:10:00 9.1 C 8.43 g/m*3 9.1 C 0 km/h
300 05-06-2014 07:15:00 9.1 C 8.43 g/m*3 9.1 C 0 km/h
Sensor: Nr:Datum:Temp:Abs-Feuchte:Windchill:Wind:
Aussen-T/F 301 05-06-2014 07:20:00 9.2 C 8.48 g/m*3 9.2 C 3.2 km/h
302 05-06-2014 07:25:00 9.3 C 8.54 g/m*3 8.56 C 6.4 km/h
303 05-06-2014 07:30:00 9.4 C 8.5 g/m*3 7.97 C 9.7 km/h
304 05-06-2014 07:35:00 9.7 C 8.57 g/m*3 8.33 C 9.7 km/h
305 05-06-2014 07:40:00 9.9 C 8.59 g/m*3 9.25 C 6.4 km/h
306 05-06-2014 07:45:00 10.3 C 8.71 g/m*3 9.34 C 8.1 km/h
307 05-06-2014 07:50:00 10.6 C 8.59 g/m*3 9.69 C 8.1 km/h
308 05-06-2014 07:55:00 10.9 C 8.65 g/m*3 9.28 C 12.9 km/h
309 05-06-2014 08:00:00 11.2 C 8.62 g/m*3 11.2 C 14.5 km/h
310 05-06-2014 08:05:00 11.4 C 8.72 g/m*3 11.4 C 12.9 km/h
311 05-06-2014 08:10:00 11.6 C 8.73 g/m*3 11.6 C 8.1 km/h
312 05-06-2014 08:15:00 11.7 C 8.79 g/m*3 11.7 C 4.8 km/h
313 05-06-2014 08:20:00 11.8 C 8.74 g/m*3 11.8 C 20.9 km/h
314 05-06-2014 08:25:00 11.8 C 8.74 g/m*3 11.8 C 8.1 km/h
315 05-06-2014 08:30:00 12 C 8.85 g/m*3 12 C 4.8 km/h
316 05-06-2014 08:35:00 12.2 C 8.85 g/m*3 12.2 C 8.1 km/h
317 05-06-2014 08:40:00 12.2 C 8.85 g/m*3 12.2 C 6.4 km/h
318 05-06-2014 08:45:00 12.3 C 8.69 g/m*3 12.3 C 8.1 km/h
319 05-06-2014 08:50:00 12.6 C 8.85 g/m*3 12.6 C 6.4 km/h
320 05-06-2014 08:55:00 12.8 C 9.07 g/m*3 12.8 C 6.4 km/h
321 05-06-2014 09:00:00 12.9 C 8.9 g/m*3 12.9 C 3.2 km/h
322 05-06-2014 09:05:00 13.1 C 8.9 g/m*3 13.1 C 8.1 km/h
323 05-06-2014 09:10:00 13.1 C 8.9 g/m*3 13.1 C 9.7 km/h
324 05-06-2014 09:15:00 13.2 C 8.61 g/m*3 13.2 C 17.7 km/h
325 05-06-2014 09:20:00 13.1 C 8.56 g/m*3 13.1 C 9.7 km/h
Sensor: Nr:Datum:Temp:Abs-Feuchte:Windchill:Wind:
Aussen-T/F 326 05-06-2014 09:25:00 13.2 C 8.61 g/m*3 13.2 C 12.9 km/h
327 05-06-2014 09:30:00 13.3 C 8.43 g/m*3 13.3 C 11.3 km/h
328 05-06-2014 09:35:00 13.4 C 8.6 g/m*3 13.4 C 12.9 km/h
329 05-06-2014 09:40:00 13.6 C 8.24 g/m*3 13.6 C 22.5 km/h
330 05-06-2014 09:45:00 13.7 C 8.53 g/m*3 13.7 C 17.7 km/h
331 05-06-2014 09:50:00 13.9 C 8.15 g/m*3 13.9 C 16.1 km/h
332 05-06-2014 09:55:00 14.2 C 8.3 g/m*3 14.2 C 22.5 km/h
333 05-06-2014 10:00:00 14.3 C 8.23 g/m*3 14.3 C 27.4 km/h
334 05-06-2014 10:05:00 14.5 C 8.46 g/m*3 14.5 C 14.5 km/h
335 05-06-2014 10:10:00 14.7 C 8.44 g/m*3 14.7 C 19.3 km/h
336 05-06-2014 10:15:00 14.8 C 8.36 g/m*3 14.8 C 16.1 km/h
337 05-06-2014 10:20:00 15 C 8.21 g/m*3 15 C 20.9 km/h
338 05-06-2014 10:25:00 15.1 C 8.26 g/m*3 15.1 C 16.1 km/h
339 05-06-2014 10:30:00 14.8 C 8.23 g/m*3 14.8 C 14.5 km/h
340 05-06-2014 10:35:00 14.6 C 8.13 g/m*3 14.6 C 12.9 km/h
341 05-06-2014 10:40:00 14.7 C 8.31 g/m*3 14.7 C 8.1 km/h
342 05-06-2014 10:45:00 14.8 C 8.23 g/m*3 14.8 C 19.3 km/h
343 05-06-2014 10:50:00 14.8 C 8.23 g/m*3 14.8 C 20.9 km/h
344 05-06-2014 10:55:00 15 C 8.21 g/m*3 15 C 19.3 km/h
345 05-06-2014 11:00:00 15.2 C 8.44 g/m*3 15.2 C 16.1 km/h
346 05-06-2014 11:05:00 15.3 C 8.1 g/m*3 15.3 C 24.1 km/h
347 05-06-2014 11:10:00 15.3 C 8.1 g/m*3 15.3 C 17.7 km/h
348 05-06-2014 11:15:00 15.5 C 8.33 g/m*3 15.5 C 12.9 km/h
349 05-06-2014 11:20:00 15.7 C 8.03 g/m*3 15.7 C 20.9 km/h
350 05-06-2014 11:25:00 15.5 C 8.06 g/m*3 15.5 C 19.3 km/h
Sensor: Nr:Datum:Temp:Abs-Feuchte:Windchill:Wind:
Aussen-T/F 351 05-06-2014 11:30:00 15.6 C 8.38 g/m*3 15.6 C 14.5 km/h
352 05-06-2014 11:35:00 16.1 C 8.5 g/m*3 16.1 C 16.1 km/h
353 05-06-2014 11:40:00 16.4 C 8.1 g/m*3 16.4 C 20.9 km/h
354 05-06-2014 11:45:00 16.6 C 8.05 g/m*3 16.6 C 17.7 km/h
355 05-06-2014 11:50:00 16.6 C 8.05 g/m*3 16.6 C 19.3 km/h
356 05-06-2014 11:55:00 16.8 C 8.29 g/m*3 16.8 C 16.1 km/h
357 05-06-2014 12:00:00 16.8 C 7.72 g/m*3 16.8 C 16.1 km/h
358 05-06-2014 12:05:00 16.7 C 7.82 g/m*3 16.7 C 29 km/h
359 05-06-2014 12:10:00 16.4 C 7.82 g/m*3 16.4 C 19.3 km/h
360 05-06-2014 12:15:00 16.6 C 7.91 g/m*3 16.6 C 20.9 km/h
361 05-06-2014 12:20:00 16.7 C 7.96 g/m*3 16.7 C 14.5 km/h
362 05-06-2014 12:25:00 16.7 C 8.24 g/m*3 16.7 C 9.7 km/h
363 05-06-2014 12:30:00 16.7 C 8.1 g/m*3 16.7 C 17.7 km/h
364 05-06-2014 12:35:00 17.1 C 7.86 g/m*3 17.1 C 20.9 km/h
365 05-06-2014 12:40:00 17.1 C 8.15 g/m*3 17.1 C 16.1 km/h
366 05-06-2014 12:45:00 17 C 7.81 g/m*3 17 C 20.9 km/h
367 05-06-2014 12:50:00 17.1 C 7.86 g/m*3 17.1 C 17.7 km/h
368 05-06-2014 12:55:00 17.3 C 7.96 g/m*3 17.3 C 24.1 km/h
369 05-06-2014 13:00:00 17.3 C 7.96 g/m*3 17.3 C 16.1 km/h
370 05-06-2014 13:05:00 17.4 C 7.85 g/m*3 17.4 C 16.1 km/h
371 05-06-2014 13:10:00 17.6 C 7.95 g/m*3 17.6 C 16.1 km/h
372 05-06-2014 13:15:00 17.8 C 7.74 g/m*3 17.8 C 16.1 km/h
373 05-06-2014 13:20:00 17.9 C 7.79 g/m*3 17.9 C 20.9 km/h
374 05-06-2014 13:25:00 17.9 C 7.79 g/m*3 17.9 C 19.3 km/h
375 05-06-2014 13:30:00 17.6 C 7.65 g/m*3 17.6 C 12.9 km/h
Sensor: Nr:Datum:Temp:Abs-Feuchte:Windchill:Wind:
Aussen-T/F 376 05-06-2014 13:35:00 17.6 C 7.35 g/m*3 17.6 C 11.3 km/h
377 05-06-2014 13:40:00 17.5 C 7.6 g/m*3 17.5 C 14.5 km/h
378 05-06-2014 13:45:00 17.6 C 7.95 g/m*3 17.6 C 14.5 km/h
379 05-06-2014 13:50:00 18 C 7.83 g/m*3 18 C 11.3 km/h
380 05-06-2014 13:55:00 18.1 C 7.73 g/m*3 18.1 C 14.5 km/h
381 05-06-2014 14:00:00 18.1 C 7.57 g/m*3 18.1 C 17.7 km/h
382 05-06-2014 14:05:00 17.9 C 7.48 g/m*3 17.9 C 16.1 km/h
383 05-06-2014 14:10:00 17.9 C 7.48 g/m*3 17.9 C 12.9 km/h
384 05-06-2014 14:15:00 17.8 C 7.74 g/m*3 17.8 C 16.1 km/h
385 05-06-2014 14:20:00 18.2 C 7.93 g/m*3 18.2 C 14.5 km/h
386 05-06-2014 14:25:00 18.4 C 7.71 g/m*3 18.4 C 12.9 km/h
387 05-06-2014 14:30:00 18.3 C 7.35 g/m*3 18.3 C 14.5 km/h
388 05-06-2014 14:35:00 18.1 C 7.57 g/m*3 18.1 C 16.1 km/h
389 05-06-2014 14:40:00 17.9 C 7.33 g/m*3 17.9 C 17.7 km/h
390 05-06-2014 14:45:00 17.7 C 7.39 g/m*3 17.7 C 14.5 km/h
391 05-06-2014 14:50:00 17.7 C 7.85 g/m*3 17.7 C 8.1 km/h
392 05-06-2014 14:55:00 17.8 C 7.89 g/m*3 17.8 C 6.4 km/h
393 05-06-2014 15:00:00 17.9 C 7.79 g/m*3 17.9 C 12.9 km/h
394 05-06-2014 15:05:00 18.4 C 7.71 g/m*3 18.4 C 11.3 km/h
395 05-06-2014 15:10:00 18.9 C 7.94 g/m*3 18.9 C 12.9 km/h
396 05-06-2014 15:15:00 19 C 7.33 g/m*3 19 C 19.3 km/h
397 05-06-2014 15:20:00 18.7 C 7.36 g/m*3 18.7 C 12.9 km/h
398 05-06-2014 15:25:00 18.4 C 7.24 g/m*3 18.4 C 9.7 km/h
399 05-06-2014 15:30:00 18.3 C 7.51 g/m*3 18.3 C 14.5 km/h
400 05-06-2014 15:35:00 18.1 C 7.73 g/m*3 18.1 C 14.5 km/h
Sensor: Nr:Datum:Temp:Abs-Feuchte:Windchill:Wind:
Aussen-T/F 401 05-06-2014 15:40:00 18.3 C 7.66 g/m*3 18.3 C 19.3 km/h
402 05-06-2014 15:45:00 18.9 C 7.61 g/m*3 18.9 C 14.5 km/h
403 05-06-2014 15:50:00 18.9 C 7.61 g/m*3 18.9 C 12.9 km/h
404 05-06-2014 15:55:00 18.7 C 7.52 g/m*3 18.7 C 22.5 km/h
405 05-06-2014 16:00:00 18.6 C 7.48 g/m*3 18.6 C 20.9 km/h
406 05-06-2014 16:05:00 19.2 C 7.42 g/m*3 19.2 C 16.1 km/h
407 05-06-2014 16:10:00 19.7 C 7.47 g/m*3 19.7 C 24.1 km/h
408 05-06-2014 16:15:00 20.1 C 7.65 g/m*3 20.1 C 16.1 km/h
409 05-06-2014 16:20:00 20.1 C 7.3 g/m*3 20.1 C 12.9 km/h
410 05-06-2014 16:25:00 19.7 C 7.81 g/m*3 19.7 C 12.9 km/h
411 05-06-2014 16:30:00 19.6 C 7.43 g/m*3 19.6 C 12.9 km/h
412 05-06-2014 16:35:00 19.8 C 7.52 g/m*3 19.8 C 14.5 km/h
413 05-06-2014 16:40:00 19.8 C 7.34 g/m*3 19.8 C 17.7 km/h
414 05-06-2014 16:45:00 19.6 C 6.92 g/m*3 19.6 C 16.1 km/h
415 05-06-2014 16:50:00 19.8 C 7.52 g/m*3 19.8 C 12.9 km/h
416 05-06-2014 16:55:00 20.1 C 6.95 g/m*3 20.1 C 11.3 km/h
417 05-06-2014 17:00:00 19.6 C 7.09 g/m*3 19.6 C 11.3 km/h
418 05-06-2014 17:05:00 19.2 C 7.09 g/m*3 19.2 C 11.3 km/h
419 05-06-2014 17:10:00 18.8 C 7.25 g/m*3 18.8 C 4.8 km/h
420 05-06-2014 17:15:00 18.6 C 7.48 g/m*3 18.6 C 6.4 km/h
421 05-06-2014 17:20:00 18.6 C 7.48 g/m*3 18.6 C 8.1 km/h
422 05-06-2014 17:25:00 18.7 C 7.52 g/m*3 18.7 C 11.3 km/h
423 05-06-2014 17:30:00 18.7 C 7.84 g/m*3 18.7 C 9.7 km/h
424 05-06-2014 17:35:00 18.7 C 7.36 g/m*3 18.7 C 9.7 km/h
425 05-06-2014 17:40:00 18.6 C 7.64 g/m*3 18.6 C 9.7 km/h
Sensor: Nr:Datum:Temp:Abs-Feuchte:Windchill:Wind:
Aussen-T/F 426 05-06-2014 17:45:00 19.2 C 7.42 g/m*3 19.2 C 12.9 km/h
427 05-06-2014 17:50:00 20.1 C 7.3 g/m*3 20.1 C 14.5 km/h
428 05-06-2014 17:55:00 20.5 C 6.94 g/m*3 20.5 C 17.7 km/h
429 05-06-2014 18:00:00 20.8 C 7.42 g/m*3 20.8 C 16.1 km/h
430 05-06-2014 18:05:00 20.8 C 7.24 g/m*3 20.8 C 14.5 km/h
431 05-06-2014 18:10:00 21 C 7.14 g/m*3 21 C 19.3 km/h
432 05-06-2014 18:15:00 20.8 C 7.42 g/m*3 20.8 C 17.7 km/h
433 05-06-2014 18:20:00 20.7 C 7.02 g/m*3 20.7 C 19.3 km/h
434 05-06-2014 18:25:00 20.7 C 7.38 g/m*3 20.7 C 11.3 km/h
435 05-06-2014 18:30:00 20.7 C 7.38 g/m*3 20.7 C 16.1 km/h
436 05-06-2014 18:35:00 20.6 C 7.34 g/m*3 20.6 C 24.1 km/h
437 05-06-2014 18:40:00 20.7 C 7.02 g/m*3 20.7 C 17.7 km/h
438 05-06-2014 18:45:00 20.7 C 7.02 g/m*3 20.7 C 14.5 km/h
439 05-06-2014 18:50:00 20.7 C 6.84 g/m*3 20.7 C 11.3 km/h
440 05-06-2014 18:55:00 20.5 C 7.12 g/m*3 20.5 C 9.7 km/h
441 05-06-2014 19:00:00 20.6 C 7.16 g/m*3 20.6 C 11.3 km/h
442 05-06-2014 19:05:00 20.6 C 6.8 g/m*3 20.6 C 14.5 km/h
443 05-06-2014 19:10:00 20.3 C 7.03 g/m*3 20.3 C 17.7 km/h
444 05-06-2014 19:15:00 20.1 C 7.13 g/m*3 20.1 C 9.7 km/h
445 05-06-2014 19:20:00 19.9 C 6.87 g/m*3 19.9 C 16.1 km/h
446 05-06-2014 19:25:00 19.8 C 6.66 g/m*3 19.8 C 14.5 km/h
447 05-06-2014 19:30:00 19.7 C 6.62 g/m*3 19.7 C 9.7 km/h
448 05-06-2014 19:35:00 19.6 C 6.92 g/m*3 19.6 C 12.9 km/h
449 05-06-2014 19:40:00 19.6 C 7.09 g/m*3 19.6 C 14.5 km/h
450 05-06-2014 19:45:00 19.4 C 6.51 g/m*3 19.4 C 14.5 km/h
Sensor: Nr:Datum:Temp:Abs-Feuchte:Windchill:Wind:
Aussen-T/F 451 05-06-2014 19:50:00 19.3 C 6.63 g/m*3 19.3 C 20.9 km/h
452 05-06-2014 19:55:00 19.2 C 6.6 g/m*3 19.2 C 9.7 km/h
453 05-06-2014 20:00:00 19.2 C 6.76 g/m*3 19.2 C 14.5 km/h
454 05-06-2014 20:05:00 19.1 C 6.56 g/m*3 19.1 C 8.1 km/h
455 05-06-2014 20:10:00 19 C 6.68 g/m*3 19 C 11.3 km/h
456 05-06-2014 20:15:00 19 C 6.68 g/m*3 19 C 11.3 km/h
457 05-06-2014 20:20:00 18.9 C 6.97 g/m*3 18.9 C 4.8 km/h
458 05-06-2014 20:25:00 18.8 C 7.57 g/m*3 18.8 C 4.8 km/h
459 05-06-2014 20:30:00 18.7 C 7.68 g/m*3 18.7 C 6.4 km/h
460 05-06-2014 20:35:00 18.5 C 7.44 g/m*3 18.5 C 8.1 km/h
461 05-06-2014 20:40:00 18.3 C 8.6 g/m*3 18.3 C 1.6 km/h
462 05-06-2014 20:45:00 17.8 C 8.8 g/m*3 17.8 C 1.6 km/h
463 05-06-2014 20:50:00 17.4 C 8.45 g/m*3 17.4 C 1.6 km/h
464 05-06-2014 20:55:00 17.1 C 8.73 g/m*3 17.1 C 1.6 km/h
465 05-06-2014 21:00:00 16.8 C 8.72 g/m*3 16.8 C 1.6 km/h
466 05-06-2014 21:05:00 16.4 C 9.07 g/m*3 16.4 C 0 km/h
467 05-06-2014 21:10:00 15.9 C 8.94 g/m*3 15.9 C 1.6 km/h
468 05-06-2014 21:15:00 15.6 C 8.64 g/m*3 15.6 C 1.6 km/h
469 05-06-2014 21:20:00 15.4 C 8.15 g/m*3 15.4 C 1.6 km/h
470 05-06-2014 21:25:00 15.1 C 8.64 g/m*3 15.1 C 1.6 km/h
471 05-06-2014 21:30:00 14.8 C 8.49 g/m*3 14.8 C 1.6 km/h
472 05-06-2014 21:35:00 14.6 C 8.51 g/m*3 14.6 C 1.6 km/h
473 05-06-2014 21:40:00 14.3 C 8.48 g/m*3 14.3 C 1.6 km/h
474 05-06-2014 21:45:00 14.2 C 8.43 g/m*3 14.2 C 1.6 km/h
475 05-06-2014 21:50:00 14.1 C 8.37 g/m*3 14.1 C 1.6 km/h
Sensor: Nr:Datum:Temp:Abs-Feuchte:Windchill:Wind:
Aussen-T/F 476 05-06-2014 21:55:00 13.9 C 8.39 g/m*3 13.9 C 1.6 km/h
477 05-06-2014 22:00:00 13.7 C 8.41 g/m*3 13.7 C 0 km/h
478 05-06-2014 22:05:00 13.6 C 8.36 g/m*3 13.6 C 0 km/h
479 05-06-2014 22:10:00 13.4 C 8.37 g/m*3 13.4 C 0 km/h
480 05-06-2014 22:15:00 13.2 C 8.38 g/m*3 13.2 C 0 km/h
481 05-06-2014 22:20:00 12.9 C 8.23 g/m*3 12.9 C 0 km/h
482 05-06-2014 22:25:00 12.8 C 8.29 g/m*3 12.8 C 0 km/h
483 05-06-2014 22:30:00 12.7 C 8.24 g/m*3 12.7 C 0 km/h
484 05-06-2014 22:35:00 12.6 C 8.3 g/m*3 12.6 C 0 km/h
485 05-06-2014 22:40:00 12.4 C 8.3 g/m*3 12.4 C 0 km/h
486 05-06-2014 22:45:00 12.3 C 8.25 g/m*3 12.3 C 0 km/h
487 05-06-2014 22:50:00 12.1 C 8.26 g/m*3 12.1 C 0 km/h
488 05-06-2014 22:55:00 11.9 C 8.05 g/m*3 11.9 C 0 km/h
489 05-06-2014 23:00:00 11.8 C 8 g/m*3 11.8 C 0 km/h
490 05-06-2014 23:05:00 11.7 C 7.95 g/m*3 11.7 C 0 km/h
491 05-06-2014 23:10:00 11.6 C 8 g/m*3 11.6 C 0 km/h
492 05-06-2014 23:15:00 11.5 C 7.85 g/m*3 11.5 C 0 km/h
493 05-06-2014 23:20:00 11.3 C 7.75 g/m*3 11.3 C 0 km/h
494 05-06-2014 23:25:00 11.2 C 7.91 g/m*3 11.2 C 0 km/h
495 05-06-2014 23:30:00 11.1 C 7.96 g/m*3 11.1 C 0 km/h
496 05-06-2014 23:35:00 10.9 C 7.76 g/m*3 10.9 C 0 km/h
497 05-06-2014 23:40:00 10.8 C 7.71 g/m*3 10.8 C 0 km/h
498 05-06-2014 23:45:00 10.8 C 7.81 g/m*3 10.8 C 3.2 km/h
499 05-06-2014 23:50:00 10.8 C 7.81 g/m*3 10.8 C 3.2 km/h
500 05-06-2014 23:55:00 10.8 C 7.81 g/m*3 10.8 C 0 km/h
Sensor: Nr:Datum:Temp:Abs-Feuchte:Windchill:Wind:
Aussen-T/F 501 06-06-2014 00:00:00 10.6 C 7.81 g/m*3 10.6 C 1.6 km/h
502 06-06-2014 00:05:00 10.5 C 7.86 g/m*3 10.5 C 0 km/h
503 06-06-2014 00:10:00 10.3 C 7.76 g/m*3 10.3 C 0 km/h
504 06-06-2014 00:15:00 10.2 C 7.71 g/m*3 10.2 C 0 km/h
505 06-06-2014 00:20:00 10.1 C 7.75 g/m*3 10.1 C 0 km/h
506 06-06-2014 00:25:00 10 C 7.71 g/m*3 10 C 0 km/h
507 06-06-2014 00:30:00 9.9 C 7.66 g/m*3 9.9 C 0 km/h
508 06-06-2014 00:35:00 9.9 C 7.66 g/m*3 9.9 C 0 km/h
509 06-06-2014 00:40:00 9.8 C 7.7 g/m*3 9.8 C 0 km/h
510 06-06-2014 00:45:00 9.7 C 7.65 g/m*3 9.7 C 0 km/h
511 06-06-2014 00:50:00 9.7 C 7.74 g/m*3 9.7 C 0 km/h
512 06-06-2014 00:55:00 9.6 C 7.69 g/m*3 9.6 C 0 km/h
513 06-06-2014 01:00:00 9.5 C 7.65 g/m*3 9.5 C 0 km/h
514 06-06-2014 01:05:00 9.4 C 7.6 g/m*3 9.4 C 0 km/h
515 06-06-2014 01:10:00 9.3 C 7.64 g/m*3 9.3 C 0 km/h
516 06-06-2014 01:15:00 9.3 C 7.64 g/m*3 9.3 C 0 km/h
517 06-06-2014 01:20:00 9.2 C 7.68 g/m*3 9.2 C 0 km/h
518 06-06-2014 01:25:00 9.1 C 7.63 g/m*3 9.1 C 0 km/h
519 06-06-2014 01:30:00 9.1 C 7.63 g/m*3 9.1 C 0 km/h
520 06-06-2014 01:35:00 9.1 C 7.63 g/m*3 9.1 C 0 km/h
521 06-06-2014 01:40:00 9.1 C 7.54 g/m*3 9.1 C 0 km/h
522 06-06-2014 01:45:00 8.9 C 7.53 g/m*3 8.9 C 0 km/h
523 06-06-2014 01:50:00 8.9 C 7.53 g/m*3 8.9 C 0 km/h
524 06-06-2014 01:55:00 8.8 C 7.57 g/m*3 8.8 C 0 km/h
525 06-06-2014 02:00:00 8.7 C 7.52 g/m*3 8.7 C 0 km/h
Sensor: Nr:Datum:Temp:Abs-Feuchte:Windchill:Wind:
Aussen-T/F 526 06-06-2014 02:05:00 8.7 C 7.44 g/m*3 8.7 C 0 km/h
527 06-06-2014 02:10:00 8.7 C 7.52 g/m*3 8.7 C 0 km/h
528 06-06-2014 02:15:00 8.7 C 7.44 g/m*3 8.7 C 0 km/h
529 06-06-2014 02:20:00 8.7 C 7.52 g/m*3 8.7 C 0 km/h
530 06-06-2014 02:25:00 8.6 C 7.39 g/m*3 8.6 C 0 km/h
531 06-06-2014 02:30:00 8.4 C 7.38 g/m*3 8.4 C 0 km/h
532 06-06-2014 02:35:00 8.4 C 7.38 g/m*3 8.4 C 0 km/h
533 06-06-2014 02:40:00 8.4 C 7.38 g/m*3 8.4 C 0 km/h
534 06-06-2014 02:45:00 8.3 C 7.33 g/m*3 8.3 C 0 km/h
535 06-06-2014 02:50:00 8.3 C 7.42 g/m*3 8.3 C 0 km/h
536 06-06-2014 02:55:00 8.3 C 7.42 g/m*3 8.3 C 0 km/h
537 06-06-2014 03:00:00 8.3 C 7.42 g/m*3 8.3 C 0 km/h
538 06-06-2014 03:05:00 8.2 C 7.37 g/m*3 8.2 C 0 km/h
539 06-06-2014 03:10:00 8.2 C 7.37 g/m*3 8.2 C 0 km/h
540 06-06-2014 03:15:00 8.1 C 7.32 g/m*3 8.1 C 0 km/h
541 06-06-2014 03:20:00 8.1 C 7.41 g/m*3 8.1 C 0 km/h
542 06-06-2014 03:25:00 7.9 C 7.31 g/m*3 7.9 C 0 km/h
543 06-06-2014 03:30:00 7.9 C 7.31 g/m*3 7.9 C 0 km/h
544 06-06-2014 03:35:00 7.8 C 7.26 g/m*3 7.8 C 0 km/h
545 06-06-2014 03:40:00 7.8 C 7.35 g/m*3 7.8 C 0 km/h
546 06-06-2014 03:45:00 7.7 C 7.3 g/m*3 7.7 C 0 km/h
547 06-06-2014 03:50:00 7.7 C 7.3 g/m*3 7.7 C 0 km/h
548 06-06-2014 03:55:00 7.7 C 7.3 g/m*3 7.7 C 0 km/h
549 06-06-2014 04:00:00 7.6 C 7.25 g/m*3 7.6 C 0 km/h
550 06-06-2014 04:05:00 7.5 C 7.2 g/m*3 7.5 C 0 km/h
Sensor: Nr:Datum:Temp:Abs-Feuchte:Windchill:Wind:
Aussen-T/F 551 06-06-2014 04:10:00 7.4 C 7.24 g/m*3 7.4 C 0 km/h
552 06-06-2014 04:15:00 7.4 C 7.24 g/m*3 7.4 C 1.6 km/h
553 06-06-2014 04:20:00 7.3 C 7.19 g/m*3 7.3 C 0 km/h
554 06-06-2014 04:25:00 7.3 C 7.19 g/m*3 7.3 C 0 km/h
555 06-06-2014 04:30:00 7.3 C 7.19 g/m*3 7.3 C 0 km/h
556 06-06-2014 04:35:00 7.2 C 7.22 g/m*3 7.2 C 0 km/h
557 06-06-2014 04:40:00 7.2 C 7.22 g/m*3 7.2 C 0 km/h
558 06-06-2014 04:45:00 7.2 C 7.22 g/m*3 7.2 C 0 km/h
559 06-06-2014 04:50:00 7.2 C 7.22 g/m*3 7.2 C 0 km/h
560 06-06-2014 04:55:00 7.1 C 7.18 g/m*3 7.1 C 0 km/h
561 06-06-2014 05:00:00 7.1 C 7.18 g/m*3 7.1 C 0 km/h
562 06-06-2014 05:05:00 7 C 7.13 g/m*3 7 C 0 km/h
563 06-06-2014 05:10:00 7.1 C 7.25 g/m*3 7.1 C 0 km/h
564 06-06-2014 05:15:00 7 C 7.21 g/m*3 7 C 0 km/h
565 06-06-2014 05:20:00 7 C 7.21 g/m*3 7 C 0 km/h
566 06-06-2014 05:25:00 6.9 C 7.16 g/m*3 6.9 C 0 km/h
567 06-06-2014 05:30:00 6.8 C 7.11 g/m*3 6.8 C 0 km/h
568 06-06-2014 05:35:00 6.8 C 7.11 g/m*3 6.8 C 0 km/h
569 06-06-2014 05:40:00 6.8 C 7.11 g/m*3 6.8 C 0 km/h
570 06-06-2014 05:45:00 6.8 C 7.11 g/m*3 6.8 C 0 km/h
571 06-06-2014 05:50:00 6.8 C 7.11 g/m*3 6.8 C 0 km/h
572 06-06-2014 05:55:00 6.8 C 7.11 g/m*3 6.8 C 0 km/h
573 06-06-2014 06:00:00 6.8 C 7.19 g/m*3 6.8 C 0 km/h
574 06-06-2014 06:05:00 6.8 C 7.19 g/m*3 6.8 C 0 km/h
575 06-06-2014 06:10:00 6.8 C 7.19 g/m*3 6.8 C 0 km/h
Sensor: Nr:Datum:Temp:Abs-Feuchte:Windchill:Wind:
Aussen-T/F 576 06-06-2014 06:15:00 6.8 C 7.19 g/m*3 6.8 C 0 km/h
577 06-06-2014 06:20:00 6.8 C 7.19 g/m*3 6.8 C 0 km/h
578 06-06-2014 06:25:00 6.8 C 7.19 g/m*3 6.8 C 0 km/h
579 06-06-2014 06:30:00 6.9 C 7.24 g/m*3 6.9 C 0 km/h
580 06-06-2014 06:35:00 6.9 C 7.24 g/m*3 6.9 C 0 km/h
581 06-06-2014 06:40:00 6.9 C 7.24 g/m*3 6.9 C 0 km/h
582 06-06-2014 06:45:00 7 C 7.28 g/m*3 7 C 0 km/h
583 06-06-2014 06:50:00 7.1 C 7.33 g/m*3 7.1 C 0 km/h
584 06-06-2014 06:55:00 7.1 C 7.33 g/m*3 7.1 C 0 km/h
585 06-06-2014 07:00:00 7.2 C 7.38 g/m*3 7.2 C 0 km/h
586 06-06-2014 07:05:00 7.2 C 7.38 g/m*3 7.2 C 0 km/h
587 06-06-2014 07:10:00 7.3 C 7.43 g/m*3 7.3 C 0 km/h
588 06-06-2014 07:15:00 7.4 C 7.48 g/m*3 7.4 C 0 km/h
589 06-06-2014 07:20:00 7.5 C 7.52 g/m*3 7.5 C 1.6 km/h
590 06-06-2014 07:25:00 7.6 C 7.57 g/m*3 7.6 C 0 km/h
591 06-06-2014 07:30:00 7.7 C 7.62 g/m*3 7.7 C 0 km/h
592 06-06-2014 07:35:00 7.8 C 7.67 g/m*3 7.8 C 0 km/h
593 06-06-2014 07:40:00 8 C 7.77 g/m*3 8 C 0 km/h
594 06-06-2014 07:45:00 8.2 C 7.87 g/m*3 8.2 C 0 km/h
595 06-06-2014 07:50:00 8.5 C 8.03 g/m*3 8.5 C 0 km/h
596 06-06-2014 07:55:00 8.8 C 8.09 g/m*3 8.8 C 0 km/h
597 06-06-2014 08:00:00 9.1 C 8.25 g/m*3 9.1 C 0 km/h
598 06-06-2014 08:05:00 9.5 C 8.37 g/m*3 9.5 C 0 km/h
599 06-06-2014 08:10:00 9.8 C 8.44 g/m*3 9.8 C 0 km/h
600 06-06-2014 08:15:00 10.2 C 8.37 g/m*3 10.2 C 0 km/h
Sensor: Nr:Datum:Temp:Abs-Feuchte:Windchill:Wind:
Aussen-T/F 601 06-06-2014 08:20:00 10.4 C 8.29 g/m*3 10.4 C 0 km/h
602 06-06-2014 08:25:00 10.7 C 8.35 g/m*3 10.7 C 0 km/h
603 06-06-2014 08:30:00 10.9 C 8.36 g/m*3 10.9 C 0 km/h
604 06-06-2014 08:35:00 11.2 C 8.51 g/m*3 11.2 C 0 km/h
605 06-06-2014 08:40:00 11.5 C 8.78 g/m*3 11.5 C 0 km/h
606 06-06-2014 08:45:00 11.9 C 8.9 g/m*3 11.9 C 1.6 km/h
607 06-06-2014 08:50:00 12.4 C 9.07 g/m*3 12.4 C 0 km/h
608 06-06-2014 08:55:00 13 C 9.19 g/m*3 13 C 0 km/h
609 06-06-2014 09:00:00 13.3 C 9.01 g/m*3 13.3 C 1.6 km/h
610 06-06-2014 09:05:00 13.3 C 8.9 g/m*3 13.3 C 0 km/h
611 06-06-2014 09:10:00 13.3 C 8.9 g/m*3 13.3 C 1.6 km/h
612 06-06-2014 09:15:00 13.3 C 9.13 g/m*3 13.3 C 0 km/h
613 06-06-2014 09:20:00 13.3 C 9.24 g/m*3 13.3 C 0 km/h
614 06-06-2014 09:25:00 13.4 C 9.18 g/m*3 13.4 C 1.6 km/h
615 06-06-2014 09:30:00 13.5 C 9.24 g/m*3 13.5 C 4.8 km/h
616 06-06-2014 09:35:00 13.6 C 9.18 g/m*3 13.6 C 4.8 km/h
617 06-06-2014 09:40:00 13.7 C 9.24 g/m*3 13.7 C 1.6 km/h
618 06-06-2014 09:45:00 13.8 C 9.29 g/m*3 13.8 C 1.6 km/h
619 06-06-2014 09:50:00 14.1 C 9.47 g/m*3 14.1 C 3.2 km/h
620 06-06-2014 09:55:00 14.3 C 9.58 g/m*3 14.3 C 3.2 km/h
621 06-06-2014 10:00:00 14.7 C 9.69 g/m*3 14.7 C 3.2 km/h
622 06-06-2014 10:05:00 15.1 C 9.8 g/m*3 15.1 C 1.6 km/h
623 06-06-2014 10:10:00 15.5 C 10.18 g/m*3 15.5 C 3.2 km/h
624 06-06-2014 10:15:00 15.8 C 9.83 g/m*3 15.8 C 0 km/h
625 06-06-2014 10:20:00 16.3 C 10.27 g/m*3 16.3 C 1.6 km/h
Sensor: Nr:Datum:Temp:Abs-Feuchte:Windchill:Wind:
Aussen-T/F 626 06-06-2014 10:25:00 16.8 C 10.15 g/m*3 16.8 C 1.6 km/h
627 06-06-2014 10:30:00 17.2 C 9.96 g/m*3 17.2 C 1.6 km/h
628 06-06-2014 10:35:00 17.4 C 10.23 g/m*3 17.4 C 3.2 km/h
629 06-06-2014 10:40:00 17.4 C 10.52 g/m*3 17.4 C 3.2 km/h
630 06-06-2014 10:45:00 17.5 C 9.99 g/m*3 17.5 C 3.2 km/h
631 06-06-2014 10:50:00 17.6 C 10.35 g/m*3 17.6 C 3.2 km/h
632 06-06-2014 10:55:00 17.7 C 10.56 g/m*3 17.7 C 0 km/h
633 06-06-2014 11:00:00 17.8 C 10.93 g/m*3 17.8 C 1.6 km/h
634 06-06-2014 11:05:00 17.9 C 11.15 g/m*3 17.9 C 0 km/h
635 06-06-2014 11:10:00 17.7 C 11.16 g/m*3 17.7 C 0 km/h
636 06-06-2014 11:15:00 17.8 C 11.38 g/m*3 17.8 C 3.2 km/h
637 06-06-2014 11:20:00 18.2 C 10.57 g/m*3 18.2 C 4.8 km/h
638 06-06-2014 11:25:00 19.1 C 10.33 g/m*3 19.1 C 6.4 km/h
639 06-06-2014 11:30:00 20.2 C 10.32 g/m*3 20.2 C 8.1 km/h
640 06-06-2014 11:35:00 20.8 C 10.5 g/m*3 20.8 C 9.7 km/h
641 06-06-2014 11:40:00 21.1 C 10.69 g/m*3 21.1 C 11.3 km/h
642 06-06-2014 11:45:00 21.4 C 10.69 g/m*3 21.4 C 11.3 km/h
643 06-06-2014 11:50:00 21.7 C 10.87 g/m*3 21.7 C 8.1 km/h
644 06-06-2014 11:55:00 21.9 C 10.42 g/m*3 21.9 C 11.3 km/h
645 06-06-2014 12:00:00 22.2 C 10.41 g/m*3 22.2 C 11.3 km/h
646 06-06-2014 12:05:00 22.3 C 9.87 g/m*3 22.3 C 11.3 km/h
647 06-06-2014 12:10:00 22.6 C 9.84 g/m*3 22.6 C 9.7 km/h
648 06-06-2014 12:15:00 22.8 C 9.96 g/m*3 22.8 C 4.8 km/h
649 06-06-2014 12:20:00 23.1 C 11.16 g/m*3 23.1 C 6.4 km/h
650 06-06-2014 12:25:00 23.3 C 9.83 g/m*3 23.3 C 6.4 km/h
Sensor: Nr:Datum:Temp:Abs-Feuchte:Windchill:Wind:
Aussen-T/F 651 06-06-2014 12:30:00 23.4 C 10.3 g/m*3 23.4 C 6.4 km/h
652 06-06-2014 12:35:00 23.6 C 9.57 g/m*3 23.6 C 11.3 km/h
653 06-06-2014 12:40:00 23.5 C 9.52 g/m*3 23.5 C 6.4 km/h
654 06-06-2014 12:45:00 23.6 C 8.93 g/m*3 23.6 C 4.8 km/h
655 06-06-2014 12:50:00 23.8 C 9.25 g/m*3 23.8 C 4.8 km/h
656 06-06-2014 12:55:00 23.9 C 8.65 g/m*3 23.9 C 4.8 km/h
657 06-06-2014 13:00:00 24.1 C 8.97 g/m*3 24.1 C 3.2 km/h
658 06-06-2014 13:05:00 24.3 C 9.52 g/m*3 24.3 C 6.4 km/h
659 06-06-2014 13:10:00 24.5 C 10.07 g/m*3 24.5 C 8.1 km/h
660 06-06-2014 13:15:00 24.6 C 8.78 g/m*3 24.6 C 6.4 km/h
661 06-06-2014 13:20:00 24.4 C 9.79 g/m*3 24.4 C 8.1 km/h
662 06-06-2014 13:25:00 24.7 C 9.05 g/m*3 24.7 C 6.4 km/h
663 06-06-2014 13:30:00 24.8 C 10.02 g/m*3 24.8 C 6.4 km/h
664 06-06-2014 13:35:00 25 C 9.21 g/m*3 25 C 9.7 km/h
665 06-06-2014 13:40:00 25 C 9.44 g/m*3 25 C 11.3 km/h
666 06-06-2014 13:45:00 24.8 C 9.79 g/m*3 24.8 C 6.4 km/h
667 06-06-2014 13:50:00 25 C 8.75 g/m*3 25 C 6.4 km/h
668 06-06-2014 13:55:00 25.3 C 10.07 g/m*3 25.3 C 6.4 km/h
669 06-06-2014 14:00:00 25.6 C 9.28 g/m*3 25.6 C 6.4 km/h
670 06-06-2014 14:05:00 25.6 C 10 g/m*3 25.6 C 9.7 km/h
671 06-06-2014 14:10:00 25.7 C 10.29 g/m*3 25.7 C 6.4 km/h
672 06-06-2014 14:15:00 25.8 C 9.87 g/m*3 25.8 C 11.3 km/h
673 06-06-2014 14:20:00 25.8 C 9.39 g/m*3 25.8 C 14.5 km/h
674 06-06-2014 14:25:00 25.9 C 9.44 g/m*3 25.9 C 14.5 km/h
675 06-06-2014 14:30:00 26 C 9.98 g/m*3 26 C 14.5 km/h
Sensor: Nr:Datum:Temp:Abs-Feuchte:Windchill:Wind:
Aussen-T/F 676 06-06-2014 14:35:00 26.1 C 9.79 g/m*3 26.1 C 12.9 km/h
677 06-06-2014 14:40:00 26.2 C 10.34 g/m*3 26.2 C 11.3 km/h
678 06-06-2014 14:45:00 26.2 C 10.09 g/m*3 26.2 C 11.3 km/h
679 06-06-2014 14:50:00 26.3 C 9.9 g/m*3 26.3 C 6.4 km/h
680 06-06-2014 14:55:00 26.4 C 10.21 g/m*3 26.4 C 6.4 km/h
681 06-06-2014 15:00:00 26.7 C 9.87 g/m*3 26.7 C 6.4 km/h
682 06-06-2014 15:05:00 26.6 C 9.57 g/m*3 26.6 C 6.4 km/h
683 06-06-2014 15:10:00 26.5 C 10.01 g/m*3 26.5 C 8.1 km/h
684 06-06-2014 15:15:00 26.6 C 9.82 g/m*3 26.6 C 4.8 km/h
685 06-06-2014 15:20:00 26.7 C 9.11 g/m*3 26.7 C 8.1 km/h
686 06-06-2014 15:25:00 26.7 C 9.37 g/m*3 26.7 C 4.8 km/h
687 06-06-2014 15:30:00 26.7 C 9.62 g/m*3 26.7 C 4.8 km/h
688 06-06-2014 15:35:00 26.8 C 9.42 g/m*3 26.8 C 11.3 km/h
689 06-06-2014 15:40:00 26.9 C 9.73 g/m*3 26.9 C 8.1 km/h
690 06-06-2014 15:45:00 27.4 C 10.52 g/m*3 27.4 C 6.4 km/h
691 06-06-2014 15:50:00 27.8 C 10.22 g/m*3 27.8 C 6.4 km/h
692 06-06-2014 15:55:00 27.8 C 10.22 g/m*3 27.8 C 8.1 km/h
693 06-06-2014 16:00:00 27.8 C 10.22 g/m*3 27.8 C 12.9 km/h
694 06-06-2014 16:05:00 27.6 C 9.31 g/m*3 27.6 C 9.7 km/h
695 06-06-2014 16:10:00 27.3 C 11.25 g/m*3 27.3 C 6.4 km/h
696 06-06-2014 16:15:00 27.1 C 9.32 g/m*3 27.1 C 4.8 km/h
697 06-06-2014 16:20:00 27.2 C 10.15 g/m*3 27.2 C 9.7 km/h
698 06-06-2014 16:25:00 27.8 C 9.68 g/m*3 27.8 C 9.7 km/h
699 06-06-2014 16:30:00 28.2 C 10.17 g/m*3 28.2 C 11.3 km/h
700 06-06-2014 16:35:00 27.8 C 10.49 g/m*3 27.8 C 6.4 km/h
Sensor: Nr:Datum:Temp:Abs-Feuchte:Windchill:Wind:
Aussen-T/F 701 06-06-2014 16:40:00 27.3 C 9.68 g/m*3 27.3 C 3.2 km/h
702 06-06-2014 16:45:00 27.2 C 9.63 g/m*3 27.2 C 6.4 km/h
703 06-06-2014 16:50:00 27.4 C 9.21 g/m*3 27.4 C 3.2 km/h
704 06-06-2014 16:55:00 27.4 C 9.21 g/m*3 27.4 C 4.8 km/h
705 06-06-2014 17:00:00 27.2 C 9.63 g/m*3 27.2 C 4.8 km/h
706 06-06-2014 17:05:00 27.5 C 10.58 g/m*3 27.5 C 11.3 km/h
707 06-06-2014 17:10:00 27.9 C 9.74 g/m*3 27.9 C 3.2 km/h
708 06-06-2014 17:15:00 28.1 C 9.3 g/m*3 28.1 C 3.2 km/h
709 06-06-2014 17:20:00 27.8 C 8.88 g/m*3 27.8 C 3.2 km/h
710 06-06-2014 17:25:00 27.7 C 10.16 g/m*3 27.7 C 0 km/h
711 06-06-2014 17:30:00 27.9 C 9.74 g/m*3 27.9 C 6.4 km/h
712 06-06-2014 17:35:00 27.8 C 11.57 g/m*3 27.8 C 6.4 km/h
713 06-06-2014 17:40:00 27 C 11.58 g/m*3 27 C 1.6 km/h
714 06-06-2014 17:45:00 25.8 C 12.76 g/m*3 25.8 C 1.6 km/h
715 06-06-2014 17:50:00 25.7 C 10.53 g/m*3 25.7 C 8.1 km/h
716 06-06-2014 17:55:00 26.4 C 11.7 g/m*3 26.4 C 8.1 km/h
717 06-06-2014 18:00:00 27.3 C 10.2 g/m*3 27.3 C 8.1 km/h
718 06-06-2014 18:05:00 27.8 C 11.03 g/m*3 27.8 C 11.3 km/h
719 06-06-2014 18:10:00 28.1 C 10.94 g/m*3 28.1 C 8.1 km/h
720 06-06-2014 18:15:00 28.2 C 10.45 g/m*3 28.2 C 9.7 km/h
721 06-06-2014 18:20:00 28.1 C 10.12 g/m*3 28.1 C 11.3 km/h
722 06-06-2014 18:25:00 28.2 C 10.45 g/m*3 28.2 C 9.7 km/h
723 06-06-2014 18:30:00 28.3 C 10.23 g/m*3 28.3 C 11.3 km/h
724 06-06-2014 18:35:00 28.4 C 10.56 g/m*3 28.4 C 6.4 km/h
725 06-06-2014 18:40:00 28.3 C 10.51 g/m*3 28.3 C 9.7 km/h
Sensor: Nr:Datum:Temp:Abs-Feuchte:Windchill:Wind:
Aussen-T/F 726 06-06-2014 18:45:00 28 C 9.79 g/m*3 28 C 8.1 km/h
727 06-06-2014 18:50:00 28.1 C 10.39 g/m*3 28.1 C 9.7 km/h
728 06-06-2014 18:55:00 28.1 C 11.76 g/m*3 28.1 C 6.4 km/h
729 06-06-2014 19:00:00 28 C 10.88 g/m*3 28 C 8.1 km/h
730 06-06-2014 19:05:00 28.1 C 10.66 g/m*3 28.1 C 6.4 km/h
731 06-06-2014 19:10:00 27.9 C 10.01 g/m*3 27.9 C 6.4 km/h
732 06-06-2014 19:15:00 27.6 C 10.11 g/m*3 27.6 C 8.1 km/h
733 06-06-2014 19:20:00 27.3 C 10.2 g/m*3 27.3 C 9.7 km/h
734 06-06-2014 19:25:00 27.1 C 10.35 g/m*3 27.1 C 9.7 km/h
735 06-06-2014 19:30:00 26.7 C 12.4 g/m*3 26.7 C 6.4 km/h
736 06-06-2014 19:35:00 26 C 12.17 g/m*3 26 C 0 km/h
737 06-06-2014 19:40:00 25.3 C 12.17 g/m*3 25.3 C 1.6 km/h
738 06-06-2014 19:45:00 24.8 C 11.61 g/m*3 24.8 C 4.8 km/h
739 06-06-2014 19:50:00 24.6 C 10.58 g/m*3 24.6 C 4.8 km/h
740 06-06-2014 19:55:00 24.6 C 13.05 g/m*3 24.6 C 1.6 km/h
741 06-06-2014 20:00:00 24.2 C 12.76 g/m*3 24.2 C 1.6 km/h
742 06-06-2014 20:05:00 23.9 C 12.55 g/m*3 23.9 C 1.6 km/h
743 06-06-2014 20:10:00 23.6 C 12.97 g/m*3 23.6 C 3.2 km/h
744 06-06-2014 20:15:00 23 C 12.74 g/m*3 23 C 0 km/h
745 06-06-2014 20:20:00 22.6 C 12.86 g/m*3 22.6 C 1.6 km/h
746 06-06-2014 20:25:00 22.3 C 12.64 g/m*3 22.3 C 0 km/h
747 06-06-2014 20:30:00 22 C 12.42 g/m*3 22 C 1.6 km/h
748 06-06-2014 20:35:00 21.8 C 12.66 g/m*3 21.8 C 0 km/h
749 06-06-2014 20:40:00 21.6 C 12.52 g/m*3 21.6 C 0 km/h
750 06-06-2014 20:45:00 21.4 C 12.19 g/m*3 21.4 C 1.6 km/h
Sensor: Nr:Datum:Temp:Abs-Feuchte:Windchill:Wind:
Aussen-T/F 751 06-06-2014 20:50:00 21.3 C 12.49 g/m*3 21.3 C 1.6 km/h
752 06-06-2014 20:55:00 21.2 C 12.6 g/m*3 21.2 C 0 km/h
753 06-06-2014 21:00:00 21 C 12.27 g/m*3 21 C 1.6 km/h
754 06-06-2014 21:05:00 20.8 C 12.31 g/m*3 20.8 C 1.6 km/h
755 06-06-2014 21:10:00 20.4 C 12.21 g/m*3 20.4 C 0 km/h
756 06-06-2014 21:15:00 20.2 C 11.89 g/m*3 20.2 C 1.6 km/h
757 06-06-2014 21:20:00 19.9 C 11.85 g/m*3 19.9 C 0 km/h
758 06-06-2014 21:25:00 19.7 C 11.89 g/m*3 19.7 C 1.6 km/h
759 06-06-2014 21:30:00 19.6 C 11.99 g/m*3 19.6 C 1.6 km/h
760 06-06-2014 21:35:00 19.3 C 11.61 g/m*3 19.3 C 1.6 km/h
761 06-06-2014 21:40:00 19.2 C 11.71 g/m*3 19.2 C 1.6 km/h
762 06-06-2014 21:45:00 19.1 C 11.8 g/m*3 19.1 C 1.6 km/h
763 06-06-2014 21:50:00 18.9 C 11.5 g/m*3 18.9 C 1.6 km/h
764 06-06-2014 21:55:00 18.8 C 11.76 g/m*3 18.8 C 1.6 km/h
765 06-06-2014 22:00:00 18.7 C 11.53 g/m*3 18.7 C 1.6 km/h
766 06-06-2014 22:05:00 18.6 C 11.62 g/m*3 18.6 C 1.6 km/h
767 06-06-2014 22:10:00 18.4 C 11.32 g/m*3 18.4 C 1.6 km/h
768 06-06-2014 22:15:00 18.4 C 11.48 g/m*3 18.4 C 0 km/h
769 06-06-2014 22:20:00 18.3 C 11.26 g/m*3 18.3 C 0 km/h
770 06-06-2014 22:25:00 18.2 C 11.35 g/m*3 18.2 C 0 km/h
771 06-06-2014 22:30:00 18.1 C 11.59 g/m*3 18.1 C 1.6 km/h
772 06-06-2014 22:35:00 18 C 11.37 g/m*3 18 C 1.6 km/h
773 06-06-2014 22:40:00 17.9 C 11.15 g/m*3 17.9 C 0 km/h
774 06-06-2014 22:45:00 17.9 C 10.84 g/m*3 17.9 C 0 km/h
775 06-06-2014 22:50:00 17.9 C 11.15 g/m*3 17.9 C 0 km/h
Sensor: Nr:Datum:Temp:Abs-Feuchte:Windchill:Wind:
Aussen-T/F 776 06-06-2014 22:55:00 17.8 C 11.38 g/m*3 17.8 C 1.6 km/h
777 06-06-2014 23:00:00 17.7 C 11.32 g/m*3 17.7 C 1.6 km/h
778 06-06-2014 23:05:00 17.6 C 11.1 g/m*3 17.6 C 1.6 km/h
779 06-06-2014 23:10:00 17.5 C 10.88 g/m*3 17.5 C 0 km/h
780 06-06-2014 23:15:00 17.4 C 11.26 g/m*3 17.4 C 0 km/h
781 06-06-2014 23:20:00 17.4 C 11.26 g/m*3 17.4 C 0 km/h
782 06-06-2014 23:25:00 17.3 C 11.34 g/m*3 17.3 C 1.6 km/h
783 06-06-2014 23:30:00 17.2 C 10.84 g/m*3 17.2 C 0 km/h
784 06-06-2014 23:35:00 17.2 C 10.69 g/m*3 17.2 C 0 km/h
785 06-06-2014 23:40:00 17.2 C 11.13 g/m*3 17.2 C 0 km/h
786 06-06-2014 23:45:00 17.1 C 10.92 g/m*3 17.1 C 0 km/h
787 06-06-2014 23:50:00 16.8 C 10.87 g/m*3 16.8 C 0 km/h
788 06-06-2014 23:55:00 16.7 C 10.94 g/m*3 16.7 C 0 km/h
789 07-06-2014 00:00:00 16.5 C 10.81 g/m*3 16.5 C 0 km/h
790 07-06-2014 00:05:00 16.4 C 10.47 g/m*3 16.4 C 0 km/h
791 07-06-2014 00:10:00 16.4 C 10.47 g/m*3 16.4 C 0 km/h
792 07-06-2014 00:15:00 16.3 C 10.54 g/m*3 16.3 C 0 km/h
793 07-06-2014 00:20:00 16.2 C 10.48 g/m*3 16.2 C 3.2 km/h
794 07-06-2014 00:25:00 16.1 C 10.55 g/m*3 16.1 C 1.6 km/h
795 07-06-2014 00:30:00 15.9 C 10.43 g/m*3 15.9 C 0 km/h
796 07-06-2014 00:35:00 15.8 C 10.5 g/m*3 15.8 C 0 km/h
797 07-06-2014 00:40:00 15.7 C 10.57 g/m*3 15.7 C 0 km/h
798 07-06-2014 00:45:00 15.6 C 10.64 g/m*3 15.6 C 0 km/h
799 07-06-2014 00:50:00 15.4 C 10.38 g/m*3 15.4 C 0 km/h
800 07-06-2014 00:55:00 15.2 C 10.38 g/m*3 15.2 C 0 km/h
Sensor: Nr:Datum:Temp:Abs-Feuchte:Windchill:Wind:
Aussen-T/F 801 07-06-2014 01:00:00 15.2 C 10.38 g/m*3 15.2 C 0 km/h
802 07-06-2014 01:05:00 15.1 C 10.45 g/m*3 15.1 C 0 km/h
803 07-06-2014 01:10:00 15.1 C 10.45 g/m*3 15.1 C 0 km/h
804 07-06-2014 01:15:00 14.9 C 10.32 g/m*3 14.9 C 0 km/h
805 07-06-2014 01:20:00 14.9 C 10.32 g/m*3 14.9 C 0 km/h
806 07-06-2014 01:25:00 14.8 C 10.39 g/m*3 14.8 C 0 km/h
807 07-06-2014 01:30:00 14.8 C 10.39 g/m*3 14.8 C 0 km/h
808 07-06-2014 01:35:00 14.6 C 10.26 g/m*3 14.6 C 0 km/h
809 07-06-2014 01:40:00 14.5 C 10.32 g/m*3 14.5 C 0 km/h
810 07-06-2014 01:45:00 14.4 C 10.26 g/m*3 14.4 C 0 km/h
811 07-06-2014 01:50:00 14.2 C 10.01 g/m*3 14.2 C 0 km/h
812 07-06-2014 01:55:00 14.1 C 9.95 g/m*3 14.1 C 0 km/h
813 07-06-2014 02:00:00 14.1 C 10.07 g/m*3 14.1 C 0 km/h
814 07-06-2014 02:05:00 14 C 10.01 g/m*3 14 C 0 km/h
815 07-06-2014 02:10:00 14 C 10.01 g/m*3 14 C 0 km/h
816 07-06-2014 02:15:00 14 C 10.13 g/m*3 14 C 0 km/h
817 07-06-2014 02:20:00 14 C 10.01 g/m*3 14 C 0 km/h
818 07-06-2014 02:25:00 14 C 10.01 g/m*3 14 C 0 km/h
819 07-06-2014 02:30:00 14 C 10.01 g/m*3 14 C 0 km/h
820 07-06-2014 02:35:00 13.9 C 9.95 g/m*3 13.9 C 0 km/h
821 07-06-2014 02:40:00 13.8 C 10.01 g/m*3 13.8 C 0 km/h
822 07-06-2014 02:45:00 13.7 C 9.95 g/m*3 13.7 C 0 km/h
823 07-06-2014 02:50:00 13.7 C 9.95 g/m*3 13.7 C 0 km/h
824 07-06-2014 02:55:00 13.6 C 10 g/m*3 13.6 C 0 km/h
825 07-06-2014 03:00:00 13.5 C 9.94 g/m*3 13.5 C 0 km/h
Sensor: Nr:Datum:Temp:Abs-Feuchte:Windchill:Wind:
Aussen-T/F 826 07-06-2014 03:05:00 13.4 C 9.88 g/m*3 13.4 C 0 km/h
827 07-06-2014 03:10:00 13.4 C 9.88 g/m*3 13.4 C 0 km/h
828 07-06-2014 03:15:00 13.3 C 9.94 g/m*3 13.3 C 0 km/h
829 07-06-2014 03:20:00 13.3 C 9.94 g/m*3 13.3 C 0 km/h
830 07-06-2014 03:25:00 13.2 C 9.87 g/m*3 13.2 C 0 km/h
831 07-06-2014 03:30:00 13.1 C 9.81 g/m*3 13.1 C 0 km/h
832 07-06-2014 03:35:00 12.9 C 9.81 g/m*3 12.9 C 0 km/h
833 07-06-2014 03:40:00 12.9 C 9.81 g/m*3 12.9 C 0 km/h
834 07-06-2014 03:45:00 12.8 C 9.74 g/m*3 12.8 C 0 km/h
835 07-06-2014 03:50:00 12.8 C 9.74 g/m*3 12.8 C 0 km/h
836 07-06-2014 03:55:00 12.8 C 9.74 g/m*3 12.8 C 0 km/h
837 07-06-2014 04:00:00 12.7 C 9.68 g/m*3 12.7 C 0 km/h
838 07-06-2014 04:05:00 12.7 C 9.68 g/m*3 12.7 C 0 km/h
839 07-06-2014 04:10:00 12.7 C 9.8 g/m*3 12.7 C 0 km/h
840 07-06-2014 04:15:00 12.6 C 9.74 g/m*3 12.6 C 0 km/h
841 07-06-2014 04:20:00 12.5 C 9.68 g/m*3 12.5 C 0 km/h
842 07-06-2014 04:25:00 12.4 C 9.72 g/m*3 12.4 C 0 km/h
843 07-06-2014 04:30:00 12.4 C 9.72 g/m*3 12.4 C 0 km/h
844 07-06-2014 04:35:00 12.3 C 9.77 g/m*3 12.3 C 0 km/h
845 07-06-2014 04:40:00 12.3 C 9.66 g/m*3 12.3 C 0 km/h
846 07-06-2014 04:45:00 12.3 C 9.66 g/m*3 12.3 C 0 km/h
847 07-06-2014 04:50:00 12.2 C 9.6 g/m*3 12.2 C 0 km/h
848 07-06-2014 04:55:00 12.2 C 9.6 g/m*3 12.2 C 0 km/h
849 07-06-2014 05:00:00 12.2 C 9.6 g/m*3 12.2 C 0 km/h
850 07-06-2014 05:05:00 12.2 C 9.71 g/m*3 12.2 C 0 km/h
Sensor: Nr:Datum:Temp:Abs-Feuchte:Windchill:Wind:
Aussen-T/F 851 07-06-2014 05:10:00 12.1 C 9.65 g/m*3 12.1 C 0 km/h
852 07-06-2014 05:15:00 12.1 C 9.65 g/m*3 12.1 C 0 km/h
853 07-06-2014 05:20:00 12.1 C 9.65 g/m*3 12.1 C 0 km/h
854 07-06-2014 05:25:00 12.1 C 9.76 g/m*3 12.1 C 0 km/h
855 07-06-2014 05:30:00 12.1 C 9.76 g/m*3 12.1 C 0 km/h
856 07-06-2014 05:35:00 12.1 C 9.76 g/m*3 12.1 C 0 km/h
857 07-06-2014 05:40:00 12 C 9.7 g/m*3 12 C 0 km/h
858 07-06-2014 05:45:00 12 C 9.7 g/m*3 12 C 0 km/h
859 07-06-2014 05:50:00 12 C 9.7 g/m*3 12 C 0 km/h
860 07-06-2014 05:55:00 12.1 C 9.76 g/m*3 12.1 C 0 km/h
861 07-06-2014 06:00:00 12.1 C 9.76 g/m*3 12.1 C 0 km/h
862 07-06-2014 06:05:00 12.1 C 9.76 g/m*3 12.1 C 0 km/h
863 07-06-2014 06:10:00 12.2 C 9.82 g/m*3 12.2 C 0 km/h
864 07-06-2014 06:15:00 12.2 C 9.82 g/m*3 12.2 C 0 km/h
865 07-06-2014 06:20:00 12.2 C 9.82 g/m*3 12.2 C 0 km/h
866 07-06-2014 06:25:00 12.2 C 9.82 g/m*3 12.2 C 0 km/h
867 07-06-2014 06:30:00 12.2 C 9.93 g/m*3 12.2 C 0 km/h
868 07-06-2014 06:35:00 12.2 C 9.93 g/m*3 12.2 C 0 km/h
869 07-06-2014 06:40:00 12.2 C 9.93 g/m*3 12.2 C 0 km/h
870 07-06-2014 06:45:00 12.3 C 9.99 g/m*3 12.3 C 0 km/h
871 07-06-2014 06:50:00 12.3 C 9.99 g/m*3 12.3 C 0 km/h
872 07-06-2014 06:55:00 12.4 C 10.05 g/m*3 12.4 C 0 km/h
873 07-06-2014 07:00:00 12.6 C 10.18 g/m*3 12.6 C 0 km/h
874 07-06-2014 07:05:00 12.7 C 10.24 g/m*3 12.7 C 0 km/h
875 07-06-2014 07:10:00 12.8 C 10.19 g/m*3 12.8 C 0 km/h
Sensor: Nr:Datum:Temp:Abs-Feuchte:Windchill:Wind:
Aussen-T/F 876 07-06-2014 07:15:00 12.9 C 10.26 g/m*3 12.9 C 0 km/h
877 07-06-2014 07:20:00 13.1 C 10.38 g/m*3 13.1 C 0 km/h
878 07-06-2014 07:25:00 13.1 C 10.27 g/m*3 13.1 C 0 km/h
879 07-06-2014 07:30:00 13.2 C 10.33 g/m*3 13.2 C 0 km/h
880 07-06-2014 07:35:00 13.3 C 10.4 g/m*3 13.3 C 0 km/h
881 07-06-2014 07:40:00 13.4 C 10.46 g/m*3 13.4 C 0 km/h
882 07-06-2014 07:45:00 13.6 C 10.71 g/m*3 13.6 C 0 km/h
883 07-06-2014 07:50:00 13.8 C 10.72 g/m*3 13.8 C 0 km/h
884 07-06-2014 07:55:00 14.1 C 10.68 g/m*3 14.1 C 1.6 km/h
885 07-06-2014 08:00:00 14.4 C 10.88 g/m*3 14.4 C 0 km/h
886 07-06-2014 08:05:00 14.6 C 10.89 g/m*3 14.6 C 0 km/h
887 07-06-2014 08:10:00 14.9 C 11.09 g/m*3 14.9 C 0 km/h
888 07-06-2014 08:15:00 15.2 C 11.16 g/m*3 15.2 C 0 km/h
889 07-06-2014 08:20:00 15.6 C 11.17 g/m*3 15.6 C 0 km/h
890 07-06-2014 08:25:00 15.8 C 11.31 g/m*3 15.8 C 0 km/h
891 07-06-2014 08:30:00 16.1 C 11.38 g/m*3 16.1 C 0 km/h
892 07-06-2014 08:35:00 16.3 C 11.52 g/m*3 16.3 C 0 km/h
893 07-06-2014 08:40:00 16.4 C 11.45 g/m*3 16.4 C 0 km/h
894 07-06-2014 08:45:00 16.7 C 11.51 g/m*3 16.7 C 0 km/h
895 07-06-2014 08:50:00 16.8 C 11.58 g/m*3 16.8 C 0 km/h
896 07-06-2014 08:55:00 17.1 C 11.65 g/m*3 17.1 C 0 km/h
897 07-06-2014 09:00:00 17.3 C 11.93 g/m*3 17.3 C 1.6 km/h
898 07-06-2014 09:05:00 17.5 C 11.78 g/m*3 17.5 C 0 km/h
899 07-06-2014 09:10:00 17.7 C 11.92 g/m*3 17.7 C 0 km/h
900 07-06-2014 09:15:00 17.4 C 11.86 g/m*3 17.4 C 0 km/h
Sensor: Nr:Datum:Temp:Abs-Feuchte:Windchill:Wind:
Aussen-T/F 901 07-06-2014 09:20:00 17.4 C 11.86 g/m*3 17.4 C 0 km/h
902 07-06-2014 09:25:00 17.4 C 12 g/m*3 17.4 C 0 km/h
903 07-06-2014 09:30:00 17.3 C 12.08 g/m*3 17.3 C 0 km/h
904 07-06-2014 09:35:00 17.2 C 12.01 g/m*3 17.2 C 0 km/h
905 07-06-2014 09:40:00 17.3 C 12.08 g/m*3 17.3 C 0 km/h
906 07-06-2014 09:45:00 17.4 C 12.3 g/m*3 17.4 C 0 km/h
907 07-06-2014 09:50:00 17.6 C 12.45 g/m*3 17.6 C 0 km/h
908 07-06-2014 09:55:00 18 C 12.59 g/m*3 18 C 0 km/h
909 07-06-2014 10:00:00 18.4 C 12.74 g/m*3 18.4 C 0 km/h
910 07-06-2014 10:05:00 18.9 C 12.96 g/m*3 18.9 C 0 km/h
911 07-06-2014 10:10:00 19.3 C 13.1 g/m*3 19.3 C 0 km/h
912 07-06-2014 10:15:00 19.8 C 13.32 g/m*3 19.8 C 0 km/h
913 07-06-2014 10:20:00 20 C 13.48 g/m*3 20 C 0 km/h
914 07-06-2014 10:25:00 20.4 C 13.44 g/m*3 20.4 C 0 km/h
915 07-06-2014 10:30:00 20.6 C 13.42 g/m*3 20.6 C 0 km/h
916 07-06-2014 10:35:00 20.8 C 13.76 g/m*3 20.8 C 0 km/h
917 07-06-2014 10:40:00 21.1 C 13.82 g/m*3 21.1 C 0 km/h
918 07-06-2014 10:45:00 21.4 C 13.87 g/m*3 21.4 C 0 km/h
919 07-06-2014 10:50:00 21.4 C 14.25 g/m*3 21.4 C 0 km/h
920 07-06-2014 10:55:00 21.6 C 14.41 g/m*3 21.6 C 0 km/h
921 07-06-2014 11:00:00 21.8 C 14.2 g/m*3 21.8 C 1.6 km/h
922 07-06-2014 11:05:00 21.8 C 14.58 g/m*3 21.8 C 0 km/h
923 07-06-2014 11:10:00 22.1 C 14.64 g/m*3 22.1 C 1.6 km/h
924 07-06-2014 11:15:00 22.9 C 14.31 g/m*3 22.9 C 3.2 km/h
925 07-06-2014 11:20:00 23.8 C 14.84 g/m*3 23.8 C 4.8 km/h
Sensor: Nr:Datum:Temp:Abs-Feuchte:Windchill:Wind:
Aussen-T/F 926 07-06-2014 11:25:00 24.2 C 15.18 g/m*3 24.2 C 1.6 km/h
927 07-06-2014 11:30:00 24.8 C 13.88 g/m*3 24.8 C 4.8 km/h
928 07-06-2014 11:35:00 25.4 C 13.42 g/m*3 25.4 C 6.4 km/h
929 07-06-2014 11:40:00 26.2 C 13.05 g/m*3 26.2 C 9.7 km/h
930 07-06-2014 11:45:00 26.9 C 14.08 g/m*3 26.9 C 8.1 km/h
931 07-06-2014 11:50:00 27.4 C 13.16 g/m*3 27.4 C 1.6 km/h
932 07-06-2014 11:55:00 27.7 C 13.37 g/m*3 27.7 C 3.2 km/h
933 07-06-2014 12:00:00 27.8 C 13.99 g/m*3 27.8 C 4.8 km/h
934 07-06-2014 12:05:00 28.1 C 13.4 g/m*3 28.1 C 8.1 km/h
935 07-06-2014 12:10:00 28.7 C 14.69 g/m*3 28.7 C 8.1 km/h
936 07-06-2014 12:15:00 28.8 C 12.79 g/m*3 28.8 C 4.8 km/h
937 07-06-2014 12:20:00 28.7 C 14.13 g/m*3 28.7 C 4.8 km/h
938 07-06-2014 12:25:00 28.5 C 13.42 g/m*3 28.5 C 4.8 km/h
939 07-06-2014 12:30:00 28.5 C 12.58 g/m*3 28.5 C 6.4 km/h
940 07-06-2014 12:35:00 28.6 C 12.93 g/m*3 28.6 C 6.4 km/h
941 07-06-2014 12:40:00 28.7 C 12.72 g/m*3 28.7 C 6.4 km/h
942 07-06-2014 12:45:00 28.9 C 14.57 g/m*3 28.9 C 6.4 km/h
943 07-06-2014 12:50:00 29.1 C 12.71 g/m*3 29.1 C 4.8 km/h
944 07-06-2014 12:55:00 29.2 C 13.94 g/m*3 29.2 C 6.4 km/h
945 07-06-2014 13:00:00 29.2 C 12.2 g/m*3 29.2 C 6.4 km/h
946 07-06-2014 13:05:00 29.2 C 13.36 g/m*3 29.2 C 4.8 km/h
947 07-06-2014 13:10:00 29.3 C 14.31 g/m*3 29.3 C 3.2 km/h
948 07-06-2014 13:15:00 29.4 C 13.8 g/m*3 29.4 C 8.1 km/h
949 07-06-2014 13:20:00 29.6 C 12.46 g/m*3 29.6 C 8.1 km/h
950 07-06-2014 13:25:00 29.8 C 13.2 g/m*3 29.8 C 4.8 km/h
Sensor: Nr:Datum:Temp:Abs-Feuchte:Windchill:Wind:
Aussen-T/F 951 07-06-2014 13:30:00 30.1 C 12.5 g/m*3 30.1 C 4.8 km/h
952 07-06-2014 13:35:00 30.3 C 12.94 g/m*3 30.3 C 3.2 km/h
953 07-06-2014 13:40:00 30.2 C 15.02 g/m*3 30.2 C 8.1 km/h
954 07-06-2014 13:45:00 30.4 C 13.94 g/m*3 30.4 C 8.1 km/h
955 07-06-2014 13:50:00 30.3 C 12.33 g/m*3 30.3 C 8.1 km/h
956 07-06-2014 13:55:00 30.1 C 12.81 g/m*3 30.1 C 8.1 km/h
957 07-06-2014 14:00:00 30.2 C 12.57 g/m*3 30.2 C 6.4 km/h
958 07-06-2014 14:05:00 30.3 C 13.25 g/m*3 30.3 C 3.2 km/h
959 07-06-2014 14:10:00 30.4 C 12.7 g/m*3 30.4 C 9.7 km/h
960 07-06-2014 14:15:00 30.6 C 12.53 g/m*3 30.6 C 3.2 km/h
961 07-06-2014 14:20:00 30.6 C 13.47 g/m*3 30.6 C 11.3 km/h
962 07-06-2014 14:25:00 30.7 C 12.91 g/m*3 30.7 C 9.7 km/h
963 07-06-2014 14:30:00 30.7 C 11.34 g/m*3 30.7 C 6.4 km/h
964 07-06-2014 14:35:00 30.7 C 11.34 g/m*3 30.7 C 8.1 km/h
965 07-06-2014 14:40:00 30.9 C 11.78 g/m*3 30.9 C 9.7 km/h
966 07-06-2014 14:45:00 30.9 C 13.37 g/m*3 30.9 C 6.4 km/h
967 07-06-2014 14:50:00 30.7 C 15.12 g/m*3 30.7 C 4.8 km/h
968 07-06-2014 14:55:00 30.6 C 12.53 g/m*3 30.6 C 4.8 km/h
969 07-06-2014 15:00:00 30.8 C 13.3 g/m*3 30.8 C 8.1 km/h
970 07-06-2014 15:05:00 31.1 C 12.87 g/m*3 31.1 C 6.4 km/h
971 07-06-2014 15:10:00 31.1 C 11.26 g/m*3 31.1 C 11.3 km/h
972 07-06-2014 15:15:00 31.1 C 12.23 g/m*3 31.1 C 4.8 km/h
973 07-06-2014 15:20:00 31.2 C 11.97 g/m*3 31.2 C 1.6 km/h
974 07-06-2014 15:25:00 31.3 C 12.03 g/m*3 31.3 C 4.8 km/h
975 07-06-2014 15:30:00 31.3 C 12.68 g/m*3 31.3 C 1.6 km/h
Sensor: Nr:Datum:Temp:Abs-Feuchte:Windchill:Wind:
Aussen-T/F 976 07-06-2014 15:35:00 31.1 C 14.48 g/m*3 31.1 C 1.6 km/h
977 07-06-2014 15:40:00 30.6 C 13.78 g/m*3 30.6 C 3.2 km/h
978 07-06-2014 15:45:00 30.5 C 12.46 g/m*3 30.5 C 3.2 km/h
979 07-06-2014 15:50:00 30.5 C 13.4 g/m*3 30.5 C 4.8 km/h
980 07-06-2014 15:55:00 30.1 C 15.24 g/m*3 30.1 C 4.8 km/h
981 07-06-2014 16:00:00 29.3 C 14.6 g/m*3 29.3 C 4.8 km/h
982 07-06-2014 16:05:00 28.8 C 15.63 g/m*3 28.8 C 3.2 km/h
983 07-06-2014 16:10:00 28.6 C 15.46 g/m*3 28.6 C 1.6 km/h
984 07-06-2014 16:15:00 28.2 C 15.95 g/m*3 28.2 C 0 km/h
985 07-06-2014 16:20:00 27.8 C 16.14 g/m*3 27.8 C 1.6 km/h
986 07-06-2014 16:25:00 27.8 C 16.41 g/m*3 27.8 C 1.6 km/h
987 07-06-2014 16:30:00 27.8 C 16.41 g/m*3 27.8 C 1.6 km/h
988 07-06-2014 16:35:00 27.7 C 16.58 g/m*3 27.7 C 0 km/h
989 07-06-2014 16:40:00 27.4 C 16.31 g/m*3 27.4 C 1.6 km/h
990 07-06-2014 16:45:00 27.2 C 16.39 g/m*3 27.2 C 1.6 km/h
991 07-06-2014 16:50:00 26.9 C 16.64 g/m*3 26.9 C 1.6 km/h
992 07-06-2014 16:55:00 26.7 C 16.45 g/m*3 26.7 C 0 km/h
993 07-06-2014 17:00:00 26.4 C 16.18 g/m*3 26.4 C 0 km/h
994 07-06-2014 17:05:00 26.3 C 16.59 g/m*3 26.3 C 0 km/h
995 07-06-2014 17:10:00 26.1 C 16.65 g/m*3 26.1 C 0 km/h
996 07-06-2014 17:15:00 25.8 C 16.37 g/m*3 25.8 C 0 km/h
997 07-06-2014 17:20:00 25.6 C 16.43 g/m*3 25.6 C 1.6 km/h
998 07-06-2014 17:25:00 25.4 C 16.48 g/m*3 25.4 C 1.6 km/h
999 07-06-2014 17:30:00 25.2 C 16.3 g/m*3 25.2 C 1.6 km/h
1000 07-06-2014 17:35:00 25.1 C 15.97 g/m*3 25.1 C 0 km/h
Sensor: Nr:Datum:Temp:Abs-Feuchte:Windchill:Wind:
Aussen-T/F 1001 07-06-2014 17:40:00 25 C 16.34 g/m*3 25 C 0 km/h
1002 07-06-2014 17:45:00 24.9 C 16.02 g/m*3 24.9 C 0 km/h
1003 07-06-2014 17:50:00 24.9 C 16.25 g/m*3 24.9 C 0 km/h
1004 07-06-2014 17:55:00 25.1 C 16.67 g/m*3 25.1 C 0 km/h
1005 07-06-2014 18:00:00 25.5 C 17.05 g/m*3 25.5 C 0 km/h
1006 07-06-2014 18:05:00 25.9 C 17.43 g/m*3 25.9 C 1.6 km/h
1007 07-06-2014 18:10:00 26.5 C 17.52 g/m*3 26.5 C 0 km/h
1008 07-06-2014 18:15:00 26.6 C 17.12 g/m*3 26.6 C 1.6 km/h
1009 07-06-2014 18:20:00 26.4 C 17.43 g/m*3 26.4 C 3.2 km/h
1010 07-06-2014 18:25:00 26.5 C 17.52 g/m*3 26.5 C 0 km/h
1011 07-06-2014 18:30:00 26.8 C 17.82 g/m*3 26.8 C 0 km/h
1012 07-06-2014 18:35:00 27.1 C 17.6 g/m*3 27.1 C 0 km/h
1013 07-06-2014 18:40:00 26.9 C 17.4 g/m*3 26.9 C 0 km/h
1014 07-06-2014 18:45:00 26.7 C 17.21 g/m*3 26.7 C 0 km/h
1015 07-06-2014 18:50:00 26.3 C 17.08 g/m*3 26.3 C 1.6 km/h
1016 07-06-2014 18:55:00 25.8 C 16.85 g/m*3 25.8 C 1.6 km/h
1017 07-06-2014 19:00:00 25.7 C 17 g/m*3 25.7 C 0 km/h
1018 07-06-2014 19:05:00 25.6 C 16.67 g/m*3 25.6 C 0 km/h
1019 07-06-2014 19:10:00 25.2 C 16.53 g/m*3 25.2 C 1.6 km/h
1020 07-06-2014 19:15:00 24.9 C 16.48 g/m*3 24.9 C 0 km/h
1021 07-06-2014 19:20:00 24.6 C 16.21 g/m*3 24.6 C 0 km/h
1022 07-06-2014 19:25:00 24.4 C 16.02 g/m*3 24.4 C 0 km/h
1023 07-06-2014 19:30:00 24.4 C 16.25 g/m*3 24.4 C 1.6 km/h
1024 07-06-2014 19:35:00 24.4 C 16.25 g/m*3 24.4 C 0 km/h
1025 07-06-2014 19:40:00 24.7 C 16.3 g/m*3 24.7 C 0 km/h
Sensor: Nr:Datum:Temp:Abs-Feuchte:Windchill:Wind:
Aussen-T/F 1026 07-06-2014 19:45:00 24.9 C 16.25 g/m*3 24.9 C 0 km/h
1027 07-06-2014 19:50:00 25 C 16.34 g/m*3 25 C 1.6 km/h
1028 07-06-2014 19:55:00 25 C 16.57 g/m*3 25 C 1.6 km/h
1029 07-06-2014 20:00:00 24.9 C 16.02 g/m*3 24.9 C 0 km/h
1030 07-06-2014 20:05:00 24.9 C 16.02 g/m*3 24.9 C 0 km/h
1031 07-06-2014 20:10:00 24.8 C 15.93 g/m*3 24.8 C 1.6 km/h
1032 07-06-2014 20:15:00 24.7 C 15.62 g/m*3 24.7 C 0 km/h
1033 07-06-2014 20:20:00 24.6 C 15.75 g/m*3 24.6 C 1.6 km/h
1034 07-06-2014 20:25:00 24.4 C 15.58 g/m*3 24.4 C 0 km/h
1035 07-06-2014 20:30:00 24.3 C 15.49 g/m*3 24.3 C 0 km/h
1036 07-06-2014 20:35:00 24.1 C 15.32 g/m*3 24.1 C 1.6 km/h
1037 07-06-2014 20:40:00 23.9 C 15.36 g/m*3 23.9 C 1.6 km/h
1038 07-06-2014 20:45:00 23.8 C 15.27 g/m*3 23.8 C 0 km/h
1039 07-06-2014 20:50:00 23.6 C 15.1 g/m*3 23.6 C 0 km/h
1040 07-06-2014 20:55:00 23.4 C 15.14 g/m*3 23.4 C 0 km/h
1041 07-06-2014 21:00:00 23.2 C 14.97 g/m*3 23.2 C 0 km/h
1042 07-06-2014 21:05:00 23.1 C 14.88 g/m*3 23.1 C 0 km/h
1043 07-06-2014 21:10:00 23 C 14.8 g/m*3 23 C 1.6 km/h
1044 07-06-2014 21:15:00 22.8 C 14.63 g/m*3 22.8 C 1.6 km/h
1045 07-06-2014 21:20:00 22.7 C 14.75 g/m*3 22.7 C 1.6 km/h
1046 07-06-2014 21:25:00 22.5 C 14.58 g/m*3 22.5 C 1.6 km/h
1047 07-06-2014 21:30:00 22.3 C 14.61 g/m*3 22.3 C 1.6 km/h
1048 07-06-2014 21:35:00 22.2 C 14.53 g/m*3 22.2 C 1.6 km/h
1049 07-06-2014 21:40:00 22 C 14.56 g/m*3 22 C 1.6 km/h
1050 07-06-2014 21:45:00 21.9 C 14.47 g/m*3 21.9 C 1.6 km/h
Sensor: Nr:Datum:Temp:Abs-Feuchte:Windchill:Wind:
Aussen-T/F 1051 07-06-2014 21:50:00 21.8 C 14.39 g/m*3 21.8 C 1.6 km/h
1052 07-06-2014 21:55:00 21.8 C 14.39 g/m*3 21.8 C 1.6 km/h
1053 07-06-2014 22:00:00 21.7 C 14.31 g/m*3 21.7 C 1.6 km/h
1054 07-06-2014 22:05:00 21.6 C 14.22 g/m*3 21.6 C 1.6 km/h
1055 07-06-2014 22:10:00 21.6 C 14.22 g/m*3 21.6 C 0 km/h
1056 07-06-2014 22:15:00 21.4 C 14.25 g/m*3 21.4 C 0 km/h
1057 07-06-2014 22:20:00 21.2 C 14.08 g/m*3 21.2 C 0 km/h
1058 07-06-2014 22:25:00 21.1 C 14.19 g/m*3 21.1 C 1.6 km/h
1059 07-06-2014 22:30:00 21 C 13.92 g/m*3 21 C 0 km/h
1060 07-06-2014 22:35:00 20.9 C 14.02 g/m*3 20.9 C 1.6 km/h
1061 07-06-2014 22:40:00 20.9 C 13.84 g/m*3 20.9 C 1.6 km/h
1062 07-06-2014 22:45:00 20.9 C 14.02 g/m*3 20.9 C 0 km/h
1063 07-06-2014 22:50:00 20.8 C 13.94 g/m*3 20.8 C 1.6 km/h
1064 07-06-2014 22:55:00 20.8 C 13.76 g/m*3 20.8 C 1.6 km/h
1065 07-06-2014 23:00:00 20.8 C 13.94 g/m*3 20.8 C 1.6 km/h
1066 07-06-2014 23:05:00 20.7 C 13.86 g/m*3 20.7 C 0 km/h
1067 07-06-2014 23:10:00 20.7 C 13.86 g/m*3 20.7 C 1.6 km/h
1068 07-06-2014 23:15:00 20.6 C 13.78 g/m*3 20.6 C 0 km/h
1069 07-06-2014 23:20:00 20.4 C 13.62 g/m*3 20.4 C 0 km/h
1070 07-06-2014 23:25:00 20.3 C 13.72 g/m*3 20.3 C 0 km/h
1071 07-06-2014 23:30:00 20.1 C 13.73 g/m*3 20.1 C 0 km/h
1072 07-06-2014 23:35:00 20 C 13.65 g/m*3 20 C 1.6 km/h
1073 07-06-2014 23:40:00 19.9 C 13.74 g/m*3 19.9 C 0 km/h
1074 07-06-2014 23:45:00 19.8 C 13.66 g/m*3 19.8 C 0 km/h
1075 07-06-2014 23:50:00 19.7 C 13.58 g/m*3 19.7 C 0 km/h
Sensor: Nr:Datum:Temp:Abs-Feuchte:Windchill:Wind:
Aussen-T/F 1076 07-06-2014 23:55:00 19.6 C 13.51 g/m*3 19.6 C 0 km/h
1077 08-06-2014 00:00:00 19.5 C 13.43 g/m*3 19.5 C 0 km/h
1078 08-06-2014 00:05:00 19.3 C 13.44 g/m*3 19.3 C 0 km/h
1079 08-06-2014 00:10:00 19.3 C 13.44 g/m*3 19.3 C 0 km/h
1080 08-06-2014 00:15:00 19.2 C 13.52 g/m*3 19.2 C 0 km/h
1081 08-06-2014 00:20:00 19.1 C 13.44 g/m*3 19.1 C 0 km/h
1082 08-06-2014 00:25:00 18.9 C 13.45 g/m*3 18.9 C 0 km/h
1083 08-06-2014 00:30:00 18.8 C 13.37 g/m*3 18.8 C 0 km/h
1084 08-06-2014 00:35:00 18.7 C 13.29 g/m*3 18.7 C 0 km/h
1085 08-06-2014 00:40:00 18.7 C 13.29 g/m*3 18.7 C 1.6 km/h
1086 08-06-2014 00:45:00 18.7 C 13.29 g/m*3 18.7 C 0 km/h
1087 08-06-2014 00:50:00 18.7 C 13.29 g/m*3 18.7 C 0 km/h
1088 08-06-2014 00:55:00 18.7 C 13.29 g/m*3 18.7 C 0 km/h
1089 08-06-2014 01:00:00 18.6 C 13.21 g/m*3 18.6 C 0 km/h
1090 08-06-2014 01:05:00 18.4 C 13.05 g/m*3 18.4 C 1.6 km/h
1091 08-06-2014 01:10:00 18.4 C 13.21 g/m*3 18.4 C 0 km/h
1092 08-06-2014 01:15:00 18.3 C 13.13 g/m*3 18.3 C 0 km/h
1093 08-06-2014 01:20:00 18.2 C 13.21 g/m*3 18.2 C 0 km/h
1094 08-06-2014 01:25:00 18.1 C 13.13 g/m*3 18.1 C 0 km/h
1095 08-06-2014 01:30:00 18 C 13.21 g/m*3 18 C 0 km/h
1096 08-06-2014 01:35:00 17.9 C 13.13 g/m*3 17.9 C 0 km/h
1097 08-06-2014 01:40:00 17.9 C 13.13 g/m*3 17.9 C 0 km/h
1098 08-06-2014 01:45:00 17.8 C 13.05 g/m*3 17.8 C 0 km/h
1099 08-06-2014 01:50:00 17.8 C 13.05 g/m*3 17.8 C 0 km/h
1100 08-06-2014 01:55:00 17.7 C 12.98 g/m*3 17.7 C 1.6 km/h
Sensor: Nr:Datum:Temp:Abs-Feuchte:Windchill:Wind:
Aussen-T/F 1101 08-06-2014 02:00:00 17.7 C 12.98 g/m*3 17.7 C 0 km/h
1102 08-06-2014 02:05:00 17.6 C 13.05 g/m*3 17.6 C 0 km/h
1103 08-06-2014 02:10:00 17.5 C 12.97 g/m*3 17.5 C 0 km/h
1104 08-06-2014 02:15:00 17.4 C 12.89 g/m*3 17.4 C 0 km/h
1105 08-06-2014 02:20:00 17.3 C 12.82 g/m*3 17.3 C 0 km/h
1106 08-06-2014 02:25:00 17.3 C 12.82 g/m*3 17.3 C 0 km/h
1107 08-06-2014 02:30:00 17.2 C 12.74 g/m*3 17.2 C 0 km/h
1108 08-06-2014 02:35:00 17.1 C 12.81 g/m*3 17.1 C 0 km/h
1109 08-06-2014 02:40:00 17.1 C 12.81 g/m*3 17.1 C 0 km/h
1110 08-06-2014 02:45:00 17 C 12.73 g/m*3 17 C 0 km/h
1111 08-06-2014 02:50:00 16.9 C 12.66 g/m*3 16.9 C 0 km/h
1112 08-06-2014 02:55:00 16.9 C 12.66 g/m*3 16.9 C 0 km/h
1113 08-06-2014 03:00:00 16.9 C 12.66 g/m*3 16.9 C 0 km/h
1114 08-06-2014 03:05:00 16.8 C 12.58 g/m*3 16.8 C 0 km/h
1115 08-06-2014 03:10:00 16.8 C 12.58 g/m*3 16.8 C 0 km/h
1116 08-06-2014 03:15:00 16.7 C 12.51 g/m*3 16.7 C 0 km/h
1117 08-06-2014 03:20:00 16.7 C 12.65 g/m*3 16.7 C 0 km/h
1118 08-06-2014 03:25:00 16.6 C 12.57 g/m*3 16.6 C 0 km/h
1119 08-06-2014 03:30:00 16.4 C 12.42 g/m*3 16.4 C 0 km/h
1120 08-06-2014 03:35:00 16.4 C 12.56 g/m*3 16.4 C 0 km/h
1121 08-06-2014 03:40:00 16.3 C 12.49 g/m*3 16.3 C 0 km/h
1122 08-06-2014 03:45:00 16.3 C 12.62 g/m*3 16.3 C 0 km/h
1123 08-06-2014 03:50:00 16.3 C 12.62 g/m*3 16.3 C 0 km/h
1124 08-06-2014 03:55:00 16.3 C 12.62 g/m*3 16.3 C 0 km/h
1125 08-06-2014 04:00:00 16.3 C 12.62 g/m*3 16.3 C 0 km/h
Sensor: Nr:Datum:Temp:Abs-Feuchte:Windchill:Wind:
Aussen-T/F 1126 08-06-2014 04:05:00 16.3 C 12.62 g/m*3 16.3 C 0 km/h
1127 08-06-2014 04:10:00 16.3 C 12.62 g/m*3 16.3 C 0 km/h
1128 08-06-2014 04:15:00 16.2 C 12.55 g/m*3 16.2 C 0 km/h
1129 08-06-2014 04:20:00 16.2 C 12.55 g/m*3 16.2 C 0 km/h
1130 08-06-2014 04:25:00 16.2 C 12.55 g/m*3 16.2 C 0 km/h
1131 08-06-2014 04:30:00 16.2 C 12.69 g/m*3 16.2 C 0 km/h
1132 08-06-2014 04:35:00 16.2 C 12.55 g/m*3 16.2 C 0 km/h
1133 08-06-2014 04:40:00 16.2 C 12.55 g/m*3 16.2 C 0 km/h
1134 08-06-2014 04:45:00 16.2 C 12.55 g/m*3 16.2 C 0 km/h
1135 08-06-2014 04:50:00 16 C 12.4 g/m*3 16 C 0 km/h
1136 08-06-2014 04:55:00 15.9 C 12.32 g/m*3 15.9 C 0 km/h
1137 08-06-2014 05:00:00 15.8 C 12.38 g/m*3 15.8 C 0 km/h
1138 08-06-2014 05:05:00 15.8 C 12.38 g/m*3 15.8 C 0 km/h
1139 08-06-2014 05:10:00 15.8 C 12.38 g/m*3 15.8 C 1.6 km/h
1140 08-06-2014 05:15:00 15.8 C 12.38 g/m*3 15.8 C 0 km/h
1141 08-06-2014 05:20:00 15.8 C 12.38 g/m*3 15.8 C 0 km/h
1142 08-06-2014 05:25:00 15.8 C 12.38 g/m*3 15.8 C 0 km/h
1143 08-06-2014 05:30:00 15.7 C 12.31 g/m*3 15.7 C 0 km/h
1144 08-06-2014 05:35:00 15.7 C 12.31 g/m*3 15.7 C 0 km/h
1145 08-06-2014 05:40:00 15.6 C 12.23 g/m*3 15.6 C 0 km/h
1146 08-06-2014 05:45:00 15.6 C 12.37 g/m*3 15.6 C 0 km/h
1147 08-06-2014 05:50:00 15.6 C 12.37 g/m*3 15.6 C 0 km/h
1148 08-06-2014 05:55:00 15.6 C 12.37 g/m*3 15.6 C 0 km/h
1149 08-06-2014 06:00:00 15.5 C 12.29 g/m*3 15.5 C 0 km/h
1150 08-06-2014 06:05:00 15.6 C 12.37 g/m*3 15.6 C 0 km/h
Sensor: Nr:Datum:Temp:Abs-Feuchte:Windchill:Wind:
Aussen-T/F 1151 08-06-2014 06:10:00 15.6 C 12.5 g/m*3 15.6 C 0 km/h
1152 08-06-2014 06:15:00 15.7 C 12.58 g/m*3 15.7 C 0 km/h
1153 08-06-2014 06:20:00 15.8 C 12.65 g/m*3 15.8 C 0 km/h
1154 08-06-2014 06:25:00 15.9 C 12.73 g/m*3 15.9 C 0 km/h
1155 08-06-2014 06:30:00 16.1 C 12.88 g/m*3 16.1 C 0 km/h
1156 08-06-2014 06:35:00 16.2 C 12.82 g/m*3 16.2 C 0 km/h
1157 08-06-2014 06:40:00 16.4 C 12.98 g/m*3 16.4 C 0 km/h
1158 08-06-2014 06:45:00 16.5 C 13.06 g/m*3 16.5 C 0 km/h
1159 08-06-2014 06:50:00 16.6 C 13.14 g/m*3 16.6 C 0 km/h
1160 08-06-2014 06:55:00 16.8 C 13.15 g/m*3 16.8 C 0 km/h
1161 08-06-2014 07:00:00 16.9 C 13.09 g/m*3 16.9 C 0 km/h
1162 08-06-2014 07:05:00 17 C 13.02 g/m*3 17 C 0 km/h
1163 08-06-2014 07:10:00 17 C 13.02 g/m*3 17 C 0 km/h
1164 08-06-2014 07:15:00 17.1 C 13.1 g/m*3 17.1 C 0 km/h
1165 08-06-2014 07:20:00 17.1 C 13.1 g/m*3 17.1 C 0 km/h
1166 08-06-2014 07:25:00 17.1 C 13.1 g/m*3 17.1 C 0 km/h
1167 08-06-2014 07:30:00 17.2 C 13.33 g/m*3 17.2 C 0 km/h
1168 08-06-2014 07:35:00 17.2 C 13.33 g/m*3 17.2 C 0 km/h
1169 08-06-2014 07:40:00 17.2 C 13.33 g/m*3 17.2 C 0 km/h
1170 08-06-2014 07:45:00 17.3 C 13.26 g/m*3 17.3 C 1.6 km/h
1171 08-06-2014 07:50:00 17.5 C 13.42 g/m*3 17.5 C 0 km/h
1172 08-06-2014 07:55:00 17.7 C 13.58 g/m*3 17.7 C 0 km/h
1173 08-06-2014 08:00:00 18.1 C 13.75 g/m*3 18.1 C 0 km/h
1174 08-06-2014 08:05:00 18.3 C 13.76 g/m*3 18.3 C 0 km/h
1175 08-06-2014 08:10:00 18.6 C 13.85 g/m*3 18.6 C 0 km/h
Sensor: Nr:Datum:Temp:Abs-Feuchte:Windchill:Wind:
Aussen-T/F 1176 08-06-2014 08:15:00 18.8 C 14.01 g/m*3 18.8 C 0 km/h
1177 08-06-2014 08:20:00 19.1 C 13.93 g/m*3 19.1 C 0 km/h
1178 08-06-2014 08:25:00 19.2 C 14.02 g/m*3 19.2 C 0 km/h
1179 08-06-2014 08:30:00 19.4 C 14.18 g/m*3 19.4 C 0 km/h
1180 08-06-2014 08:35:00 19.7 C 14.26 g/m*3 19.7 C 0 km/h
1181 08-06-2014 08:40:00 19.9 C 14.43 g/m*3 19.9 C 0 km/h
1182 08-06-2014 08:45:00 20 C 14.17 g/m*3 20 C 0 km/h
1183 08-06-2014 08:50:00 20.1 C 14.43 g/m*3 20.1 C 0 km/h
1184 08-06-2014 08:55:00 20.1 C 14.43 g/m*3 20.1 C 0 km/h
1185 08-06-2014 09:00:00 20.4 C 14.51 g/m*3 20.4 C 0 km/h
1186 08-06-2014 09:05:00 20.6 C 14.5 g/m*3 20.6 C 0 km/h
1187 08-06-2014 09:10:00 20.6 C 14.5 g/m*3 20.6 C 0 km/h
1188 08-06-2014 09:15:00 20.6 C 14.68 g/m*3 20.6 C 0 km/h
1189 08-06-2014 09:20:00 20.4 C 14.68 g/m*3 20.4 C 0 km/h
1190 08-06-2014 09:25:00 20.3 C 14.6 g/m*3 20.3 C 0 km/h
1191 08-06-2014 09:30:00 20.3 C 14.6 g/m*3 20.3 C 0 km/h
1192 08-06-2014 09:35:00 20.3 C 14.77 g/m*3 20.3 C 0 km/h
1193 08-06-2014 09:40:00 20.4 C 14.86 g/m*3 20.4 C 0 km/h
1194 08-06-2014 09:45:00 20.5 C 14.95 g/m*3 20.5 C 0 km/h
1195 08-06-2014 09:50:00 20.8 C 15.21 g/m*3 20.8 C 0 km/h
1196 08-06-2014 09:55:00 21.1 C 15.29 g/m*3 21.1 C 0 km/h
1197 08-06-2014 10:00:00 21.6 C 15.55 g/m*3 21.6 C 0 km/h
1198 08-06-2014 10:05:00 21.9 C 15.63 g/m*3 21.9 C 0 km/h
1199 08-06-2014 10:10:00 22.2 C 15.71 g/m*3 22.2 C 0 km/h
1200 08-06-2014 10:15:00 22.4 C 15.89 g/m*3 22.4 C 0 km/h
Sensor: Nr:Datum:Temp:Abs-Feuchte:Windchill:Wind:
Aussen-T/F 1201 08-06-2014 10:20:00 22.7 C 15.96 g/m*3 22.7 C 0 km/h
1202 08-06-2014 10:25:00 22.9 C 16.14 g/m*3 22.9 C 0 km/h
1203 08-06-2014 10:30:00 22.8 C 15.85 g/m*3 22.8 C 0 km/h
1204 08-06-2014 10:35:00 22.9 C 16.14 g/m*3 22.9 C 0 km/h
1205 08-06-2014 10:40:00 23.1 C 16.33 g/m*3 23.1 C 0 km/h
1206 08-06-2014 10:45:00 23.3 C 16.52 g/m*3 23.3 C 0 km/h
1207 08-06-2014 10:50:00 23.4 C 16.4 g/m*3 23.4 C 0 km/h
1208 08-06-2014 10:55:00 23.2 C 16.22 g/m*3 23.2 C 0 km/h
1209 08-06-2014 11:00:00 23.2 C 16.22 g/m*3 23.2 C 0 km/h
1210 08-06-2014 11:05:00 23.3 C 16.1 g/m*3 23.3 C 0 km/h
1211 08-06-2014 11:10:00 23.7 C 15.4 g/m*3 23.7 C 0 km/h
1212 08-06-2014 11:15:00 24.6 C 16.43 g/m*3 24.6 C 0 km/h
1213 08-06-2014 11:20:00 25.3 C 16.86 g/m*3 25.3 C 0 km/h
1214 08-06-2014 11:25:00 25.6 C 16.19 g/m*3 25.6 C 0 km/h
1215 08-06-2014 11:30:00 25.5 C 16.1 g/m*3 25.5 C 0 km/h
1216 08-06-2014 11:35:00 25.3 C 16.62 g/m*3 25.3 C 0 km/h
1217 08-06-2014 11:40:00 25.4 C 16.24 g/m*3 25.4 C 0 km/h
1218 08-06-2014 11:45:00 25.8 C 16.61 g/m*3 25.8 C 0 km/h
1219 08-06-2014 11:50:00 25.7 C 16.28 g/m*3 25.7 C 0 km/h
1220 08-06-2014 11:55:00 25.5 C 15.86 g/m*3 25.5 C 1.6 km/h
1221 08-06-2014 12:00:00 26 C 16.55 g/m*3 26 C 4.8 km/h
1222 08-06-2014 12:05:00 26.9 C 15.87 g/m*3 26.9 C 4.8 km/h
1223 08-06-2014 12:10:00 27.7 C 15.25 g/m*3 27.7 C 4.8 km/h
1224 08-06-2014 12:15:00 28.3 C 15.48 g/m*3 28.3 C 8.1 km/h
1225 08-06-2014 12:20:00 28.8 C 14.77 g/m*3 28.8 C 6.4 km/h
Sensor: Nr:Datum:Temp:Abs-Feuchte:Windchill:Wind:
Aussen-T/F 1226 08-06-2014 12:25:00 29.2 C 16.55 g/m*3 29.2 C 3.2 km/h
1227 08-06-2014 12:30:00 29.2 C 15.97 g/m*3 29.2 C 4.8 km/h
1228 08-06-2014 12:35:00 29.1 C 14.73 g/m*3 29.1 C 6.4 km/h
1229 08-06-2014 12:40:00 29.5 C 15.64 g/m*3 29.5 C 6.4 km/h
1230 08-06-2014 12:45:00 29.7 C 14.92 g/m*3 29.7 C 1.6 km/h
1231 08-06-2014 12:50:00 29.9 C 14.78 g/m*3 29.9 C 3.2 km/h
1232 08-06-2014 12:55:00 30.1 C 14.63 g/m*3 30.1 C 4.8 km/h
1233 08-06-2014 13:00:00 30.3 C 14.49 g/m*3 30.3 C 6.4 km/h
1234 08-06-2014 13:05:00 30.6 C 14.72 g/m*3 30.6 C 6.4 km/h
1235 08-06-2014 13:10:00 30.8 C 14.88 g/m*3 30.8 C 4.8 km/h
1236 08-06-2014 13:15:00 30.8 C 14.88 g/m*3 30.8 C 6.4 km/h
1237 08-06-2014 13:20:00 30.8 C 14.56 g/m*3 30.8 C 6.4 km/h
1238 08-06-2014 13:25:00 30.9 C 16.23 g/m*3 30.9 C 6.4 km/h
1239 08-06-2014 13:30:00 31.1 C 15.44 g/m*3 31.1 C 4.8 km/h
1240 08-06-2014 13:35:00 31.2 C 14.88 g/m*3 31.2 C 8.1 km/h
1241 08-06-2014 13:40:00 31.5 C 14.79 g/m*3 31.5 C 9.7 km/h
1242 08-06-2014 13:45:00 31.6 C 14.54 g/m*3 31.6 C 9.7 km/h
1243 08-06-2014 13:50:00 31.7 C 15.95 g/m*3 31.7 C 6.4 km/h
1244 08-06-2014 13:55:00 31.9 C 15.45 g/m*3 31.9 C 4.8 km/h
1245 08-06-2014 14:00:00 32 C 15.53 g/m*3 32 C 8.1 km/h
1246 08-06-2014 14:05:00 32.2 C 15.35 g/m*3 32.2 C 3.2 km/h
1247 08-06-2014 14:10:00 32.2 C 16.04 g/m*3 32.2 C 6.4 km/h
1248 08-06-2014 14:15:00 32.3 C 15.78 g/m*3 32.3 C 9.7 km/h
1249 08-06-2014 14:20:00 32.4 C 15.86 g/m*3 32.4 C 9.7 km/h
1250 08-06-2014 14:25:00 32.3 C 16.12 g/m*3 32.3 C 11.3 km/h
Sensor: Nr:Datum:Temp:Abs-Feuchte:Windchill:Wind:
Aussen-T/F 1251 08-06-2014 14:30:00 32.3 C 15.44 g/m*3 32.3 C 8.1 km/h
1252 08-06-2014 14:35:00 32.4 C 14.83 g/m*3 32.4 C 8.1 km/h
1253 08-06-2014 14:40:00 32.7 C 14.72 g/m*3 32.7 C 6.4 km/h
1254 08-06-2014 14:45:00 32.7 C 15.77 g/m*3 32.7 C 4.8 km/h
1255 08-06-2014 14:50:00 32.8 C 14.79 g/m*3 32.8 C 4.8 km/h
1256 08-06-2014 14:55:00 32.8 C 14.09 g/m*3 32.8 C 8.1 km/h
1257 08-06-2014 15:00:00 32.5 C 14.21 g/m*3 32.5 C 4.8 km/h
1258 08-06-2014 15:05:00 32.6 C 14.64 g/m*3 32.6 C 6.4 km/h
1259 08-06-2014 15:10:00 32.8 C 14.79 g/m*3 32.8 C 6.4 km/h
1260 08-06-2014 15:15:00 33.2 C 14.75 g/m*3 33.2 C 6.4 km/h
1261 08-06-2014 15:20:00 33.6 C 14.7 g/m*3 33.6 C 4.8 km/h
1262 08-06-2014 15:25:00 33.7 C 13.67 g/m*3 33.7 C 8.1 km/h
1263 08-06-2014 15:30:00 33.6 C 14.33 g/m*3 33.6 C 8.1 km/h
1264 08-06-2014 15:35:00 33.2 C 14.39 g/m*3 33.2 C 8.1 km/h
1265 08-06-2014 15:40:00 32.8 C 15.85 g/m*3 32.8 C 0 km/h
1266 08-06-2014 15:45:00 31.7 C 16.28 g/m*3 31.7 C 1.6 km/h
1267 08-06-2014 15:50:00 30.6 C 16.91 g/m*3 30.6 C 0 km/h
1268 08-06-2014 15:55:00 29.3 C 16.93 g/m*3 29.3 C 1.6 km/h
1269 08-06-2014 16:00:00 29.2 C 16.55 g/m*3 29.2 C 6.4 km/h
1270 08-06-2014 16:05:00 30.5 C 16.51 g/m*3 30.5 C 6.4 km/h
1271 08-06-2014 16:10:00 31.1 C 16.09 g/m*3 31.1 C 11.3 km/h
1272 08-06-2014 16:15:00 31.8 C 16.37 g/m*3 31.8 C 14.5 km/h
1273 08-06-2014 16:20:00 32.4 C 15.86 g/m*3 32.4 C 11.3 km/h
1274 08-06-2014 16:25:00 32.7 C 17.17 g/m*3 32.7 C 8.1 km/h
1275 08-06-2014 16:30:00 32.8 C 16.55 g/m*3 32.8 C 11.3 km/h
Sensor: Nr:Datum:Temp:Abs-Feuchte:Windchill:Wind:
Aussen-T/F 1276 08-06-2014 16:35:00 32.7 C 15.77 g/m*3 32.7 C 8.1 km/h
1277 08-06-2014 16:40:00 32.4 C 16.21 g/m*3 32.4 C 8.1 km/h
1278 08-06-2014 16:45:00 32.5 C 15.95 g/m*3 32.5 C 8.1 km/h
1279 08-06-2014 16:50:00 32.9 C 15.58 g/m*3 32.9 C 6.4 km/h
1280 08-06-2014 16:55:00 32.9 C 16.29 g/m*3 32.9 C 9.7 km/h
1281 08-06-2014 17:00:00 33.1 C 17.18 g/m*3 33.1 C 9.7 km/h
1282 08-06-2014 17:05:00 33.6 C 16.53 g/m*3 33.6 C 4.8 km/h
1283 08-06-2014 17:10:00 33.7 C 15.51 g/m*3 33.7 C 6.4 km/h
1284 08-06-2014 17:15:00 33.6 C 16.17 g/m*3 33.6 C 6.4 km/h
1285 08-06-2014 17:20:00 33.9 C 16.05 g/m*3 33.9 C 8.1 km/h
1286 08-06-2014 17:25:00 34 C 16.51 g/m*3 34 C 4.8 km/h
1287 08-06-2014 17:30:00 33.8 C 16.71 g/m*3 33.8 C 4.8 km/h
1288 08-06-2014 17:35:00 33.6 C 16.9 g/m*3 33.6 C 6.4 km/h
1289 08-06-2014 17:40:00 33.5 C 14.98 g/m*3 33.5 C 4.8 km/h
1290 08-06-2014 17:45:00 33.4 C 14.91 g/m*3 33.4 C 3.2 km/h
1291 08-06-2014 17:50:00 33.6 C 17.64 g/m*3 33.6 C 6.4 km/h
1292 08-06-2014 17:55:00 33.7 C 15.51 g/m*3 33.7 C 6.4 km/h
1293 08-06-2014 18:00:00 33.7 C 15.88 g/m*3 33.7 C 9.7 km/h
1294 08-06-2014 18:05:00 33.6 C 15.8 g/m*3 33.6 C 6.4 km/h
1295 08-06-2014 18:10:00 33.4 C 16 g/m*3 33.4 C 6.4 km/h
1296 08-06-2014 18:15:00 33.5 C 16.81 g/m*3 33.5 C 8.1 km/h
1297 08-06-2014 18:20:00 33.6 C 15.8 g/m*3 33.6 C 4.8 km/h
1298 08-06-2014 18:25:00 33.6 C 16.53 g/m*3 33.6 C 6.4 km/h
1299 08-06-2014 18:30:00 33.4 C 15.63 g/m*3 33.4 C 8.1 km/h
1300 08-06-2014 18:35:00 33.4 C 15.27 g/m*3 33.4 C 3.2 km/h
Sensor: Nr:Datum:Temp:Abs-Feuchte:Windchill:Wind:
Aussen-T/F 1301 08-06-2014 18:40:00 33.4 C 15.63 g/m*3 33.4 C 6.4 km/h
1302 08-06-2014 18:45:00 33.4 C 16.36 g/m*3 33.4 C 9.7 km/h
1303 08-06-2014 18:50:00 33.2 C 16.91 g/m*3 33.2 C 11.3 km/h
1304 08-06-2014 18:55:00 33 C 16.02 g/m*3 33 C 8.1 km/h
1305 08-06-2014 19:00:00 32.8 C 16.2 g/m*3 32.8 C 9.7 km/h
1306 08-06-2014 19:05:00 32.5 C 16.29 g/m*3 32.5 C 8.1 km/h
1307 08-06-2014 19:10:00 32.3 C 16.81 g/m*3 32.3 C 8.1 km/h
1308 08-06-2014 19:15:00 32.1 C 16.29 g/m*3 32.1 C 9.7 km/h
1309 08-06-2014 19:20:00 31.8 C 16.7 g/m*3 31.8 C 8.1 km/h
1310 08-06-2014 19:25:00 31.6 C 16.52 g/m*3 31.6 C 4.8 km/h
1311 08-06-2014 19:30:00 31.3 C 16.59 g/m*3 31.3 C 8.1 km/h
1312 08-06-2014 19:35:00 31.1 C 16.41 g/m*3 31.1 C 6.4 km/h
1313 08-06-2014 19:40:00 30.8 C 16.15 g/m*3 30.8 C 8.1 km/h
1314 08-06-2014 19:45:00 30.6 C 16.6 g/m*3 30.6 C 8.1 km/h
1315 08-06-2014 19:50:00 30.4 C 16.42 g/m*3 30.4 C 6.4 km/h
1316 08-06-2014 19:55:00 30.4 C 16.42 g/m*3 30.4 C 6.4 km/h
1317 08-06-2014 20:00:00 30.3 C 16.64 g/m*3 30.3 C 4.8 km/h
1318 08-06-2014 20:05:00 30.2 C 16.86 g/m*3 30.2 C 6.4 km/h
1319 08-06-2014 20:10:00 30.1 C 16.46 g/m*3 30.1 C 6.4 km/h
1320 08-06-2014 20:15:00 29.8 C 16.2 g/m*3 29.8 C 8.1 km/h
1321 08-06-2014 20:20:00 29.6 C 16.02 g/m*3 29.6 C 9.7 km/h
1322 08-06-2014 20:25:00 29.4 C 16.15 g/m*3 29.4 C 8.1 km/h
1323 08-06-2014 20:30:00 29.2 C 16.26 g/m*3 29.2 C 8.1 km/h
1324 08-06-2014 20:35:00 28.9 C 16 g/m*3 28.9 C 6.4 km/h
1325 08-06-2014 20:40:00 28.7 C 16.11 g/m*3 28.7 C 8.1 km/h
Sensor: Nr:Datum:Temp:Abs-Feuchte:Windchill:Wind:
Aussen-T/F 1326 08-06-2014 20:45:00 28.5 C 16.21 g/m*3 28.5 C 8.1 km/h
1327 08-06-2014 20:50:00 28.3 C 16.03 g/m*3 28.3 C 9.7 km/h
1328 08-06-2014 20:55:00 28.1 C 16.13 g/m*3 28.1 C 6.4 km/h
1329 08-06-2014 21:00:00 27.7 C 17.12 g/m*3 27.7 C 8.1 km/h
1330 08-06-2014 21:05:00 26.9 C 16.89 g/m*3 26.9 C 1.6 km/h
1331 08-06-2014 21:10:00 26.1 C 16.89 g/m*3 26.1 C 0 km/h
1332 08-06-2014 21:15:00 25.5 C 16.81 g/m*3 25.5 C 0 km/h
1333 08-06-2014 21:20:00 25.1 C 16.67 g/m*3 25.1 C 0 km/h
1334 08-06-2014 21:25:00 24.9 C 16.71 g/m*3 24.9 C 0 km/h
1335 08-06-2014 21:30:00 24.7 C 16.75 g/m*3 24.7 C 0 km/h
1336 08-06-2014 21:35:00 24.4 C 16.69 g/m*3 24.4 C 0 km/h
1337 08-06-2014 21:40:00 24.2 C 16.72 g/m*3 24.2 C 1.6 km/h
1338 08-06-2014 21:45:00 23.9 C 16.44 g/m*3 23.9 C 1.6 km/h
1339 08-06-2014 21:50:00 23.8 C 16.56 g/m*3 23.8 C 0 km/h
1340 08-06-2014 21:55:00 23.8 C 16.78 g/m*3 23.8 C 0 km/h
1341 08-06-2014 22:00:00 23.7 C 16.68 g/m*3 23.7 C 1.6 km/h
1342 08-06-2014 22:05:00 23.5 C 16.71 g/m*3 23.5 C 0 km/h
1343 08-06-2014 22:10:00 23.4 C 16.61 g/m*3 23.4 C 0 km/h
1344 08-06-2014 22:15:00 23.3 C 16.73 g/m*3 23.3 C 0 km/h
1345 08-06-2014 22:20:00 23.2 C 16.63 g/m*3 23.2 C 0 km/h
1346 08-06-2014 22:25:00 23.1 C 16.54 g/m*3 23.1 C 0 km/h
1347 08-06-2014 22:30:00 23.2 C 16.63 g/m*3 23.2 C 1.6 km/h
1348 08-06-2014 22:35:00 23.1 C 16.54 g/m*3 23.1 C 0 km/h
1349 08-06-2014 22:40:00 23 C 16.65 g/m*3 23 C 1.6 km/h
1350 08-06-2014 22:45:00 22.9 C 16.55 g/m*3 22.9 C 0 km/h
Sensor: Nr:Datum:Temp:Abs-Feuchte:Windchill:Wind:
Aussen-T/F 1351 08-06-2014 22:50:00 22.8 C 16.66 g/m*3 22.8 C 0 km/h
1352 08-06-2014 22:55:00 22.7 C 16.57 g/m*3 22.7 C 0 km/h
1353 08-06-2014 23:00:00 22.6 C 16.47 g/m*3 22.6 C 0 km/h
1354 08-06-2014 23:05:00 22.5 C 16.38 g/m*3 22.5 C 0 km/h
1355 08-06-2014 23:10:00 22.4 C 16.28 g/m*3 22.4 C 0 km/h
1356 08-06-2014 23:15:00 22.3 C 16.39 g/m*3 22.3 C 0 km/h
1357 08-06-2014 23:20:00 22.3 C 16.39 g/m*3 22.3 C 0 km/h
1358 08-06-2014 23:25:00 22.2 C 16.3 g/m*3 22.2 C 0 km/h
1359 08-06-2014 23:30:00 22.2 C 16.3 g/m*3 22.2 C 0 km/h
1360 08-06-2014 23:35:00 22.1 C 16.4 g/m*3 22.1 C 0 km/h
1361 08-06-2014 23:40:00 21.9 C 16.21 g/m*3 21.9 C 0 km/h
1362 08-06-2014 23:45:00 21.9 C 16.21 g/m*3 21.9 C 0 km/h
1363 08-06-2014 23:50:00 21.8 C 16.12 g/m*3 21.8 C 0 km/h
1364 08-06-2014 23:55:00 21.7 C 16.21 g/m*3 21.7 C 0 km/h
1365 09-06-2014 00:00:00 21.7 C 16.21 g/m*3 21.7 C 1.6 km/h
1366 09-06-2014 00:05:00 21.6 C 16.12 g/m*3 21.6 C 0 km/h
1367 09-06-2014 00:10:00 21.5 C 16.03 g/m*3 21.5 C 0 km/h
1368 09-06-2014 00:15:00 21.4 C 16.12 g/m*3 21.4 C 0 km/h
1369 09-06-2014 00:20:00 21.4 C 16.12 g/m*3 21.4 C 0 km/h
1370 09-06-2014 00:25:00 21.3 C 16.03 g/m*3 21.3 C 0 km/h
1371 09-06-2014 00:30:00 21.2 C 15.94 g/m*3 21.2 C 0 km/h
1372 09-06-2014 00:35:00 21.2 C 15.94 g/m*3 21.2 C 0 km/h
1373 09-06-2014 00:40:00 21.1 C 15.85 g/m*3 21.1 C 1.6 km/h
1374 09-06-2014 00:45:00 20.9 C 15.66 g/m*3 20.9 C 0 km/h
1375 09-06-2014 00:50:00 20.8 C 15.75 g/m*3 20.8 C 0 km/h
Sensor: Nr:Datum:Temp:Abs-Feuchte:Windchill:Wind:
Aussen-T/F 1376 09-06-2014 00:55:00 20.7 C 15.66 g/m*3 20.7 C 0 km/h
1377 09-06-2014 01:00:00 20.7 C 15.66 g/m*3 20.7 C 0 km/h
1378 09-06-2014 01:05:00 20.6 C 15.57 g/m*3 20.6 C 0 km/h
1379 09-06-2014 01:10:00 20.5 C 15.66 g/m*3 20.5 C 0 km/h
1380 09-06-2014 01:15:00 20.4 C 15.57 g/m*3 20.4 C 0 km/h
1381 09-06-2014 01:20:00 20.3 C 15.48 g/m*3 20.3 C 0 km/h
1382 09-06-2014 01:25:00 20.3 C 15.48 g/m*3 20.3 C 0 km/h
1383 09-06-2014 01:30:00 20.3 C 15.48 g/m*3 20.3 C 0 km/h
1384 09-06-2014 01:35:00 20.3 C 15.65 g/m*3 20.3 C 0 km/h
1385 09-06-2014 01:40:00 20.2 C 15.39 g/m*3 20.2 C 0 km/h
1386 09-06-2014 01:45:00 20.1 C 15.47 g/m*3 20.1 C 0 km/h
1387 09-06-2014 01:50:00 20.1 C 15.47 g/m*3 20.1 C 0 km/h
1388 09-06-2014 01:55:00 20 C 15.38 g/m*3 20 C 0 km/h
1389 09-06-2014 02:00:00 19.9 C 15.29 g/m*3 19.9 C 0 km/h
1390 09-06-2014 02:05:00 19.8 C 15.37 g/m*3 19.8 C 0 km/h
1391 09-06-2014 02:10:00 19.8 C 15.37 g/m*3 19.8 C 0 km/h
1392 09-06-2014 02:15:00 19.7 C 15.28 g/m*3 19.7 C 0 km/h
1393 09-06-2014 02:20:00 19.7 C 15.28 g/m*3 19.7 C 0 km/h
1394 09-06-2014 02:25:00 19.7 C 15.28 g/m*3 19.7 C 1.6 km/h
1395 09-06-2014 02:30:00 19.7 C 15.45 g/m*3 19.7 C 1.6 km/h
1396 09-06-2014 02:35:00 19.7 C 15.45 g/m*3 19.7 C 0 km/h
1397 09-06-2014 02:40:00 19.7 C 15.45 g/m*3 19.7 C 0 km/h
1398 09-06-2014 02:45:00 19.7 C 15.28 g/m*3 19.7 C 0 km/h
1399 09-06-2014 02:50:00 19.7 C 15.45 g/m*3 19.7 C 0 km/h
1400 09-06-2014 02:55:00 19.7 C 15.45 g/m*3 19.7 C 0 km/h
Sensor: Nr:Datum:Temp:Abs-Feuchte:Windchill:Wind:
Aussen-T/F 1401 09-06-2014 03:00:00 19.6 C 15.36 g/m*3 19.6 C 0 km/h
1402 09-06-2014 03:05:00 19.6 C 15.36 g/m*3 19.6 C 0 km/h
1403 09-06-2014 03:10:00 19.6 C 15.53 g/m*3 19.6 C 0 km/h
1404 09-06-2014 03:15:00 19.6 C 15.53 g/m*3 19.6 C 0 km/h
1405 09-06-2014 03:20:00 19.6 C 15.53 g/m*3 19.6 C 0 km/h
1406 09-06-2014 03:25:00 19.4 C 15.35 g/m*3 19.4 C 0 km/h
1407 09-06-2014 03:30:00 19.4 C 15.35 g/m*3 19.4 C 0 km/h
1408 09-06-2014 03:35:00 19.3 C 15.26 g/m*3 19.3 C 0 km/h
1409 09-06-2014 03:40:00 19.3 C 15.26 g/m*3 19.3 C 0 km/h
1410 09-06-2014 03:45:00 19.4 C 15.35 g/m*3 19.4 C 0 km/h
1411 09-06-2014 03:50:00 19.3 C 15.26 g/m*3 19.3 C 0 km/h
1412 09-06-2014 03:55:00 19.4 C 15.35 g/m*3 19.4 C 1.6 km/h
1413 09-06-2014 04:00:00 19.4 C 15.35 g/m*3 19.4 C 1.6 km/h
1414 09-06-2014 04:05:00 19.4 C 15.35 g/m*3 19.4 C 0 km/h
1415 09-06-2014 04:10:00 19.4 C 15.35 g/m*3 19.4 C 3.2 km/h
1416 09-06-2014 04:15:00 19.4 C 15.35 g/m*3 19.4 C 0 km/h
1417 09-06-2014 04:20:00 19.5 C 15.44 g/m*3 19.5 C 1.6 km/h
1418 09-06-2014 04:25:00 19.6 C 15.53 g/m*3 19.6 C 1.6 km/h
1419 09-06-2014 04:30:00 19.6 C 15.36 g/m*3 19.6 C 0 km/h
1420 09-06-2014 04:35:00 19.6 C 15.19 g/m*3 19.6 C 0 km/h
1421 09-06-2014 04:40:00 19.6 C 15.19 g/m*3 19.6 C 1.6 km/h
1422 09-06-2014 04:45:00 19.5 C 15.1 g/m*3 19.5 C 1.6 km/h
1423 09-06-2014 04:50:00 19.6 C 15.19 g/m*3 19.6 C 8.1 km/h
1424 09-06-2014 04:55:00 19.8 C 15.2 g/m*3 19.8 C 8.1 km/h
1425 09-06-2014 05:00:00 19.7 C 15.11 g/m*3 19.7 C 0 km/h
Sensor: Nr:Datum:Temp:Abs-Feuchte:Windchill:Wind:
Aussen-T/F 1426 09-06-2014 05:05:00 19.5 C 14.94 g/m*3 19.5 C 0 km/h
1427 09-06-2014 05:10:00 19.4 C 15.02 g/m*3 19.4 C 0 km/h
1428 09-06-2014 05:15:00 19.3 C 14.93 g/m*3 19.3 C 0 km/h
1429 09-06-2014 05:20:00 19.1 C 14.75 g/m*3 19.1 C 0 km/h
1430 09-06-2014 05:25:00 19 C 14.83 g/m*3 19 C 0 km/h
1431 09-06-2014 05:30:00 18.9 C 14.74 g/m*3 18.9 C 0 km/h
1432 09-06-2014 05:35:00 18.8 C 14.66 g/m*3 18.8 C 0 km/h
1433 09-06-2014 05:40:00 18.8 C 14.82 g/m*3 18.8 C 0 km/h
1434 09-06-2014 05:45:00 18.7 C 14.73 g/m*3 18.7 C 0 km/h
1435 09-06-2014 05:50:00 18.7 C 14.73 g/m*3 18.7 C 0 km/h
1436 09-06-2014 05:55:00 18.7 C 14.73 g/m*3 18.7 C 0 km/h
1437 09-06-2014 06:00:00 18.7 C 14.73 g/m*3 18.7 C 0 km/h
1438 09-06-2014 06:05:00 18.6 C 14.64 g/m*3 18.6 C 0 km/h
1439 09-06-2014 06:10:00 18.6 C 14.64 g/m*3 18.6 C 0 km/h
1440 09-06-2014 06:15:00 18.6 C 14.64 g/m*3 18.6 C 0 km/h
1441 09-06-2014 06:20:00 18.6 C 14.64 g/m*3 18.6 C 0 km/h
1442 09-06-2014 06:25:00 18.6 C 14.64 g/m*3 18.6 C 0 km/h
1443 09-06-2014 06:30:00 18.6 C 14.8 g/m*3 18.6 C 0 km/h
1444 09-06-2014 06:35:00 18.6 C 14.8 g/m*3 18.6 C 0 km/h
1445 09-06-2014 06:40:00 18.6 C 14.8 g/m*3 18.6 C 0 km/h
1446 09-06-2014 06:45:00 18.6 C 14.8 g/m*3 18.6 C 0 km/h
1447 09-06-2014 06:50:00 18.7 C 14.89 g/m*3 18.7 C 1.6 km/h
1448 09-06-2014 06:55:00 18.7 C 14.89 g/m*3 18.7 C 0 km/h
1449 09-06-2014 07:00:00 18.8 C 14.98 g/m*3 18.8 C 0 km/h
1450 09-06-2014 07:05:00 18.8 C 14.98 g/m*3 18.8 C 0 km/h
Sensor: Nr:Datum:Temp:Abs-Feuchte:Windchill:Wind:
Aussen-T/F 1451 09-06-2014 07:10:00 18.8 C 14.98 g/m*3 18.8 C 0 km/h
1452 09-06-2014 07:15:00 18.8 C 14.98 g/m*3 18.8 C 0 km/h
1453 09-06-2014 07:20:00 18.9 C 15.07 g/m*3 18.9 C 0 km/h
1454 09-06-2014 07:25:00 19 C 15.16 g/m*3 19 C 0 km/h
1455 09-06-2014 07:30:00 19.1 C 15.25 g/m*3 19.1 C 0 km/h
1456 09-06-2014 07:35:00 19.2 C 15.34 g/m*3 19.2 C 0 km/h
1457 09-06-2014 07:40:00 19.3 C 15.43 g/m*3 19.3 C 0 km/h
1458 09-06-2014 07:45:00 19.3 C 15.43 g/m*3 19.3 C 0 km/h
1459 09-06-2014 07:50:00 19.4 C 15.52 g/m*3 19.4 C 0 km/h
1460 09-06-2014 07:55:00 19.7 C 15.79 g/m*3 19.7 C 0 km/h
1461 09-06-2014 08:00:00 19.9 C 15.81 g/m*3 19.9 C 0 km/h
1462 09-06-2014 08:05:00 20.2 C 15.91 g/m*3 20.2 C 0 km/h
1463 09-06-2014 08:10:00 20.5 C 16.01 g/m*3 20.5 C 0 km/h
1464 09-06-2014 08:15:00 20.7 C 16.02 g/m*3 20.7 C 0 km/h
1465 09-06-2014 08:20:00 20.9 C 16.03 g/m*3 20.9 C 0 km/h
1466 09-06-2014 08:25:00 21.2 C 16.31 g/m*3 21.2 C 0 km/h
1467 09-06-2014 08:30:00 21.4 C 16.5 g/m*3 21.4 C 0 km/h
1468 09-06-2014 08:35:00 21.6 C 16.31 g/m*3 21.6 C 0 km/h
1469 09-06-2014 08:40:00 21.8 C 16.5 g/m*3 21.8 C 0 km/h
1470 09-06-2014 08:45:00 21.9 C 16.6 g/m*3 21.9 C 0 km/h
1471 09-06-2014 08:50:00 21.9 C 16.4 g/m*3 21.9 C 0 km/h
1472 09-06-2014 08:55:00 22.1 C 16.79 g/m*3 22.1 C 0 km/h
1473 09-06-2014 09:00:00 22.4 C 17.08 g/m*3 22.4 C 0 km/h
1474 09-06-2014 09:05:00 22.7 C 16.77 g/m*3 22.7 C 4.8 km/h
1475 09-06-2014 09:10:00 23.2 C 16.84 g/m*3 23.2 C 4.8 km/h
Sensor: Nr:Datum:Temp:Abs-Feuchte:Windchill:Wind:
Aussen-T/F 1476 09-06-2014 09:15:00 23.6 C 17.23 g/m*3 23.6 C 3.2 km/h
1477 09-06-2014 09:20:00 23.7 C 16.9 g/m*3 23.7 C 1.6 km/h
1478 09-06-2014 09:25:00 23.7 C 17.11 g/m*3 23.7 C 3.2 km/h
1479 09-06-2014 09:30:00 23.4 C 16.82 g/m*3 23.4 C 9.7 km/h
1480 09-06-2014 09:35:00 23.6 C 16.8 g/m*3 23.6 C 9.7 km/h
1481 09-06-2014 09:40:00 23.9 C 16.66 g/m*3 23.9 C 1.6 km/h
1482 09-06-2014 09:45:00 24.2 C 16.72 g/m*3 24.2 C 6.4 km/h
1483 09-06-2014 09:50:00 24.4 C 16.91 g/m*3 24.4 C 4.8 km/h
1484 09-06-2014 09:55:00 24.8 C 17.07 g/m*3 24.8 C 8.1 km/h
1485 09-06-2014 10:00:00 25.2 C 16.76 g/m*3 25.2 C 4.8 km/h
1486 09-06-2014 10:05:00 25.6 C 16.9 g/m*3 25.6 C 3.2 km/h
1487 09-06-2014 10:10:00 25.9 C 16.95 g/m*3 25.9 C 9.7 km/h
1488 09-06-2014 10:15:00 26.3 C 17.08 g/m*3 26.3 C 8.1 km/h
1489 09-06-2014 10:20:00 26.5 C 17.02 g/m*3 26.5 C 6.4 km/h
1490 09-06-2014 10:25:00 26.7 C 16.96 g/m*3 26.7 C 8.1 km/h
1491 09-06-2014 10:30:00 26.7 C 16.71 g/m*3 26.7 C 6.4 km/h
1492 09-06-2014 10:35:00 26.8 C 17.05 g/m*3 26.8 C 8.1 km/h
1493 09-06-2014 10:40:00 26.9 C 16.89 g/m*3 26.9 C 6.4 km/h
1494 09-06-2014 10:45:00 27.1 C 17.08 g/m*3 27.1 C 6.4 km/h
1495 09-06-2014 10:50:00 27.1 C 16.82 g/m*3 27.1 C 12.9 km/h
1496 09-06-2014 10:55:00 27.2 C 16.39 g/m*3 27.2 C 6.4 km/h
1497 09-06-2014 11:00:00 27.4 C 16.84 g/m*3 27.4 C 6.4 km/h
1498 09-06-2014 11:05:00 27.6 C 16.76 g/m*3 27.6 C 6.4 km/h
1499 09-06-2014 11:10:00 27.8 C 17.21 g/m*3 27.8 C 9.7 km/h
1500 09-06-2014 11:15:00 28.1 C 17.23 g/m*3 28.1 C 6.4 km/h
Sensor: Nr:Datum:Temp:Abs-Feuchte:Windchill:Wind:
Aussen-T/F 1501 09-06-2014 11:20:00 28.2 C 17.32 g/m*3 28.2 C 9.7 km/h
1502 09-06-2014 11:25:00 28.4 C 17.51 g/m*3 28.4 C 4.8 km/h
1503 09-06-2014 11:30:00 28.4 C 17.51 g/m*3 28.4 C 4.8 km/h
1504 09-06-2014 11:35:00 28.6 C 17.99 g/m*3 28.6 C 4.8 km/h
1505 09-06-2014 11:40:00 28.9 C 17.43 g/m*3 28.9 C 6.4 km/h
1506 09-06-2014 11:45:00 29.2 C 17.42 g/m*3 29.2 C 8.1 km/h
1507 09-06-2014 11:50:00 29.3 C 17.81 g/m*3 29.3 C 8.1 km/h
1508 09-06-2014 11:55:00 29.6 C 18.1 g/m*3 29.6 C 6.4 km/h
1509 09-06-2014 12:00:00 29.8 C 18 g/m*3 29.8 C 6.4 km/h
1510 09-06-2014 12:05:00 30 C 17.89 g/m*3 30 C 11.3 km/h
1511 09-06-2014 12:10:00 30.2 C 17.47 g/m*3 30.2 C 8.1 km/h
1512 09-06-2014 12:15:00 30.2 C 18.09 g/m*3 30.2 C 8.1 km/h
1513 09-06-2014 12:20:00 30.2 C 17.78 g/m*3 30.2 C 9.7 km/h
1514 09-06-2014 12:25:00 30.2 C 18.39 g/m*3 30.2 C 9.7 km/h
1515 09-06-2014 12:30:00 30.3 C 17.88 g/m*3 30.3 C 9.7 km/h
1516 09-06-2014 12:35:00 30.4 C 17.66 g/m*3 30.4 C 8.1 km/h
1517 09-06-2014 12:40:00 30.5 C 18.07 g/m*3 30.5 C 11.3 km/h
1518 09-06-2014 12:45:00 30.7 C 17.95 g/m*3 30.7 C 8.1 km/h
1519 09-06-2014 12:50:00 30.8 C 17.73 g/m*3 30.8 C 9.7 km/h
1520 09-06-2014 12:55:00 31 C 17.92 g/m*3 31 C 9.7 km/h
1521 09-06-2014 13:00:00 31.2 C 17.79 g/m*3 31.2 C 8.1 km/h
1522 09-06-2014 13:05:00 31.5 C 17.75 g/m*3 31.5 C 12.9 km/h
1523 09-06-2014 13:10:00 31.5 C 18.08 g/m*3 31.5 C 12.9 km/h
1524 09-06-2014 13:15:00 31.7 C 17.28 g/m*3 31.7 C 12.9 km/h
1525 09-06-2014 13:20:00 32 C 17.89 g/m*3 32 C 11.3 km/h
Sensor: Nr:Datum:Temp:Abs-Feuchte:Windchill:Wind:
Aussen-T/F 1526 09-06-2014 13:25:00 32.2 C 17.4 g/m*3 32.2 C 8.1 km/h
1527 09-06-2014 13:30:00 32.5 C 18.37 g/m*3 32.5 C 6.4 km/h
1528 09-06-2014 13:35:00 32.7 C 17.52 g/m*3 32.7 C 11.3 km/h
1529 09-06-2014 13:40:00 32.9 C 17.35 g/m*3 32.9 C 8.1 km/h
1530 09-06-2014 13:45:00 33 C 17.44 g/m*3 33 C 4.8 km/h
1531 09-06-2014 13:50:00 33.1 C 17.54 g/m*3 33.1 C 6.4 km/h
1532 09-06-2014 13:55:00 33.3 C 17.36 g/m*3 33.3 C 9.7 km/h
1533 09-06-2014 14:00:00 33.3 C 17.72 g/m*3 33.3 C 12.9 km/h
1534 09-06-2014 14:05:00 33 C 17.09 g/m*3 33 C 9.7 km/h
1535 09-06-2014 14:10:00 33.3 C 17.72 g/m*3 33.3 C 6.4 km/h
1536 09-06-2014 14:15:00 33.5 C 17.91 g/m*3 33.5 C 9.7 km/h
1537 09-06-2014 14:20:00 33.6 C 16.9 g/m*3 33.6 C 8.1 km/h
1538 09-06-2014 14:25:00 33.7 C 17.73 g/m*3 33.7 C 8.1 km/h
1539 09-06-2014 14:30:00 33.8 C 17.82 g/m*3 33.8 C 6.4 km/h
1540 09-06-2014 14:35:00 33.8 C 17.82 g/m*3 33.8 C 9.7 km/h
1541 09-06-2014 14:40:00 33.8 C 17.82 g/m*3 33.8 C 8.1 km/h
1542 09-06-2014 14:45:00 33.9 C 17.54 g/m*3 33.9 C 9.7 km/h
1543 09-06-2014 14:50:00 34.2 C 17.44 g/m*3 34.2 C 9.7 km/h
1544 09-06-2014 14:55:00 34.2 C 16.68 g/m*3 34.2 C 9.7 km/h
1545 09-06-2014 15:00:00 34.2 C 17.06 g/m*3 34.2 C 6.4 km/h
1546 09-06-2014 15:05:00 34.2 C 17.44 g/m*3 34.2 C 11.3 km/h
1547 09-06-2014 15:10:00 34.3 C 17.15 g/m*3 34.3 C 11.3 km/h
1548 09-06-2014 15:15:00 34.2 C 17.06 g/m*3 34.2 C 14.5 km/h
1549 09-06-2014 15:20:00 34.1 C 16.6 g/m*3 34.1 C 9.7 km/h
1550 09-06-2014 15:25:00 34.2 C 17.44 g/m*3 34.2 C 9.7 km/h
Sensor: Nr:Datum:Temp:Abs-Feuchte:Windchill:Wind:
Aussen-T/F 1551 09-06-2014 15:30:00 34.4 C 17.62 g/m*3 34.4 C 9.7 km/h
1552 09-06-2014 15:35:00 34.4 C 17.24 g/m*3 34.4 C 8.1 km/h
1553 09-06-2014 15:40:00 34.4 C 16.09 g/m*3 34.4 C 6.4 km/h
1554 09-06-2014 15:45:00 34.6 C 15.87 g/m*3 34.6 C 11.3 km/h
1555 09-06-2014 15:50:00 34.6 C 16.26 g/m*3 34.6 C 8.1 km/h
1556 09-06-2014 15:55:00 34.7 C 16.35 g/m*3 34.7 C 4.8 km/h
1557 09-06-2014 16:00:00 34.8 C 16.04 g/m*3 34.8 C 11.3 km/h
1558 09-06-2014 16:05:00 34.8 C 16.04 g/m*3 34.8 C 8.1 km/h
1559 09-06-2014 16:10:00 34.9 C 16.52 g/m*3 34.9 C 6.4 km/h
1560 09-06-2014 16:15:00 34.8 C 15.65 g/m*3 34.8 C 8.1 km/h
1561 09-06-2014 16:20:00 34.7 C 15.18 g/m*3 34.7 C 8.1 km/h
1562 09-06-2014 16:25:00 34.8 C 15.65 g/m*3 34.8 C 4.8 km/h
1563 09-06-2014 16:30:00 34.8 C 15.26 g/m*3 34.8 C 4.8 km/h
1564 09-06-2014 16:35:00 34.8 C 15.26 g/m*3 34.8 C 6.4 km/h
1565 09-06-2014 16:40:00 34.9 C 16.91 g/m*3 34.9 C 4.8 km/h
1566 09-06-2014 16:45:00 35.1 C 16.29 g/m*3 35.1 C 4.8 km/h
1567 09-06-2014 16:50:00 35.1 C 16.69 g/m*3 35.1 C 6.4 km/h
1568 09-06-2014 16:55:00 34.8 C 16.82 g/m*3 34.8 C 3.2 km/h
1569 09-06-2014 17:00:00 34.7 C 17.51 g/m*3 34.7 C 8.1 km/h
1570 09-06-2014 17:05:00 35 C 17.39 g/m*3 35 C 8.1 km/h
1571 09-06-2014 17:10:00 35.3 C 17.67 g/m*3 35.3 C 9.7 km/h
1572 09-06-2014 17:15:00 35 C 16.6 g/m*3 35 C 6.4 km/h
1573 09-06-2014 17:20:00 35.2 C 16.38 g/m*3 35.2 C 8.1 km/h
1574 09-06-2014 17:25:00 35.2 C 16.78 g/m*3 35.2 C 6.4 km/h
1575 09-06-2014 17:30:00 35.2 C 17.18 g/m*3 35.2 C 6.4 km/h
Sensor: Nr:Datum:Temp:Abs-Feuchte:Windchill:Wind:
Aussen-T/F 1576 09-06-2014 17:35:00 35.1 C 17.48 g/m*3 35.1 C 3.2 km/h
1577 09-06-2014 17:40:00 35.1 C 17.09 g/m*3 35.1 C 6.4 km/h
1578 09-06-2014 17:45:00 35.2 C 17.18 g/m*3 35.2 C 12.9 km/h
1579 09-06-2014 17:50:00 35.2 C 17.18 g/m*3 35.2 C 8.1 km/h
1580 09-06-2014 17:55:00 35.3 C 16.46 g/m*3 35.3 C 4.8 km/h
1581 09-06-2014 18:00:00 35.4 C 17.36 g/m*3 35.4 C 8.1 km/h
1582 09-06-2014 18:05:00 35.3 C 16.46 g/m*3 35.3 C 6.4 km/h
1583 09-06-2014 18:10:00 35.2 C 16.38 g/m*3 35.2 C 8.1 km/h
1584 09-06-2014 18:15:00 35.2 C 16.38 g/m*3 35.2 C 11.3 km/h
1585 09-06-2014 18:20:00 35 C 16.6 g/m*3 35 C 16.1 km/h
1586 09-06-2014 18:25:00 34.8 C 16.43 g/m*3 34.8 C 16.1 km/h
1587 09-06-2014 18:30:00 34.8 C 16.43 g/m*3 34.8 C 9.7 km/h
1588 09-06-2014 18:35:00 34.8 C 16.43 g/m*3 34.8 C 9.7 km/h
1589 09-06-2014 18:40:00 34.8 C 16.43 g/m*3 34.8 C 9.7 km/h
1590 09-06-2014 18:45:00 34.6 C 17.42 g/m*3 34.6 C 11.3 km/h
1591 09-06-2014 18:50:00 34.2 C 18.2 g/m*3 34.2 C 11.3 km/h
1592 09-06-2014 18:55:00 33.9 C 17.54 g/m*3 33.9 C 9.7 km/h
1593 09-06-2014 19:00:00 33.5 C 17.54 g/m*3 33.5 C 12.9 km/h
1594 09-06-2014 19:05:00 33.4 C 17.45 g/m*3 33.4 C 11.3 km/h
1595 09-06-2014 19:10:00 33.3 C 17.72 g/m*3 33.3 C 9.7 km/h
1596 09-06-2014 19:15:00 33.1 C 18.25 g/m*3 33.1 C 4.8 km/h
1597 09-06-2014 19:20:00 32.9 C 17.7 g/m*3 32.9 C 6.4 km/h
1598 09-06-2014 19:25:00 32.7 C 18.57 g/m*3 32.7 C 3.2 km/h
1599 09-06-2014 19:30:00 32.4 C 17.93 g/m*3 32.4 C 3.2 km/h
1600 09-06-2014 19:35:00 32.2 C 19.11 g/m*3 32.2 C 3.2 km/h
Sensor: Nr:Datum:Temp:Abs-Feuchte:Windchill:Wind:
Aussen-T/F 1601 09-06-2014 19:40:00 31.2 C 18.76 g/m*3 31.2 C 1.6 km/h
1602 09-06-2014 19:45:00 30.2 C 19.01 g/m*3 30.2 C 0 km/h
1603 09-06-2014 19:50:00 29.1 C 19.06 g/m*3 29.1 C 1.6 km/h
1604 09-06-2014 19:55:00 28.2 C 18.97 g/m*3 28.2 C 1.6 km/h
1605 09-06-2014 20:00:00 27.6 C 18.89 g/m*3 27.6 C 1.6 km/h
1606 09-06-2014 20:05:00 27.2 C 18.74 g/m*3 27.2 C 0 km/h
1607 09-06-2014 20:10:00 26.8 C 18.58 g/m*3 26.8 C 1.6 km/h
1608 09-06-2014 20:15:00 26.7 C 18.48 g/m*3 26.7 C 0 km/h
1609 09-06-2014 20:20:00 26.5 C 18.52 g/m*3 26.5 C 0 km/h
1610 09-06-2014 20:25:00 26.3 C 18.32 g/m*3 26.3 C 1.6 km/h
1611 09-06-2014 20:30:00 26.1 C 17.38 g/m*3 26.1 C 1.6 km/h
1612 09-06-2014 20:35:00 25.9 C 17.19 g/m*3 25.9 C 1.6 km/h
1613 09-06-2014 20:40:00 25.7 C 16.76 g/m*3 25.7 C 0 km/h
1614 09-06-2014 20:45:00 25.4 C 16.72 g/m*3 25.4 C 1.6 km/h
1615 09-06-2014 20:50:00 25.3 C 16.62 g/m*3 25.3 C 1.6 km/h
1616 09-06-2014 20:55:00 25.2 C 16.76 g/m*3 25.2 C 1.6 km/h
1617 09-06-2014 21:00:00 25.1 C 16.67 g/m*3 25.1 C 0 km/h
1618 09-06-2014 21:05:00 25.1 C 16.67 g/m*3 25.1 C 1.6 km/h
1619 09-06-2014 21:10:00 25.2 C 16.3 g/m*3 25.2 C 1.6 km/h
1620 09-06-2014 21:15:00 25.1 C 16.2 g/m*3 25.1 C 1.6 km/h
1621 09-06-2014 21:20:00 25.3 C 16.86 g/m*3 25.3 C 11.3 km/h
1622 09-06-2014 21:25:00 26.3 C 15.84 g/m*3 26.3 C 14.5 km/h
1623 09-06-2014 21:30:00 26.8 C 15.27 g/m*3 26.8 C 20.9 km/h
1624 09-06-2014 21:35:00 26.8 C 14.76 g/m*3 26.8 C 11.3 km/h
1625 09-06-2014 21:40:00 26.3 C 13.62 g/m*3 26.3 C 19.3 km/h
Sensor: Nr:Datum:Temp:Abs-Feuchte:Windchill:Wind:
Aussen-T/F 1626 09-06-2014 21:45:00 25.8 C 13 g/m*3 25.8 C 11.3 km/h
1627 09-06-2014 21:50:00 25.2 C 12.8 g/m*3 25.2 C 14.5 km/h
1628 09-06-2014 21:55:00 24.8 C 12.29 g/m*3 24.8 C 11.3 km/h
1629 09-06-2014 22:00:00 24.4 C 12.24 g/m*3 24.4 C 19.3 km/h
1630 09-06-2014 22:05:00 23.9 C 12.33 g/m*3 23.9 C 14.5 km/h
1631 09-06-2014 22:10:00 23.1 C 12.4 g/m*3 23.1 C 9.7 km/h
1632 09-06-2014 22:15:00 22.3 C 12.44 g/m*3 22.3 C 16.1 km/h
1633 09-06-2014 22:20:00 21.8 C 12.47 g/m*3 21.8 C 6.4 km/h
1634 09-06-2014 22:25:00 21.6 C 12.52 g/m*3 21.6 C 6.4 km/h
1635 09-06-2014 22:30:00 21.4 C 12.75 g/m*3 21.4 C 12.9 km/h
1636 09-06-2014 22:35:00 21.2 C 12.79 g/m*3 21.2 C 9.7 km/h
1637 09-06-2014 22:40:00 21.2 C 12.79 g/m*3 21.2 C 8.1 km/h
1638 09-06-2014 22:45:00 21.1 C 12.9 g/m*3 21.1 C 4.8 km/h
1639 09-06-2014 22:50:00 20.9 C 12.75 g/m*3 20.9 C 3.2 km/h
1640 09-06-2014 22:55:00 20.8 C 12.86 g/m*3 20.8 C 3.2 km/h
1641 09-06-2014 23:00:00 20.7 C 12.78 g/m*3 20.7 C 3.2 km/h
1642 09-06-2014 23:05:00 20.6 C 12.71 g/m*3 20.6 C 4.8 km/h
1643 09-06-2014 23:10:00 20.6 C 12.89 g/m*3 20.6 C 3.2 km/h
1644 09-06-2014 23:15:00 20.5 C 12.99 g/m*3 20.5 C 0 km/h
1645 09-06-2014 23:20:00 20.2 C 12.94 g/m*3 20.2 C 0 km/h
1646 09-06-2014 23:25:00 19.9 C 12.89 g/m*3 19.9 C 0 km/h
1647 09-06-2014 23:30:00 19.7 C 12.91 g/m*3 19.7 C 0 km/h
1648 09-06-2014 23:35:00 19.6 C 13 g/m*3 19.6 C 0 km/h
1649 09-06-2014 23:40:00 19.4 C 12.85 g/m*3 19.4 C 0 km/h
1650 09-06-2014 23:45:00 19.3 C 12.94 g/m*3 19.3 C 0 km/h
Sensor: Nr:Datum:Temp:Abs-Feuchte:Windchill:Wind:
Aussen-T/F 1651 09-06-2014 23:50:00 19.2 C 12.86 g/m*3 19.2 C 0 km/h
1652 09-06-2014 23:55:00 18.9 C 12.8 g/m*3 18.9 C 0 km/h
1653 10-06-2014 00:00:00 18.8 C 12.88 g/m*3 18.8 C 0 km/h
1654 10-06-2014 00:05:00 18.7 C 12.81 g/m*3 18.7 C 0 km/h
1655 10-06-2014 00:10:00 18.6 C 12.89 g/m*3 18.6 C 0 km/h
1656 10-06-2014 00:15:00 18.6 C 12.89 g/m*3 18.6 C 0 km/h
1657 10-06-2014 00:20:00 18.6 C 12.89 g/m*3 18.6 C 0 km/h
1658 10-06-2014 00:25:00 18.5 C 12.82 g/m*3 18.5 C 0 km/h
1659 10-06-2014 00:30:00 18.4 C 12.9 g/m*3 18.4 C 0 km/h
1660 10-06-2014 00:35:00 18.4 C 12.9 g/m*3 18.4 C 0 km/h
1661 10-06-2014 00:40:00 18.3 C 12.82 g/m*3 18.3 C 0 km/h
1662 10-06-2014 00:45:00 18.3 C 12.82 g/m*3 18.3 C 0 km/h
1663 10-06-2014 00:50:00 18.2 C 12.75 g/m*3 18.2 C 0 km/h
1664 10-06-2014 00:55:00 18.2 C 12.75 g/m*3 18.2 C 0 km/h
1665 10-06-2014 01:00:00 18.1 C 12.82 g/m*3 18.1 C 0 km/h
1666 10-06-2014 01:05:00 18 C 12.75 g/m*3 18 C 0 km/h
1667 10-06-2014 01:10:00 17.9 C 12.67 g/m*3 17.9 C 0 km/h
1668 10-06-2014 01:15:00 17.9 C 12.67 g/m*3 17.9 C 0 km/h
1669 10-06-2014 01:20:00 17.8 C 12.6 g/m*3 17.8 C 0 km/h
1670 10-06-2014 01:25:00 17.8 C 12.75 g/m*3 17.8 C 0 km/h
1671 10-06-2014 01:30:00 17.7 C 12.67 g/m*3 17.7 C 0 km/h
1672 10-06-2014 01:35:00 17.6 C 12.6 g/m*3 17.6 C 0 km/h
1673 10-06-2014 01:40:00 17.6 C 12.75 g/m*3 17.6 C 1.6 km/h
1674 10-06-2014 01:45:00 17.6 C 12.75 g/m*3 17.6 C 0 km/h
1675 10-06-2014 01:50:00 17.5 C 12.67 g/m*3 17.5 C 0 km/h
Sensor: Nr:Datum:Temp:Abs-Feuchte:Windchill:Wind:
Aussen-T/F 1676 10-06-2014 01:55:00 17.5 C 12.67 g/m*3 17.5 C 0 km/h
1677 10-06-2014 02:00:00 17.4 C 12.75 g/m*3 17.4 C 0 km/h
1678 10-06-2014 02:05:00 17.4 C 12.75 g/m*3 17.4 C 1.6 km/h
1679 10-06-2014 02:10:00 17.4 C 12.75 g/m*3 17.4 C 1.6 km/h
1680 10-06-2014 02:15:00 17.3 C 12.67 g/m*3 17.3 C 0 km/h
1681 10-06-2014 02:20:00 17.3 C 12.67 g/m*3 17.3 C 0 km/h
1682 10-06-2014 02:25:00 17.2 C 12.59 g/m*3 17.2 C 0 km/h
1683 10-06-2014 02:30:00 17.1 C 12.66 g/m*3 17.1 C 0 km/h
1684 10-06-2014 02:35:00 17 C 12.59 g/m*3 17 C 0 km/h
1685 10-06-2014 02:40:00 17 C 12.59 g/m*3 17 C 0 km/h
1686 10-06-2014 02:45:00 16.9 C 12.51 g/m*3 16.9 C 0 km/h
1687 10-06-2014 02:50:00 16.9 C 12.51 g/m*3 16.9 C 0 km/h
1688 10-06-2014 02:55:00 16.8 C 12.58 g/m*3 16.8 C 0 km/h
1689 10-06-2014 03:00:00 16.8 C 12.58 g/m*3 16.8 C 0 km/h
1690 10-06-2014 03:05:00 16.7 C 12.51 g/m*3 16.7 C 0 km/h
1691 10-06-2014 03:10:00 16.6 C 12.43 g/m*3 16.6 C 0 km/h
1692 10-06-2014 03:15:00 16.6 C 12.57 g/m*3 16.6 C 0 km/h
1693 10-06-2014 03:20:00 16.6 C 12.57 g/m*3 16.6 C 0 km/h
1694 10-06-2014 03:25:00 16.6 C 12.57 g/m*3 16.6 C 0 km/h
1695 10-06-2014 03:30:00 16.6 C 12.57 g/m*3 16.6 C 3.2 km/h
1696 10-06-2014 03:35:00 16.6 C 12.57 g/m*3 16.6 C 0 km/h
1697 10-06-2014 03:40:00 16.6 C 12.57 g/m*3 16.6 C 0 km/h
1698 10-06-2014 03:45:00 16.6 C 12.57 g/m*3 16.6 C 0 km/h
1699 10-06-2014 03:50:00 16.6 C 12.57 g/m*3 16.6 C 1.6 km/h
1700 10-06-2014 03:55:00 16.6 C 12.57 g/m*3 16.6 C 0 km/h
Sensor: Nr:Datum:Temp:Abs-Feuchte:Windchill:Wind:
Aussen-T/F 1701 10-06-2014 04:00:00 16.6 C 12.57 g/m*3 16.6 C 1.6 km/h
1702 10-06-2014 04:05:00 16.6 C 12.57 g/m*3 16.6 C 0 km/h
1703 10-06-2014 04:10:00 16.6 C 12.57 g/m*3 16.6 C 0 km/h
1704 10-06-2014 04:15:00 16.4 C 12.42 g/m*3 16.4 C 0 km/h
1705 10-06-2014 04:20:00 16.3 C 12.35 g/m*3 16.3 C 0 km/h
1706 10-06-2014 04:25:00 16.3 C 12.35 g/m*3 16.3 C 0 km/h
1707 10-06-2014 04:30:00 16.3 C 12.35 g/m*3 16.3 C 0 km/h
1708 10-06-2014 04:35:00 16.3 C 12.35 g/m*3 16.3 C 0 km/h
1709 10-06-2014 04:40:00 16.2 C 12.27 g/m*3 16.2 C 0 km/h
1710 10-06-2014 04:45:00 16.2 C 12.41 g/m*3 16.2 C 4.8 km/h
1711 10-06-2014 04:50:00 16.2 C 12.27 g/m*3 16.2 C 4.8 km/h
1712 10-06-2014 04:55:00 16.2 C 12.41 g/m*3 16.2 C 0 km/h
1713 10-06-2014 05:00:00 16.1 C 12.2 g/m*3 16.1 C 0 km/h
1714 10-06-2014 05:05:00 16.1 C 12.2 g/m*3 16.1 C 0 km/h
1715 10-06-2014 05:10:00 16 C 12.26 g/m*3 16 C 0 km/h
1716 10-06-2014 05:15:00 16 C 12.4 g/m*3 16 C 0 km/h
1717 10-06-2014 05:20:00 15.9 C 12.32 g/m*3 15.9 C 0 km/h
1718 10-06-2014 05:25:00 15.9 C 12.32 g/m*3 15.9 C 0 km/h
1719 10-06-2014 05:30:00 15.9 C 12.32 g/m*3 15.9 C 0 km/h
1720 10-06-2014 05:35:00 15.9 C 12.32 g/m*3 15.9 C 0 km/h
1721 10-06-2014 05:40:00 16 C 12.4 g/m*3 16 C 0 km/h
1722 10-06-2014 05:45:00 16.1 C 12.61 g/m*3 16.1 C 0 km/h
1723 10-06-2014 05:50:00 16.1 C 12.47 g/m*3 16.1 C 1.6 km/h
1724 10-06-2014 05:55:00 16.3 C 12.62 g/m*3 16.3 C 6.4 km/h
1725 10-06-2014 06:00:00 16.4 C 12.56 g/m*3 16.4 C 6.4 km/h
Sensor: Nr:Datum:Temp:Abs-Feuchte:Windchill:Wind:
Aussen-T/F 1726 10-06-2014 06:05:00 16.5 C 12.64 g/m*3 16.5 C 1.6 km/h
1727 10-06-2014 06:10:00 16.6 C 12.71 g/m*3 16.6 C 6.4 km/h
1728 10-06-2014 06:15:00 16.7 C 12.79 g/m*3 16.7 C 1.6 km/h
1729 10-06-2014 06:20:00 16.6 C 12.71 g/m*3 16.6 C 0 km/h
1730 10-06-2014 06:25:00 16.7 C 12.79 g/m*3 16.7 C 0 km/h
1731 10-06-2014 06:30:00 16.6 C 12.71 g/m*3 16.6 C 0 km/h
1732 10-06-2014 06:35:00 16.7 C 12.65 g/m*3 16.7 C 1.6 km/h
1733 10-06-2014 06:40:00 16.7 C 12.65 g/m*3 16.7 C 1.6 km/h
1734 10-06-2014 06:45:00 16.8 C 12.72 g/m*3 16.8 C 4.8 km/h
1735 10-06-2014 06:50:00 16.8 C 12.87 g/m*3 16.8 C 0 km/h
1736 10-06-2014 06:55:00 16.8 C 12.87 g/m*3 16.8 C 0 km/h
1737 10-06-2014 07:00:00 16.8 C 12.87 g/m*3 16.8 C 4.8 km/h
1738 10-06-2014 07:05:00 16.8 C 12.87 g/m*3 16.8 C 4.8 km/h
1739 10-06-2014 07:10:00 17.3 C 13.11 g/m*3 17.3 C 1.6 km/h
1740 10-06-2014 07:15:00 17.6 C 13.35 g/m*3 17.6 C 4.8 km/h
1741 10-06-2014 07:20:00 17.7 C 13.28 g/m*3 17.7 C 3.2 km/h
1742 10-06-2014 07:25:00 18 C 13.36 g/m*3 18 C 4.8 km/h
1743 10-06-2014 07:30:00 18.3 C 13.6 g/m*3 18.3 C 0 km/h
1744 10-06-2014 07:35:00 18.4 C 13.68 g/m*3 18.4 C 0 km/h
1745 10-06-2014 07:40:00 18.6 C 13.69 g/m*3 18.6 C 1.6 km/h
1746 10-06-2014 07:45:00 18.7 C 13.77 g/m*3 18.7 C 0 km/h
1747 10-06-2014 07:50:00 18.8 C 13.53 g/m*3 18.8 C 0 km/h
1748 10-06-2014 07:55:00 18.9 C 13.93 g/m*3 18.9 C 0 km/h
1749 10-06-2014 08:00:00 18.9 C 13.61 g/m*3 18.9 C 0 km/h
1750 10-06-2014 08:05:00 19.1 C 13.93 g/m*3 19.1 C 0 km/h
Sensor: Nr:Datum:Temp:Abs-Feuchte:Windchill:Wind:
Aussen-T/F 1751 10-06-2014 08:10:00 19.2 C 14.02 g/m*3 19.2 C 0 km/h
1752 10-06-2014 08:15:00 19.4 C 14.01 g/m*3 19.4 C 0 km/h
1753 10-06-2014 08:20:00 19.6 C 14.18 g/m*3 19.6 C 0 km/h
1754 10-06-2014 08:25:00 19.8 C 14.35 g/m*3 19.8 C 0 km/h
1755 10-06-2014 08:30:00 19.9 C 14.43 g/m*3 19.9 C 1.6 km/h
1756 10-06-2014 08:35:00 20.1 C 14.25 g/m*3 20.1 C 0 km/h
1757 10-06-2014 08:40:00 20.4 C 14.51 g/m*3 20.4 C 0 km/h
1758 10-06-2014 08:45:00 20.7 C 14.58 g/m*3 20.7 C 0 km/h
1759 10-06-2014 08:50:00 21 C 14.65 g/m*3 21 C 0 km/h
1760 10-06-2014 08:55:00 21.2 C 14.83 g/m*3 21.2 C 0 km/h
1761 10-06-2014 09:00:00 21.2 C 14.64 g/m*3 21.2 C 0 km/h
1762 10-06-2014 09:05:00 21.3 C 14.35 g/m*3 21.3 C 0 km/h
1763 10-06-2014 09:10:00 21.3 C 14.73 g/m*3 21.3 C 0 km/h
1764 10-06-2014 09:15:00 21.3 C 14.54 g/m*3 21.3 C 0 km/h
1765 10-06-2014 09:20:00 21.1 C 14.56 g/m*3 21.1 C 0 km/h
1766 10-06-2014 09:25:00 20.8 C 14.67 g/m*3 20.8 C 0 km/h
1767 10-06-2014 09:30:00 20.8 C 14.67 g/m*3 20.8 C 0 km/h
1768 10-06-2014 09:35:00 21 C 14.65 g/m*3 21 C 3.2 km/h
1769 10-06-2014 09:40:00 21.4 C 13.87 g/m*3 21.4 C 3.2 km/h
1770 10-06-2014 09:45:00 21.8 C 14.01 g/m*3 21.8 C 1.6 km/h
1771 10-06-2014 09:50:00 21.8 C 14.58 g/m*3 21.8 C 0 km/h
1772 10-06-2014 09:55:00 21.6 C 14.79 g/m*3 21.6 C 0 km/h
1773 10-06-2014 10:00:00 21.4 C 15 g/m*3 21.4 C 0 km/h
1774 10-06-2014 10:05:00 21.7 C 15.26 g/m*3 21.7 C 0 km/h
1775 10-06-2014 10:10:00 22.2 C 14.53 g/m*3 22.2 C 0 km/h
Sensor: Nr:Datum:Temp:Abs-Feuchte:Windchill:Wind:
Aussen-T/F 1776 10-06-2014 10:15:00 22.6 C 15.27 g/m*3 22.6 C 1.6 km/h
1777 10-06-2014 10:20:00 23.1 C 14.06 g/m*3 23.1 C 1.6 km/h
1778 10-06-2014 10:25:00 23.7 C 14.33 g/m*3 23.7 C 1.6 km/h
1779 10-06-2014 10:30:00 24.2 C 14.3 g/m*3 24.2 C 3.2 km/h
1780 10-06-2014 10:35:00 24.6 C 14.4 g/m*3 24.6 C 4.8 km/h
1781 10-06-2014 10:40:00 25 C 14.27 g/m*3 25 C 6.4 km/h
1782 10-06-2014 10:45:00 25.4 C 14.36 g/m*3 25.4 C 8.1 km/h
1783 10-06-2014 10:50:00 25.7 C 14.36 g/m*3 25.7 C 11.3 km/h
1784 10-06-2014 10:55:00 25.9 C 14.04 g/m*3 25.9 C 6.4 km/h
1785 10-06-2014 11:00:00 26 C 14.12 g/m*3 26 C 4.8 km/h
1786 10-06-2014 11:05:00 25.9 C 14.04 g/m*3 25.9 C 3.2 km/h
1787 10-06-2014 11:10:00 25.9 C 14.28 g/m*3 25.9 C 1.6 km/h
1788 10-06-2014 11:15:00 25.8 C 14.69 g/m*3 25.8 C 1.6 km/h
1789 10-06-2014 11:20:00 25.6 C 15.24 g/m*3 25.6 C 0 km/h
1790 10-06-2014 11:25:00 25.2 C 15.83 g/m*3 25.2 C 0 km/h
1791 10-06-2014 11:30:00 24.7 C 16.07 g/m*3 24.7 C 0 km/h
1792 10-06-2014 11:35:00 24.3 C 15.93 g/m*3 24.3 C 0 km/h
1793 10-06-2014 11:40:00 24.2 C 16.06 g/m*3 24.2 C 0 km/h
1794 10-06-2014 11:45:00 24.4 C 15.58 g/m*3 24.4 C 0 km/h
1795 10-06-2014 11:50:00 24.8 C 15.25 g/m*3 24.8 C 0 km/h
1796 10-06-2014 11:55:00 25.2 C 16.06 g/m*3 25.2 C 1.6 km/h
1797 10-06-2014 12:00:00 25 C 15.88 g/m*3 25 C 0 km/h
1798 10-06-2014 12:05:00 25.1 C 16.2 g/m*3 25.1 C 3.2 km/h
1799 10-06-2014 12:10:00 25.8 C 16.37 g/m*3 25.8 C 6.4 km/h
1800 10-06-2014 12:15:00 26.7 C 15.69 g/m*3 26.7 C 11.3 km/h
Sensor: Nr:Datum:Temp:Abs-Feuchte:Windchill:Wind:
Aussen-T/F 1801 10-06-2014 12:20:00 27.2 C 15.61 g/m*3 27.2 C 9.7 km/h
1802 10-06-2014 12:25:00 27.6 C 16.49 g/m*3 27.6 C 9.7 km/h
1803 10-06-2014 12:30:00 27.9 C 16.5 g/m*3 27.9 C 9.7 km/h
1804 10-06-2014 12:35:00 28.1 C 16.13 g/m*3 28.1 C 11.3 km/h
1805 10-06-2014 12:40:00 28.4 C 15.84 g/m*3 28.4 C 9.7 km/h
1806 10-06-2014 12:45:00 28.7 C 16.11 g/m*3 28.7 C 11.3 km/h
1807 10-06-2014 12:50:00 28.7 C 15.82 g/m*3 28.7 C 11.3 km/h
1808 10-06-2014 12:55:00 28.9 C 16.85 g/m*3 28.9 C 11.3 km/h
1809 10-06-2014 13:00:00 29.2 C 15.97 g/m*3 29.2 C 8.1 km/h
1810 10-06-2014 13:05:00 29.4 C 16.44 g/m*3 29.4 C 8.1 km/h
1811 10-06-2014 13:10:00 29.8 C 16.2 g/m*3 29.8 C 6.4 km/h
1812 10-06-2014 13:15:00 30.2 C 16.86 g/m*3 30.2 C 6.4 km/h
1813 10-06-2014 13:20:00 30.3 C 16.33 g/m*3 30.3 C 4.8 km/h
1814 10-06-2014 13:25:00 30.7 C 16.69 g/m*3 30.7 C 6.4 km/h
1815 10-06-2014 13:30:00 30.7 C 17.01 g/m*3 30.7 C 4.8 km/h
1816 10-06-2014 13:35:00 30.6 C 16.6 g/m*3 30.6 C 3.2 km/h
1817 10-06-2014 13:40:00 30.5 C 15.89 g/m*3 30.5 C 8.1 km/h
1818 10-06-2014 13:45:00 30.6 C 16.29 g/m*3 30.6 C 4.8 km/h
1819 10-06-2014 13:50:00 30.6 C 16.6 g/m*3 30.6 C 8.1 km/h
1820 10-06-2014 13:55:00 30.7 C 16.06 g/m*3 30.7 C 8.1 km/h
1821 10-06-2014 14:00:00 31.1 C 16.73 g/m*3 31.1 C 3.2 km/h
1822 10-06-2014 14:05:00 31.3 C 16.91 g/m*3 31.3 C 4.8 km/h
1823 10-06-2014 14:10:00 31.4 C 16.67 g/m*3 31.4 C 4.8 km/h
1824 10-06-2014 14:15:00 31.4 C 16.35 g/m*3 31.4 C 6.4 km/h
1825 10-06-2014 14:20:00 31.6 C 16.19 g/m*3 31.6 C 1.6 km/h
Sensor: Nr:Datum:Temp:Abs-Feuchte:Windchill:Wind:
Aussen-T/F 1826 10-06-2014 14:25:00 31.7 C 15.95 g/m*3 31.7 C 4.8 km/h
1827 10-06-2014 14:30:00 31.8 C 16.7 g/m*3 31.8 C 3.2 km/h
1828 10-06-2014 14:35:00 32.2 C 16.04 g/m*3 32.2 C 3.2 km/h
1829 10-06-2014 14:40:00 32.4 C 16.21 g/m*3 32.4 C 3.2 km/h
1830 10-06-2014 14:45:00 32.2 C 15.7 g/m*3 32.2 C 4.8 km/h
1831 10-06-2014 14:50:00 32.1 C 16.97 g/m*3 32.1 C 4.8 km/h
1832 10-06-2014 14:55:00 32.3 C 15.78 g/m*3 32.3 C 6.4 km/h
1833 10-06-2014 15:00:00 32.4 C 16.21 g/m*3 32.4 C 3.2 km/h
1834 10-06-2014 15:05:00 32.7 C 15.42 g/m*3 32.7 C 4.8 km/h
1835 10-06-2014 15:10:00 32.9 C 15.58 g/m*3 32.9 C 4.8 km/h
1836 10-06-2014 15:15:00 33.1 C 15.39 g/m*3 33.1 C 4.8 km/h
1837 10-06-2014 15:20:00 33.1 C 16.1 g/m*3 33.1 C 6.4 km/h
1838 10-06-2014 15:25:00 33.1 C 15.39 g/m*3 33.1 C 6.4 km/h
1839 10-06-2014 15:30:00 33.4 C 15.63 g/m*3 33.4 C 3.2 km/h
1840 10-06-2014 15:35:00 33.6 C 15.43 g/m*3 33.6 C 4.8 km/h
1841 10-06-2014 15:40:00 33.8 C 15.59 g/m*3 33.8 C 4.8 km/h
1842 10-06-2014 15:45:00 34 C 14.26 g/m*3 34 C 8.1 km/h
1843 10-06-2014 15:50:00 33.9 C 14.18 g/m*3 33.9 C 9.7 km/h
1844 10-06-2014 15:55:00 33.5 C 14.25 g/m*3 33.5 C 4.8 km/h
1845 10-06-2014 16:00:00 33.3 C 13.74 g/m*3 33.3 C 1.6 km/h
1846 10-06-2014 16:05:00 33.6 C 15.06 g/m*3 33.6 C 4.8 km/h
1847 10-06-2014 16:10:00 33.8 C 14.48 g/m*3 33.8 C 4.8 km/h
1848 10-06-2014 16:15:00 34 C 15.01 g/m*3 34 C 8.1 km/h
1849 10-06-2014 16:20:00 34.3 C 14.1 g/m*3 34.3 C 4.8 km/h
1850 10-06-2014 16:25:00 34.6 C 14.71 g/m*3 34.6 C 6.4 km/h
Sensor: Nr:Datum:Temp:Abs-Feuchte:Windchill:Wind:
Aussen-T/F 1851 10-06-2014 16:30:00 34.2 C 14.41 g/m*3 34.2 C 6.4 km/h
1852 10-06-2014 16:35:00 34.1 C 14.71 g/m*3 34.1 C 4.8 km/h
1853 10-06-2014 16:40:00 34.1 C 14.33 g/m*3 34.1 C 8.1 km/h
1854 10-06-2014 16:45:00 34.1 C 15.09 g/m*3 34.1 C 8.1 km/h
1855 10-06-2014 16:50:00 34.1 C 14.71 g/m*3 34.1 C 3.2 km/h
1856 10-06-2014 16:55:00 34.1 C 14.33 g/m*3 34.1 C 4.8 km/h
1857 10-06-2014 17:00:00 34.4 C 13.79 g/m*3 34.4 C 8.1 km/h
1858 10-06-2014 17:05:00 34.6 C 13.94 g/m*3 34.6 C 6.4 km/h
1859 10-06-2014 17:10:00 35.1 C 13.11 g/m*3 35.1 C 6.4 km/h
1860 10-06-2014 17:15:00 34.6 C 12.39 g/m*3 34.6 C 4.8 km/h
1861 10-06-2014 17:20:00 33.9 C 14.93 g/m*3 33.9 C 4.8 km/h
1862 10-06-2014 17:25:00 32.8 C 16.2 g/m*3 32.8 C 3.2 km/h
1863 10-06-2014 17:30:00 31.5 C 16.44 g/m*3 31.5 C 1.6 km/h
1864 10-06-2014 17:35:00 30.7 C 15.43 g/m*3 30.7 C 6.4 km/h
1865 10-06-2014 17:40:00 30.6 C 15.03 g/m*3 30.6 C 4.8 km/h
1866 10-06-2014 17:45:00 30.6 C 15.66 g/m*3 30.6 C 3.2 km/h
1867 10-06-2014 17:50:00 30.1 C 14.63 g/m*3 30.1 C 29 km/h
1868 10-06-2014 17:55:00 29.9 C 14.78 g/m*3 29.9 C 11.3 km/h
1869 10-06-2014 18:00:00 30.1 C 15.85 g/m*3 30.1 C 8.1 km/h
1870 10-06-2014 18:05:00 30.4 C 16.73 g/m*3 30.4 C 24.1 km/h
1871 10-06-2014 18:10:00 30.6 C 16.29 g/m*3 30.6 C 16.1 km/h
1872 10-06-2014 18:15:00 30.5 C 16.51 g/m*3 30.5 C 16.1 km/h
1873 10-06-2014 18:20:00 30.4 C 16.42 g/m*3 30.4 C 16.1 km/h
1874 10-06-2014 18:25:00 30.2 C 16.55 g/m*3 30.2 C 24.1 km/h
1875 10-06-2014 18:30:00 30.3 C 15.72 g/m*3 30.3 C 19.3 km/h
Sensor: Nr:Datum:Temp:Abs-Feuchte:Windchill:Wind:
Aussen-T/F 1876 10-06-2014 18:35:00 29.7 C 15.22 g/m*3 29.7 C 14.5 km/h
1877 10-06-2014 18:40:00 29.2 C 15.39 g/m*3 29.2 C 14.5 km/h
1878 10-06-2014 18:45:00 28.9 C 15.43 g/m*3 28.9 C 12.9 km/h
1879 10-06-2014 18:50:00 28.8 C 14.49 g/m*3 28.8 C 12.9 km/h
1880 10-06-2014 18:55:00 28.6 C 14.33 g/m*3 28.6 C 11.3 km/h
1881 10-06-2014 19:00:00 28.3 C 15.2 g/m*3 28.3 C 6.4 km/h
1882 10-06-2014 19:05:00 27.9 C 14.87 g/m*3 27.9 C 9.7 km/h
1883 10-06-2014 19:10:00 27.8 C 15.33 g/m*3 27.8 C 6.4 km/h
1884 10-06-2014 19:15:00 27.8 C 15.6 g/m*3 27.8 C 4.8 km/h
1885 10-06-2014 19:20:00 27.8 C 15.87 g/m*3 27.8 C 3.2 km/h
1886 10-06-2014 19:25:00 27.7 C 16.05 g/m*3 27.7 C 8.1 km/h
1887 10-06-2014 19:30:00 27.9 C 15.96 g/m*3 27.9 C 16.1 km/h
1888 10-06-2014 19:35:00 27.9 C 15.69 g/m*3 27.9 C 19.3 km/h
1889 10-06-2014 19:40:00 27.8 C 15.33 g/m*3 27.8 C 14.5 km/h
1890 10-06-2014 19:45:00 27.7 C 15.78 g/m*3 27.7 C 9.7 km/h
1891 10-06-2014 19:50:00 27.8 C 15.6 g/m*3 27.8 C 8.1 km/h
1892 10-06-2014 19:55:00 27.7 C 15.51 g/m*3 27.7 C 11.3 km/h
1893 10-06-2014 20:00:00 27.4 C 15.52 g/m*3 27.4 C 9.7 km/h
1894 10-06-2014 20:05:00 27.2 C 15.35 g/m*3 27.2 C 6.4 km/h
1895 10-06-2014 20:10:00 26.8 C 15.27 g/m*3 26.8 C 12.9 km/h
1896 10-06-2014 20:15:00 26.7 C 15.44 g/m*3 26.7 C 9.7 km/h
1897 10-06-2014 20:20:00 26.5 C 15.52 g/m*3 26.5 C 11.3 km/h
1898 10-06-2014 20:25:00 26.4 C 15.43 g/m*3 26.4 C 4.8 km/h
1899 10-06-2014 20:30:00 26.3 C 15.6 g/m*3 26.3 C 8.1 km/h
1900 10-06-2014 20:35:00 26.2 C 15.51 g/m*3 26.2 C 6.4 km/h
Sensor: Nr:Datum:Temp:Abs-Feuchte:Windchill:Wind:
Aussen-T/F 1901 10-06-2014 20:40:00 26.1 C 15.67 g/m*3 26.1 C 6.4 km/h
1902 10-06-2014 20:45:00 25.9 C 16.46 g/m*3 25.9 C 4.8 km/h
1903 10-06-2014 20:50:00 25.7 C 16.52 g/m*3 25.7 C 1.6 km/h
1904 10-06-2014 20:55:00 25.2 C 16.99 g/m*3 25.2 C 4.8 km/h
1905 10-06-2014 21:00:00 24.6 C 16.66 g/m*3 24.6 C 3.2 km/h
1906 10-06-2014 21:05:00 24.4 C 16.02 g/m*3 24.4 C 8.1 km/h
1907 10-06-2014 21:10:00 24.4 C 16.69 g/m*3 24.4 C 6.4 km/h
1908 10-06-2014 21:15:00 24.2 C 16.28 g/m*3 24.2 C 6.4 km/h
1909 10-06-2014 21:20:00 24.1 C 16.85 g/m*3 24.1 C 4.8 km/h
1910 10-06-2014 21:25:00 23.9 C 16.66 g/m*3 23.9 C 3.2 km/h
1911 10-06-2014 21:30:00 23.7 C 16.68 g/m*3 23.7 C 1.6 km/h
1912 10-06-2014 21:35:00 23.5 C 16.5 g/m*3 23.5 C 0 km/h
1913 10-06-2014 21:40:00 23.4 C 16.61 g/m*3 23.4 C 1.6 km/h
1914 10-06-2014 21:45:00 23.3 C 16.52 g/m*3 23.3 C 1.6 km/h
1915 10-06-2014 21:50:00 23.3 C 16.52 g/m*3 23.3 C 0 km/h
1916 10-06-2014 21:55:00 23.1 C 16.54 g/m*3 23.1 C 0 km/h
1917 10-06-2014 22:00:00 23 C 16.44 g/m*3 23 C 0 km/h
1918 10-06-2014 22:05:00 22.8 C 16.26 g/m*3 22.8 C 1.6 km/h
1919 10-06-2014 22:10:00 22.7 C 16.37 g/m*3 22.7 C 1.6 km/h
1920 10-06-2014 22:15:00 22.6 C 16.27 g/m*3 22.6 C 1.6 km/h
1921 10-06-2014 22:20:00 22.4 C 16.09 g/m*3 22.4 C 1.6 km/h
1922 10-06-2014 22:25:00 22.3 C 15.99 g/m*3 22.3 C 0 km/h
1923 10-06-2014 22:30:00 22.2 C 15.9 g/m*3 22.2 C 0 km/h
1924 10-06-2014 22:35:00 22.1 C 15.81 g/m*3 22.1 C 0 km/h
1925 10-06-2014 22:40:00 22.1 C 15.81 g/m*3 22.1 C 1.6 km/h
Sensor: Nr:Datum:Temp:Abs-Feuchte:Windchill:Wind:
Aussen-T/F 1926 10-06-2014 22:45:00 22.1 C 15.81 g/m*3 22.1 C 0 km/h
1927 10-06-2014 22:50:00 22.1 C 15.81 g/m*3 22.1 C 0 km/h
1928 10-06-2014 22:55:00 22 C 15.91 g/m*3 22 C 0 km/h
1929 10-06-2014 23:00:00 21.9 C 15.82 g/m*3 21.9 C 0 km/h
1930 10-06-2014 23:05:00 21.8 C 15.73 g/m*3 21.8 C 0 km/h
1931 10-06-2014 23:10:00 21.8 C 15.73 g/m*3 21.8 C 0 km/h
1932 10-06-2014 23:15:00 21.7 C 15.64 g/m*3 21.7 C 0 km/h
1933 10-06-2014 23:20:00 21.6 C 15.74 g/m*3 21.6 C 0 km/h
1934 10-06-2014 23:25:00 21.4 C 15.75 g/m*3 21.4 C 0 km/h
1935 10-06-2014 23:30:00 21.4 C 15.75 g/m*3 21.4 C 0 km/h
1936 10-06-2014 23:35:00 21.3 C 15.66 g/m*3 21.3 C 0 km/h
1937 10-06-2014 23:40:00 21.2 C 15.57 g/m*3 21.2 C 0 km/h
1938 10-06-2014 23:45:00 21.2 C 15.75 g/m*3 21.2 C 0 km/h
1939 10-06-2014 23:50:00 21.2 C 15.75 g/m*3 21.2 C 0 km/h
1940 10-06-2014 23:55:00 21.1 C 15.66 g/m*3 21.1 C 0 km/h

Legende:
   Min
   Max


Maximal/Minimal-Werte vom 04.06.2014 - 10.06.2014

Sensor Min Max Avg
Temp
(Aussen-T/F)
6.8 °C
06-06-2014  05:30:00
35.4 °C
09-06-2014  18:00:00
20.35 °C
Abs-Feuchte
(Aussen-T/F)
6.51 g/m*3
05-06-2014  19:45:00
19.11 g/m*3
09-06-2014  19:35:00
12.47 g/m*3
Windchill
(Aussen-T/F)
6.8 C
06-06-2014  05:30:00
35.4 C
09-06-2014  18:00:00
20.33 C

Die Daten stammen von einer Davis Vantage Pro 2 Wetter-Station und werden unter Linux mit der Software wview2wettercgi und aufbereitet. Alle Angaben erfolgen ohne Gewähr für ihre Vollständigkeit oder Richtigkeit.
Kontakt: Rainer Krienke krienke@uni-koblenz.de . Meine Webseiten an der Uni Koblenz oder privat.
Version: $Revision: 0.78 $